Date StartTime U_cm/s V_cm/s W_cm/s Ustd_cm/s Vstd_cm/s Wstd_cm/s Uvar_(cm/s)^2 Vvar_(cm/s)^2 Wvar_(cm/s)^2 KE_(m/s)^2 TurbulentKE_(m/s)^2 HorizWindSpeed_cm/s FrictionSpeec_cm/s DragCoef SpeedOfSound_m/s SonicTemperature_C Pressure_mb 
05/03/2013  00:00:00     -109.741      -23.185       -9.347       25.031       26.163       21.195      626.546      684.479      449.219        0.721        0.088      112.164       14.814        0.017      339.184       12.343      867.097
05/03/2013  00:01:00      -95.615      -25.744       -7.971       33.411       32.157       22.325     1116.307     1034.066      498.424        0.626        0.132       99.020       18.360        0.034      339.253       12.460      867.093
05/03/2013  00:02:00      -51.635      -22.674       -4.694       22.227       16.442       16.448      494.033      270.349      270.539        0.212        0.052       56.394        8.783        0.024      339.378       12.669      867.086
05/03/2013  00:03:00      -95.928      -20.448      -14.728       21.027       22.705       13.765      442.122      515.531      189.478        0.549        0.057       98.083        5.018        0.003      339.410       12.725      867.087
05/03/2013  00:04:00     -126.063      -23.293      -17.977       16.352       13.508       13.025      267.373      182.473      169.654        0.869        0.031      128.196        8.191        0.004      339.318       12.569      867.080
05/03/2013  00:05:00     -120.539      -45.733      -17.333       14.872       18.478       13.249      221.165      341.424      175.538        0.883        0.037      128.923       11.632        0.008      339.318       12.569      867.080
05/03/2013  00:06:00     -121.818      -49.458      -16.906       21.041       16.842       13.027      442.722      283.665      169.711        0.923        0.045      131.476        8.426        0.004      339.244       12.444      867.088
05/03/2013  00:07:00     -141.644      -49.266      -14.382       22.352       17.136       11.574      499.619      293.626      133.964        1.181        0.046      149.967        5.612        0.001      339.156       12.296      867.094
05/03/2013  00:08:00     -114.015      -38.667       -3.216       30.285       28.424       16.263      917.200      807.920      264.487        0.825        0.099      120.394       15.030        0.016      339.224       12.412      867.091
05/03/2013  00:09:00      -92.184      -33.810      -10.668       49.733       30.580       18.824     2473.323      935.133      354.328        0.676        0.188       98.189       16.676        0.029      339.247       12.451      867.091
05/03/2013  00:10:00      -75.187      -28.151       -8.923       30.040       29.277       17.514      902.422      857.143      306.744        0.430        0.103       80.284       15.555        0.038      339.287       12.517      867.097
05/03/2013  00:11:00      -88.845      -58.096      -14.002       39.819       20.087       15.914     1585.584      403.482      253.260        0.685        0.112      106.153       12.842        0.015      339.309       12.552      867.092
05/03/2013  00:12:00      -80.397      -64.772      -11.096       37.328       19.495       23.189     1393.371      380.039      537.750        0.655        0.116      103.243       20.673        0.040      339.291       12.522      867.088
05/03/2013  00:13:00      -81.805      -46.899       -5.637       26.540       27.065       18.609      704.371      732.525      346.306        0.535        0.089       94.295        9.107        0.009      339.287       12.516      867.082
05/03/2013  00:14:00      -83.746      -48.561       -6.488       38.261       22.437       14.705     1463.938      503.416      216.242        0.580        0.109       96.807       16.474        0.029      339.295       12.529      867.078
05/03/2013  00:15:00      -23.875      -13.928        7.981       31.036       20.245       19.987      963.212      409.854      399.497        0.130        0.089       27.641       15.486        0.314      339.167       12.315      867.070
05/03/2013  00:16:00      -88.776      -57.987       -1.680       49.507       23.839       15.537     2450.960      568.316      241.391        0.725        0.163      106.036       19.954        0.035      339.231       12.422      867.066
05/03/2013  00:17:00      -94.004      -57.839       -4.300       34.551       19.535       17.436     1193.782      381.616      304.024        0.704        0.094      110.373       13.649        0.015      339.223       12.408      867.073
05/03/2013  00:18:00      -94.686      -49.336       -5.019       33.580       19.316       18.394     1127.612      373.117      338.343        0.663        0.092      106.768       11.920        0.012      339.210       12.387      867.071
05/03/2013  00:19:00      -91.295      -69.008        2.915       34.296       25.761       21.024     1176.206      663.611      441.988        0.769        0.114      114.442       20.846        0.033      339.205       12.379      867.067
05/03/2013  00:20:00      -97.499      -70.997       -4.854       25.204       19.225       15.050      635.264      369.591      226.507        0.790        0.062      120.610        5.577        0.002      339.232       12.424      867.063
05/03/2013  00:21:00      -91.793      -60.197       -0.780       30.480       21.361       18.880      929.009      456.303      356.453        0.690        0.087      109.771       15.658        0.020      339.140       12.269      867.079
05/03/2013  00:22:00      -81.705      -60.185       -6.776       24.011       18.612       14.152      576.531      346.421      200.280        0.573        0.056      101.479        9.486        0.009      339.061       12.137      867.074
05/03/2013  00:23:00      -67.723      -52.484       -5.099       31.980       20.075       14.636     1022.739      402.993      214.212        0.450        0.082       85.679       13.111        0.023      339.075       12.160      867.074
05/03/2013  00:24:00      -30.644      -31.547       12.309       35.919       21.389       22.886     1290.140      457.508      523.752        0.218        0.114       43.980       20.408        0.215      339.030       12.085      867.081
05/03/2013  00:25:00      -57.312      -56.316        3.651       41.545       29.366       20.170     1725.987      862.366      406.849        0.473        0.150       80.350       18.699        0.054      338.992       12.019      867.076
05/03/2013  00:26:00      -93.559      -59.511        0.473       36.292       29.802       23.658     1317.077      888.184      559.704        0.753        0.138      110.882       18.649        0.028      339.005       12.043      867.069
05/03/2013  00:27:00      -94.904      -75.019       -2.762       35.822       33.407       20.065     1283.196     1116.051      402.618        0.872        0.140      120.974       17.456        0.021      339.030       12.083      867.070
05/03/2013  00:28:00      -97.383      -81.244       -4.029       54.166       29.023       21.443     2933.913      842.358      459.820        1.017        0.212      126.823       18.023        0.020      339.024       12.073      867.061
05/03/2013  00:29:00      -70.498      -53.346       -2.169       47.983       31.196       25.744     2302.386      973.176      662.734        0.588        0.197       88.406       19.474        0.049      338.945       11.941      867.052
05/03/2013  00:30:00      -46.877      -57.253       11.526       47.566       32.208       30.511     2262.567     1037.337      930.902        0.492        0.212       73.996       25.432        0.118      338.904       11.872      867.041
05/03/2013  00:31:00      -97.037      -55.048        1.566       44.630       32.159       19.895     1991.836     1034.219      395.807        0.793        0.171      111.564       23.827        0.046      338.944       11.939      867.042
05/03/2013  00:32:00      -41.318      -39.753        8.752       32.275       23.997       19.732     1041.679      575.847      389.361        0.269        0.100       57.336       17.400        0.092      338.940       11.933      867.036
05/03/2013  00:33:00      -60.083      -50.070        2.340       49.071       25.224       23.670     2408.010      636.262      560.260        0.486        0.180       78.211       25.023        0.102      338.944       11.940      867.031
05/03/2013  00:34:00      -24.896      -37.370        4.501       34.132       28.132       20.420     1164.980      791.403      416.962        0.220        0.119       44.903       20.412        0.207      338.942       11.937      867.031
05/03/2013  00:35:00      -40.105      -36.481       10.585       37.137       28.104       19.198     1379.141      789.820      368.570        0.279        0.127       54.215       17.924        0.109      338.950       11.949      867.025
05/03/2013  00:36:00      -62.595      -37.475        4.911       45.084       25.933       26.612     2032.571      672.533      708.206        0.438        0.171       72.956       28.807        0.156      338.896       11.860      867.024
05/03/2013  00:37:00      -72.750      -48.681        4.000       38.273       29.598       22.094     1464.854      876.055      488.167        0.525        0.141       87.535       21.611        0.061      338.891       11.850      867.036
05/03/2013  00:38:00      -76.910      -44.296       -0.421       32.662       19.688       18.530     1066.838      387.614      343.355        0.484        0.090       88.754       17.697        0.040      338.832       11.751      867.040
05/03/2013  00:39:00      -77.450      -48.675       -0.036       31.380       21.379       18.154      984.720      457.054      329.563        0.507        0.089       91.475       19.172        0.044      338.842       11.768      867.050
05/03/2013  00:40:00      -90.000      -49.770       -2.713       27.256       21.217       11.134      742.889      450.162      123.969        0.595        0.066      102.845        9.826        0.009      338.950       11.950      867.064
05/03/2013  00:41:00     -104.474      -40.913       -5.375       17.891       20.744       15.441      320.079      430.326      238.424        0.680        0.049      112.199        7.764        0.005      338.953       11.956      867.061
05/03/2013  00:42:00     -109.447      -40.028       -6.627       19.268       18.323       16.226      371.256      335.726      263.296        0.730        0.049      116.537        9.995        0.007      338.893       11.853      867.066
05/03/2013  00:43:00     -115.434      -32.829        1.556       33.253       22.572       16.301     1105.756      509.476      265.731        0.814        0.094      120.011       15.504        0.017      338.885       11.839      867.083
05/03/2013  00:44:00     -129.457      -36.657       -3.299       26.363       23.598       21.026      695.013      556.843      442.078        0.990        0.085      134.547       17.302        0.017      338.819       11.729      867.092
05/03/2013  00:45:00     -130.789      -38.756       -5.709       31.207       28.729       17.036      973.901      825.354      290.210        1.036        0.104      136.410       15.302        0.013      338.775       11.656      867.081
05/03/2013  00:46:00     -121.622      -49.183       -5.986       27.226       25.682       17.247      741.277      659.563      297.456        0.947        0.085      131.190       16.371        0.016      338.717       11.559      867.091
05/03/2013  00:47:00     -120.790      -66.835       -3.148       21.072       19.055       18.346      444.008      363.092      336.580        1.011        0.057      138.047       12.162        0.008      338.627       11.407      867.080
05/03/2013  00:48:00      -78.606      -59.021       -3.180       26.574       23.874       17.703      706.152      569.963      313.390        0.563        0.079       98.297       12.457        0.016      338.615       11.387      867.071
05/03/2013  00:49:00      -79.485      -52.485       -8.427       20.612       20.636       14.415      424.867      425.842      207.796        0.510        0.053       95.250       14.783        0.024      338.601       11.362      867.072
05/03/2013  00:50:00      -96.456      -62.618      -14.868       22.799       23.494       15.294      519.811      551.957      233.905        0.738        0.065      114.999       15.011        0.017      338.589       11.343      867.070
05/03/2013  00:51:00      -80.347      -49.311       -7.968       27.710       25.805       21.402      767.866      665.903      458.033        0.542        0.095       94.272       15.010        0.025      338.627       11.406      867.063
05/03/2013  00:52:00      -69.240      -38.256      -15.341       22.399       25.534       17.083      501.723      651.972      291.842        0.397        0.072       79.106       14.741        0.035      338.606       11.370      867.067
05/03/2013  00:53:00      -87.999      -39.343       -8.466       27.429       29.943       20.563      752.366      896.585      422.853        0.572        0.104       96.394       15.813        0.027      338.556       11.288      867.064
05/03/2013  00:54:00      -81.552      -38.789      -13.252       24.851       22.367       19.638      617.566      500.275      385.657        0.492        0.075       90.307        9.952        0.012      338.535       11.253      867.051
05/03/2013  00:55:00      -91.128      -28.256      -18.426       14.946       14.881       13.165      223.369      221.455      173.314        0.503        0.031       95.408        7.924        0.007      338.580       11.329      867.046
05/03/2013  00:56:00      -80.202      -11.310      -14.869       22.427       18.305       12.107      502.967      335.065      146.573        0.388        0.049       80.995       10.350        0.016      338.483       11.166      867.042
05/03/2013  00:57:00      -32.802      -20.818      -11.397       12.022       19.604        7.143      144.525      384.324       51.023        0.111        0.029       38.851        5.697        0.022      338.558       11.291      867.039
05/03/2013  00:58:00      -11.374      -26.509       -3.709       11.852        9.150        9.475      140.464       83.716       89.769        0.058        0.016       28.846        6.786        0.055      338.673       11.482      867.026
05/03/2013  00:59:00      -38.550      -17.091        0.809       13.266        9.452       10.002      175.974       89.339      100.034        0.107        0.018       42.169        8.076        0.037      338.709       11.544      867.030
05/03/2013  01:00:00      -39.084      -18.113       -3.914       12.564       12.555        7.832      157.848      157.626       61.347        0.112        0.019       43.077        3.428        0.006      338.681       11.496      867.031
05/03/2013  01:01:00      -48.450      -19.587       -6.802       16.452       10.750       11.246      270.661      115.568      126.466        0.164        0.026       52.259        5.036        0.009      338.685       11.504      867.025
05/03/2013  01:02:00      -62.706      -29.871      -12.078       20.868       16.048       10.228      435.454      257.552      104.617        0.288        0.040       69.457        3.910        0.003      338.669       11.479      867.020
05/03/2013  01:03:00      -82.347      -18.339      -15.898       13.988       18.944       15.028      195.672      358.869      225.844        0.408        0.039       84.365        6.807        0.007      338.566       11.305      867.020
05/03/2013  01:04:00     -109.391      -59.164      -11.208       18.815       23.314       15.954      353.995      543.544      254.544        0.837        0.058      124.366       10.352        0.007      338.483       11.165      867.028
05/03/2013  01:05:00      -94.275      -65.185       -4.567       33.661       27.432       21.355     1133.059      752.492      456.025        0.775        0.117      114.616       18.449        0.026      338.417       11.054      867.023
05/03/2013  01:06:00      -97.255      -46.221        0.089       45.688       20.935       18.079     2087.355      438.276      326.866        0.722        0.143      107.680       12.207        0.013      338.417       11.054      867.016
05/03/2013  01:07:00      -97.353      -56.892       -4.718       22.054       14.029       14.623      486.361      196.824      213.821        0.682        0.045      112.758       11.212        0.010      338.385       11.001      867.019
05/03/2013  01:08:00      -76.131      -42.371        3.469       25.276       22.268       15.484      638.878      495.849      239.764        0.449        0.069       87.128       14.545        0.028      338.362       10.963      867.012
05/03/2013  01:09:00      -71.825      -62.835        1.209       30.015       28.602       20.807      900.885      818.096      432.946        0.563        0.108       95.431       17.400        0.033      338.551       11.281      866.993
05/03/2013  01:10:00      -79.787      -66.943        7.027       48.578       31.880       23.351     2359.817     1016.337      545.268        0.741        0.196      104.151       23.875        0.053      338.538       11.257      866.976
05/03/2013  01:11:00     -116.160      -66.556       -2.167       38.200       28.233       21.515     1459.205      797.114      462.900        1.032        0.136      133.876       20.192        0.023      338.523       11.232      866.970
05/03/2013  01:12:00      -89.385      -49.854        8.019       57.352       42.387       26.654     3289.291     1796.661      710.427        0.817        0.290      102.348       29.651        0.084      338.417       11.053      866.963
05/03/2013  01:13:00      -81.016      -55.589       12.100       40.511       37.703       23.442     1641.178     1421.554      549.531        0.671        0.181       98.254       22.500        0.052      338.329       10.906      866.947
05/03/2013  01:14:00      -52.484      -37.164        7.433       37.688       24.814       23.247     1420.363      615.736      540.426        0.338        0.129       64.310       20.384        0.100      338.376       10.986      866.929
05/03/2013  01:15:00      -54.160      -44.174        0.615       37.766       22.433       19.165     1426.278      503.226      367.311        0.359        0.115       69.890       11.871        0.029      338.412       11.044      866.935
05/03/2013  01:16:00      -58.242      -54.740        8.175       44.001       28.432       20.109     1936.082      808.403      404.391        0.480        0.157       79.929       15.577        0.038      338.347       10.937      866.928
05/03/2013  01:17:00      -54.939      -45.389        6.525       46.966       37.739       25.392     2205.765     1424.215      644.741        0.470        0.214       71.263       29.953        0.177      338.356       10.952      866.916
05/03/2013  01:18:00      -91.398      -66.687        2.085       43.032       32.267       22.734     1851.717     1041.133      516.827        0.811        0.170      113.141       21.757        0.037      338.338       10.921      866.904
05/03/2013  01:19:00     -136.057      -53.882       -4.797       37.529       28.471       20.834     1408.459      810.594      434.076        1.205        0.133      146.338       16.337        0.012      338.297       10.852      866.900
05/03/2013  01:20:00     -122.107      -39.776       -2.212       32.806       29.489       22.070     1076.209      869.589      487.064        0.946        0.122      128.422       16.764        0.017      338.262       10.795      866.889
05/03/2013  01:21:00     -110.961      -50.120       -7.796       47.116       28.058       20.794     2219.912      787.249      432.406        0.916        0.172      121.755       25.656        0.044      338.297       10.854      866.871
05/03/2013  01:22:00     -129.164      -58.829       -7.531       26.152       22.490       14.795      683.921      505.809      218.887        1.080        0.070      141.931       14.172        0.010      338.322       10.894      866.866
05/03/2013  01:23:00     -115.349      -59.176       -3.363       30.072       33.336       16.594      904.351     1111.292      275.355        0.955        0.115      129.643       13.931        0.012      338.302       10.860      866.858
05/03/2013  01:24:00     -146.961      -55.825      -10.639       14.831       14.023       10.628      219.964      196.632      112.951        1.268        0.026      157.207        8.914        0.003      338.143       10.595      866.860
05/03/2013  01:25:00     -133.814      -20.278      -16.221       32.452       37.131       20.799     1053.152     1378.690      432.614        1.072        0.143      135.342       17.008        0.016      338.075       10.481      866.880
05/03/2013  01:26:00     -167.195        4.809      -12.024       54.983       39.078       30.115     3023.130     1527.086      906.927        1.679        0.273      167.264       30.212        0.033      338.051       10.440      866.880
05/03/2013  01:27:00      -98.761      -17.335        1.695       40.772       40.307       28.178     1662.390     1624.674      794.012        0.707        0.204      100.270       22.995        0.053      338.027       10.401      866.873
05/03/2013  01:28:00      -70.252      -33.897       -4.161       53.779       42.275       24.844     2892.226     1787.161      617.226        0.570        0.265       78.002       23.080        0.088      337.974       10.310      866.870
05/03/2013  01:29:00     -107.692      -30.191       -8.492       32.546       33.726       26.614     1059.251     1137.465      708.325        0.774        0.145      111.844       22.592        0.041      338.050       10.438      866.862
05/03/2013  01:30:00      -78.250      -52.379       -4.668       29.243       19.968       19.438      855.178      398.727      377.831        0.526        0.082       94.163       16.570        0.031      338.050       10.438      866.842
05/03/2013  01:31:00     -105.791      -54.565       -6.409       24.572       22.781       17.085      603.786      518.968      291.900        0.781        0.071      119.034        9.771        0.007      338.099       10.520      866.835
05/03/2013  01:32:00     -127.617      -43.225      -13.542       21.049       16.450       13.958      443.054      270.615      194.815        0.962        0.045      134.739        4.812        0.001      338.105       10.531      866.815
05/03/2013  01:33:00     -110.514      -56.791       -0.738       40.848       34.815       21.845     1668.590     1212.119      477.217        0.940        0.168      124.252       18.002        0.021      338.140       10.590      866.792
05/03/2013  01:34:00     -133.530      -50.078      -18.096       24.724       28.266       14.333      611.258      798.971      205.431        1.114        0.081      142.612        6.714        0.002      338.278       10.821      866.773
05/03/2013  01:35:00     -106.089      -47.014       -4.317       20.555       31.574       16.766      422.508      996.892      281.112        0.759        0.085      116.040       13.001        0.013      338.263       10.796      866.744
05/03/2013  01:36:00     -122.635      -43.182       -2.815       29.708       28.596       20.586      882.570      817.710      423.764        0.952        0.106      130.015       14.743        0.013      338.215       10.715      866.729
05/03/2013  01:37:00     -103.913      -74.500       -6.082       54.280       36.163       23.306     2946.266     1307.785      543.175        1.059        0.240      127.860       16.408        0.016      338.115       10.547      866.721
05/03/2013  01:38:00     -144.672      -66.290       -4.949       30.165       27.415       20.528      909.906      751.590      421.388        1.372        0.104      159.137       15.186        0.009      338.084       10.497      866.706
05/03/2013  01:39:00     -140.230      -68.876       -7.394       28.741       24.912       13.895      826.037      620.605      193.076        1.305        0.082      156.232        8.495        0.003      338.091       10.507      866.700
05/03/2013  01:40:00     -109.046      -56.249       -2.764       26.115       22.932       18.603      681.997      525.893      346.083        0.831        0.078      122.699       11.624        0.009      337.993       10.343      866.696
05/03/2013  01:41:00       -8.572      -16.797       15.582       23.737       19.813       12.796      563.455      392.569      163.733        0.086        0.056       18.858       10.711        0.323      338.043       10.426      866.682
05/03/2013  01:42:00      -67.029      -47.330       -2.560       41.595       20.894       14.113     1730.177      436.547      199.170        0.455        0.118       82.055       18.395        0.050      338.079       10.486      866.681
05/03/2013  01:43:00     -105.002      -53.723       -3.945       29.114       22.136       21.571      847.597      490.006      465.288        0.786        0.090      117.948       14.898        0.016      338.008       10.367      866.663
05/03/2013  01:44:00     -115.931      -70.310       -6.121       32.260       22.639       18.076     1040.689      512.545      326.736        1.015        0.094      135.586       13.871        0.010      338.007       10.366      866.642
05/03/2013  01:45:00     -100.989      -57.542       -5.883       51.121       30.913       26.207     2613.347      955.606      686.823        0.890        0.213      116.232       17.980        0.024      338.055       10.446      866.629
05/03/2013  01:46:00     -124.874      -54.458      -14.307       19.246       18.993       17.955      370.413      360.723      322.372        0.991        0.053      136.232        5.197        0.001      338.095       10.515      866.611
05/03/2013  01:47:00     -121.441      -56.032       -5.001       22.801       23.079       14.115      519.868      532.626      199.230        0.958        0.063      133.745       11.221        0.007      338.102       10.527      866.588
05/03/2013  01:48:00     -125.777      -69.737      -16.886       17.819       18.810       15.219      317.510      353.807      231.615        1.094        0.045      143.816        8.733        0.004      337.955       10.278      866.581
05/03/2013  01:49:00      -65.109      -52.847        0.975       41.030       30.407       21.760     1683.429      924.594      473.480        0.506        0.154       83.857       21.166        0.064      337.937       10.249      866.574
05/03/2013  01:50:00     -113.528      -45.750       -7.261       26.931       22.620       20.362      725.272      511.645      414.605        0.834        0.083      122.400       17.274        0.020      337.914       10.210      866.564
05/03/2013  01:51:00     -132.924      -11.643       -6.552       44.149       33.182       24.093     1949.149     1101.019      580.453        1.074        0.182      133.433       21.316        0.026      337.870       10.136      866.566
05/03/2013  01:52:00     -165.240        9.000      -14.901       47.512       32.507       28.207     2257.382     1056.721      795.621        1.586        0.205      165.485       23.673        0.020      337.955       10.279      866.562
05/03/2013  01:53:00     -148.354       -3.242       -6.582       57.822       39.300       27.449     3343.383     1544.490      753.445        1.385        0.282      148.389       29.860        0.040      338.011       10.372      866.554
05/03/2013  01:54:00     -149.606        3.798      -18.772       58.219       46.097       28.860     3389.436     2124.970      832.909        1.455        0.317      149.654       21.406        0.020      338.027       10.398      866.562
05/03/2013  01:55:00     -133.337       -8.294      -17.723       58.280       48.270       25.785     3396.600     2330.025      664.851        1.228        0.320      133.595       29.161        0.048      338.048       10.436      866.550
05/03/2013  01:56:00     -152.765      -13.169      -23.652       56.902       40.771       24.782     3237.807     1662.255      614.143        1.479        0.276      153.331       24.170        0.025      338.044       10.427      866.542
05/03/2013  01:57:00     -167.546      -27.087      -16.478       47.899       58.526       27.495     2294.353     3425.325      755.996        1.778        0.324      169.721       25.310        0.022      338.080       10.488      866.542
05/03/2013  01:58:00     -130.132      -38.634       -6.684       46.508       42.131       29.212     2162.974     1774.992      853.327        1.163        0.240      135.746       23.667        0.030      338.015       10.380      866.534
05/03/2013  01:59:00     -115.810        2.142      -11.692       39.616       41.570       27.742     1569.394     1728.040      769.595        0.881        0.203      115.830       21.147        0.033      338.016       10.382      866.518
05/03/2013  02:00:00     -110.622       15.403      -11.859       36.965       38.023       23.006     1366.390     1445.711      529.298        0.798        0.167      111.690       14.757        0.017      338.044       10.430      866.494
05/03/2013  02:01:00      -35.413       -6.304        2.607       37.364       29.578       22.377     1396.102      874.865      500.716        0.204        0.139       35.970       19.610        0.297      338.081       10.489      866.472
05/03/2013  02:02:00       -4.042      -20.282       -6.448       39.145       22.929       13.646     1532.360      525.741      186.211        0.136        0.112       20.680       16.301        0.621      338.115       10.548      866.450
05/03/2013  02:03:00        4.905      -17.172       -2.737       11.506       10.828        8.781      132.394      117.256       77.108        0.033        0.016       17.859        4.743        0.071      338.112       10.543      866.435
05/03/2013  02:04:00      -30.749       17.031       -6.638       22.460       23.162        9.561      504.437      536.464       91.413        0.121        0.057       35.151       10.586        0.091      338.400       11.026      866.417
05/03/2013  02:05:00      -57.910      -21.931       -7.677       24.143       20.048        9.312      582.883      401.910       86.720        0.248        0.054       61.923        8.322        0.018      338.491       11.179      866.419
05/03/2013  02:06:00      -99.431      -51.634      -12.419       29.493       22.852       17.983      869.857      522.194      323.385        0.721        0.086      112.038       14.417        0.017      338.170       10.639      866.418
05/03/2013  02:07:00      -95.496      -58.810       -8.856       22.040       23.521       15.596      485.743      553.260      243.234        0.697        0.064      112.152        9.900        0.008      338.088       10.502      866.412
05/03/2013  02:08:00      -56.760      -29.591       -2.257       17.730       22.716       12.914      314.342      516.002      166.784        0.255        0.050       64.010       12.791        0.040      338.046       10.432      866.405
05/03/2013  02:09:00      -18.417       -1.374       -1.787       24.189        8.003       11.906      585.110       64.046      141.764        0.057        0.040       18.468       14.155        0.587      338.257       10.784      866.407
05/03/2013  02:10:00      -12.284      -13.976       -5.218       14.715       11.569        8.961      216.540      133.840       80.298        0.040        0.022       18.607        4.157        0.050      338.358       10.956      866.405
05/03/2013  02:11:00      -49.088      -49.268       -4.844       23.603       19.647       18.953      557.104      386.014      359.235        0.308        0.065       69.548        8.564        0.015      338.190       10.673      866.415
05/03/2013  02:12:00      -72.364      -42.281        2.822       46.988       25.567       21.845     2207.889      653.669      477.190        0.518        0.167       83.811       16.919        0.041      338.095       10.513      866.424
05/03/2013  02:13:00      -87.851      -35.129       -8.297       14.011       15.109       12.734      196.294      228.268      162.153        0.480        0.029       94.614        6.363        0.005      337.998       10.351      866.433
05/03/2013  02:14:00      -88.807      -39.453       -8.065       18.943       10.971        6.425      358.825      120.356       41.276        0.501        0.026       97.177        3.390        0.001      337.932       10.241      866.423
05/03/2013  02:15:00      -60.299      -43.193       -5.056       20.249       19.288        9.418      410.008      372.030       88.692        0.320        0.044       74.173        4.408        0.004      337.984       10.327      866.404
05/03/2013  02:16:00      -28.683      -15.540        7.539       23.133       17.236       14.208      535.123      297.078      201.872        0.108        0.052       32.622       11.562        0.126      338.024       10.395      866.385
05/03/2013  02:17:00      -48.475      -22.254       -4.949       24.766       12.584       10.995      613.340      158.358      120.888        0.188        0.045       53.339        9.334        0.031      338.083       10.495      866.372
05/03/2013  02:18:00      -76.858      -21.727      -14.648        9.373       10.995        8.650       87.857      120.891       74.826        0.344        0.014       79.870        5.732        0.005      338.139       10.587      866.356
05/03/2013  02:19:00      -60.626      -25.097       -3.611       35.377       15.292       10.204     1251.501      233.846      104.129        0.295        0.079       65.615       11.788        0.032      338.095       10.514      866.348
05/03/2013  02:20:00       -5.943      -14.485        7.943       18.424       12.983       14.230      339.452      168.565      202.479        0.051        0.036       15.657        7.587        0.235      338.034       10.411      866.341
05/03/2013  02:21:00        6.493       -7.160        4.105        6.136        8.483        5.829       37.655       71.968       33.978        0.013        0.007        9.666        2.297        0.056      338.034       10.411      866.328
05/03/2013  02:22:00      -11.186        1.958       -0.960       13.545        8.191        7.450      183.468       67.087       55.500        0.022        0.015       11.356        2.974        0.069      338.049       10.438      866.321
05/03/2013  02:23:00      -24.667      -15.543        0.461       17.894       11.637        7.437      320.187      135.428       55.309        0.068        0.026       29.155        5.990        0.042      338.068       10.468      866.306
05/03/2013  02:24:00      -20.509      -10.304       -1.136       14.773        6.707        6.266      218.253       44.982       39.262        0.042        0.015       22.952        6.468        0.079      338.036       10.414      866.284
05/03/2013  02:25:00      -17.587       -0.605       -1.422       13.059        4.419        4.180      170.541       19.527       17.471        0.026        0.010       17.597        4.613        0.069      337.966       10.299      866.265
05/03/2013  02:26:00       -9.630      -12.890        0.687       14.618       14.830        7.577      213.680      219.929       57.417        0.038        0.025       16.090        7.500        0.217      338.042       10.425      866.251
05/03/2013  02:27:00      -44.001      -27.798       -1.653       20.380       12.837       14.138      415.351      164.777      199.877        0.175        0.039       52.046       11.461        0.048      337.978       10.317      866.248
05/03/2013  02:28:00      -52.171      -25.818        1.267       24.665       10.349        8.615      608.338      107.107       74.214        0.209        0.039       58.209        8.868        0.023      337.897       10.181      866.250
05/03/2013  02:29:00      -38.379      -27.410       -4.082       28.217       13.110       14.148      796.201      171.878      200.175        0.170        0.058       47.162       17.504        0.138      337.864       10.125      866.239
05/03/2013  02:30:00      -72.941      -16.912       -9.512       11.826       14.069        9.870      139.850      197.940       97.425        0.307        0.022       74.876        5.470        0.005      337.847       10.098      866.226
05/03/2013  02:31:00     -100.423       -8.969      -12.553       22.100       14.981       11.267      488.421      224.442      126.955        0.558        0.042      100.823        7.040        0.005      337.873       10.140      866.213
05/03/2013  02:32:00     -120.752      -35.787       -9.701       25.121       18.140       14.055      631.042      329.071      197.557        0.856        0.058      125.944       10.130        0.006      337.888       10.166      866.208
05/03/2013  02:33:00     -104.747      -27.363       -1.314       26.544       21.580       18.035      704.575      465.686      325.277        0.661        0.075      108.262       14.487        0.018      337.633        9.740      866.205
05/03/2013  02:34:00     -118.634      -11.828       -5.040       32.736       24.500       20.512     1071.650      600.263      420.736        0.817        0.105      119.222       19.704        0.027      337.606        9.693      866.204
05/03/2013  02:35:00     -146.578      -54.555       -4.356       38.541       31.949       19.212     1485.382     1020.743      369.116        1.368        0.144      156.401       19.829        0.016      337.461        9.451      866.209
05/03/2013  02:36:00      -97.183      -43.006       -1.688       32.525       32.507       15.910     1057.866     1056.675      253.132        0.683        0.118      106.273       15.338        0.021      337.520        9.549      866.216
05/03/2013  02:37:00     -110.411      -38.321       -8.581       22.834       18.843       19.370      521.408      355.072      375.214        0.749        0.063      116.872        9.831        0.007      337.597        9.677      866.214
05/03/2013  02:38:00     -105.339      -45.863      -10.758       22.111       17.878       15.283      488.892      319.628      233.564        0.718        0.052      114.890        8.605        0.006      337.528        9.564      866.209
05/03/2013  02:39:00      -82.298      -25.052      -14.837       18.983       20.260       14.086      360.337      410.466      198.406        0.429        0.048       86.027        6.520        0.006      337.551        9.602      866.196
05/03/2013  02:40:00     -127.295      -31.949      -14.598       29.131       23.153       13.302      848.613      536.067      176.931        0.950        0.078      131.243       14.373        0.012      337.522        9.553      866.184
05/03/2013  02:41:00     -124.716      -26.076       -9.277       20.996       15.949       15.803      440.851      254.379      249.736        0.863        0.047      127.412       11.689        0.008      337.491        9.501      866.180
05/03/2013  02:42:00      -72.544      -20.996       -9.227       22.717       15.319        9.417      516.068      234.658       88.683        0.331        0.042       75.521        6.481        0.007      337.548        9.597      866.177
05/03/2013  02:43:00      -89.051      -18.580      -13.491       16.703       14.110       10.938      278.991      199.083      119.641        0.453        0.030       90.968        7.710        0.007      337.586        9.659      866.180
05/03/2013  02:44:00     -114.793      -24.693      -13.190       17.150       11.551       10.120      294.129      133.427      102.414        0.725        0.026      117.419        6.868        0.003      337.505        9.523      866.189
05/03/2013  02:45:00      -97.111      -30.388      -15.923       22.890       12.386        9.739      523.956      153.420       94.850        0.569        0.039      101.755       10.175        0.010      337.518        9.545      866.179
05/03/2013  02:46:00      -92.808        1.262      -14.684       14.480       11.895       13.121      209.657      141.502      172.164        0.468        0.026       92.817        9.239        0.010      337.519        9.546      866.169
05/03/2013  02:47:00      -77.236       -5.765      -11.743       18.006       10.776        8.281      324.219      116.128       68.570        0.332        0.025       77.451        1.953        0.001      337.621        9.718      866.159
05/03/2013  02:48:00      -37.328      -18.934      -14.770       23.608       11.831       10.336      557.342      139.982      106.834        0.139        0.040       41.855       12.039        0.083      337.744        9.926      866.151
05/03/2013  02:49:00      -23.447      -24.454       -5.266       13.753        9.902        9.815      189.149       98.050       96.337        0.078        0.019       33.878        4.482        0.018      337.921       10.223      866.155
05/03/2013  02:50:00      -47.270      -27.839       -9.693       11.260       11.011        8.032      126.795      121.242       64.506        0.171        0.016       54.859        5.690        0.011      337.693        9.838      866.145
05/03/2013  02:51:00      -80.712      -12.208       -7.301       18.243       15.674       10.985      332.822      245.659      120.672        0.371        0.035       81.630        8.438        0.011      337.510        9.531      866.139
05/03/2013  02:52:00      -89.562      -13.790      -16.942       15.992       20.368       14.339      255.747      414.845      205.613        0.469        0.044       90.618       10.814        0.014      337.394        9.337      866.132
05/03/2013  02:53:00      -61.451      -34.832      -12.834       15.597       19.528       16.109      243.262      381.334      259.503        0.302        0.044       70.636        8.623        0.015      337.433        9.403      866.138
05/03/2013  02:54:00      -73.805      -42.772      -16.403       14.489       15.588        9.795      209.922      242.984       95.934        0.405        0.027       85.303        6.077        0.005      337.346        9.258      866.130
05/03/2013  02:55:00     -120.073      -22.851      -14.064       18.090       17.377       12.814      327.264      301.954      164.195        0.797        0.040      122.228        5.994        0.002      337.336        9.242      866.120
05/03/2013  02:56:00     -111.498       -9.476      -20.094       24.221       16.770       11.177      586.678      281.225      124.931        0.696        0.050      111.900        8.139        0.005      337.313        9.203      866.125
05/03/2013  02:57:00      -76.709       -2.371      -13.641       18.253       20.275       16.004      333.167      411.084      256.112        0.354        0.050       76.746        8.369        0.012      337.456        9.441      866.123
05/03/2013  02:58:00      -82.396        0.201      -16.729       17.028       12.553       11.484      289.942      157.579      131.876        0.382        0.029       82.396        6.920        0.007      337.581        9.651      866.114
05/03/2013  02:59:00      -87.153      -20.072       -8.615       18.425       18.432       15.515      339.465      339.742      240.711        0.450        0.046       89.435        6.723        0.006      337.598        9.681      866.109
05/03/2013  03:00:00     -137.352      -40.866      -19.542       20.415       21.396       15.930      416.760      457.784      253.754        1.102        0.056      143.302       10.855        0.006      337.284        9.156      866.115
05/03/2013  03:01:00      -99.364      -41.200       -9.870       35.169       31.482       21.693     1236.888      991.121      470.579        0.718        0.135      107.567       18.200        0.029      337.276        9.141      866.132
05/03/2013  03:02:00      -69.635      -37.249      -14.572       36.695       25.283       18.149     1346.500      639.227      329.376        0.438        0.116       78.972       16.254        0.042      337.309        9.196      866.128
05/03/2013  03:03:00      -65.918      -35.386      -10.169       35.578       24.000       21.256     1265.783      575.995      451.800        0.400        0.115       74.815        7.254        0.009      337.357        9.275      866.121
05/03/2013  03:04:00      -27.520      -21.170        2.942       25.877       27.141       21.609      669.603      736.632      466.968        0.154        0.094       34.721       16.236        0.219      337.359        9.280      866.121
05/03/2013  03:05:00      -66.636      -35.134       -6.783       40.671       23.239       15.745     1654.152      540.066      247.892        0.408        0.122       75.331       15.362        0.042      337.387        9.328      866.114
05/03/2013  03:06:00     -107.091      -39.901      -14.251       17.103       17.043       12.171      292.524      290.466      148.142        0.700        0.037      114.283        9.120        0.006      337.345        9.257      866.096
05/03/2013  03:07:00     -107.688      -33.440      -11.316       25.564       18.542       16.094      653.510      343.809      259.006        0.705        0.063      112.761        8.045        0.005      337.339        9.246      866.099
05/03/2013  03:08:00      -59.462      -40.981       -6.058       32.609       26.554       17.029     1063.327      705.111      289.989        0.365        0.103       72.216       16.924        0.055      337.425        9.390      866.099
05/03/2013  03:09:00      -92.704      -29.301       -7.234       34.797       24.709       15.455     1210.838      610.512      238.855        0.578        0.103       97.224       14.372        0.022      337.290        9.164      866.095
05/03/2013  03:10:00     -121.740      -58.884       -7.832       31.574       26.698       16.198      996.945      712.796      262.376        1.016        0.099      135.233       16.242        0.014      337.280        9.147      866.091
05/03/2013  03:11:00      -81.600      -58.074      -10.528       25.427       20.661       18.686      646.546      426.869      349.165        0.578        0.071      100.156       11.359        0.013      337.298        9.178      866.091
05/03/2013  03:12:00      -71.478      -31.609       -6.295       29.193       30.629       16.612      852.212      938.111      275.970        0.411        0.103       78.156       11.654        0.022      337.270        9.132      866.092
05/03/2013  03:13:00     -114.380      -37.020       -9.323       30.726       26.381       20.640      944.079      695.953      426.002        0.830        0.103      120.222       11.052        0.008      337.301        9.183      866.078
05/03/2013  03:14:00      -76.122      -24.875       -9.147       38.418       17.954       17.829     1475.915      322.344      317.857        0.431        0.106       80.083       20.921        0.068      337.242        9.083      866.080
05/03/2013  03:15:00      -67.765      -29.943      -17.459       15.669       16.821       14.824      245.527      282.960      219.747        0.327        0.037       74.086       10.109        0.019      337.399        9.346      866.070
05/03/2013  03:16:00      -73.440       -3.988      -10.748       18.005       18.528       10.692      324.178      343.284      114.324        0.315        0.039       73.548        7.444        0.010      337.427        9.393      866.056
05/03/2013  03:17:00     -105.016      -28.222      -13.555       21.870       19.581       11.691      478.313      383.407      136.684        0.650        0.050      108.742       10.262        0.009      337.312        9.201      866.049
05/03/2013  03:18:00     -122.090      -21.988      -18.149       13.771       14.768        8.152      189.641      218.094       66.462        0.810        0.024      124.054        3.651        0.001      337.351        9.267      866.047
05/03/2013  03:19:00     -115.926       -3.496      -12.389       24.563       18.197       13.382      603.320      331.134      179.072        0.736        0.056      115.979       11.420        0.010      337.353        9.270      866.046
05/03/2013  03:20:00      -61.306        1.619      -11.352       19.129       15.806       13.097      365.908      249.841      171.530        0.234        0.039       61.327        7.177        0.014      337.473        9.470      866.033
05/03/2013  03:21:00      -52.644      -14.082       -9.271       12.643       13.681        9.931      159.835      187.171       98.633        0.175        0.022       54.494        4.475        0.007      337.505        9.523      866.025
05/03/2013  03:22:00      -40.990      -22.366      -12.054       16.333       13.299       11.289      266.754      176.874      127.450        0.145        0.029       46.695        7.163        0.024      337.546        9.592      866.026
05/03/2013  03:23:00      -48.902      -15.492      -10.359       19.391       12.758       12.585      376.022      162.756      158.373        0.172        0.035       51.297        6.055        0.014      337.458        9.444      866.014
05/03/2013  03:24:00      -76.175      -11.121      -14.666       13.296       12.130        9.805      176.797      147.126       96.136        0.328        0.021       76.983        7.559        0.010      337.352        9.267      866.004
05/03/2013  03:25:00      -67.120      -23.538      -11.534       10.787        8.509        6.764      116.353       72.397       45.747        0.271        0.012       71.127        5.535        0.006      337.277        9.142      866.015
05/03/2013  03:26:00      -66.190       -7.383      -12.605        9.188        8.830        7.283       84.428       77.968       53.040        0.240        0.011       66.601        4.447        0.004      337.323        9.219      866.028
05/03/2013  03:27:00      -69.450      -15.389      -12.499       11.583        9.909        8.118      134.166       98.187       65.894        0.276        0.015       71.135        5.735        0.006      337.338        9.245      866.026
05/03/2013  03:28:00      -89.626      -28.984      -13.442       17.044       17.111       10.875      290.509      292.798      118.276        0.488        0.035       94.196        8.228        0.008      337.257        9.109      866.026
05/03/2013  03:29:00      -86.565      -18.358      -19.484       14.645       17.788       11.923      214.465      316.412      142.168        0.444        0.034       88.490       10.615        0.014      337.263        9.120      866.019
05/03/2013  03:30:00      -53.478       -2.621      -13.149       16.638       11.996        9.392      276.809      143.893       88.202        0.177        0.025       53.542        8.480        0.025      337.717        9.879      866.030
05/03/2013  03:31:00      -38.482       -9.096       -3.540       11.747       13.410        6.418      137.999      179.819       41.189        0.097        0.018       39.542        5.224        0.017      337.693        9.840      866.038
05/03/2013  03:32:00      -76.996      -35.247       -6.941       29.278       12.191        9.273      857.227      148.614       85.992        0.416        0.055       84.680        3.836        0.002      337.390        9.332      866.040
05/03/2013  03:33:00      -94.329      -60.149       -8.718       29.946       24.013       23.022      896.739      576.623      530.031        0.730        0.100      111.875        8.542        0.006      337.122        8.882      866.040
05/03/2013  03:34:00     -106.641       -5.638       -1.323       42.569       23.333       27.007     1812.108      544.443      729.381        0.725        0.154      106.790       25.333        0.056      337.152        8.934      866.040
05/03/2013  03:35:00      -69.786       -8.530       -9.903       18.119       17.954       10.566      328.291      322.362      111.647        0.290        0.038       70.306        5.923        0.007      337.469        9.463      866.043
05/03/2013  03:36:00      -47.255      -12.879      -10.838       10.549       17.533       10.933      111.273      307.406      119.526        0.153        0.027       48.979        5.389        0.012      337.617        9.711      866.032
05/03/2013  03:37:00      -90.109      -31.971      -10.643       33.001       17.400       12.644     1089.059      302.759      159.878        0.540        0.078       95.613        5.652        0.003      337.289        9.164      866.014
05/03/2013  03:38:00     -103.907      -43.283      -12.428       30.182       36.445       16.329      910.923     1328.274      266.641        0.766        0.125      112.561       16.083        0.020      337.132        8.899      865.998
05/03/2013  03:39:00      -92.146      -33.493       -7.254       38.117       24.435       16.101     1452.873      597.068      259.256        0.599        0.115       98.044       20.994        0.046      337.127        8.891      865.998
05/03/2013  03:40:00      -61.075      -15.862       -9.341       23.080       14.349       13.130      532.705      205.890      172.391        0.249        0.046       63.101       10.556        0.028      337.121        8.881      866.010
05/03/2013  03:41:00      -63.374      -38.460      -11.338       19.929       19.758       15.486      397.165      390.393      239.803        0.333        0.051       74.131        9.548        0.017      337.267        9.127      866.005
05/03/2013  03:42:00      -58.725      -21.868       -1.939       24.694       18.691       13.318      609.808      349.355      177.362        0.253        0.057       62.664       12.931        0.043      337.194        9.003      865.994
05/03/2013  03:43:00      -85.341      -21.452      -12.784       18.192       21.558       16.226      330.965      464.751      263.268        0.448        0.053       87.996       10.868        0.015      337.162        8.950      865.982
05/03/2013  03:44:00      -90.397      -30.151      -10.524       24.812       19.044       13.212      615.639      362.692      174.565        0.517        0.058       95.292       12.492        0.017      337.083        8.817      865.984
05/03/2013  03:45:00      -94.268      -19.188      -14.338       23.860       19.407       15.091      569.300      376.626      227.724        0.532        0.059       96.201       14.411        0.022      337.097        8.841      865.972
05/03/2013  03:46:00      -90.273      -23.363      -13.950       17.672       19.874       13.262      312.313      394.960      175.870        0.489        0.044       93.247       10.489        0.013      337.087        8.824      865.963
05/03/2013  03:47:00      -84.180      -22.490      -14.057       29.770       18.615       12.826      886.229      346.512      164.518        0.459        0.070       87.133       15.845        0.033      337.035        8.737      865.956
05/03/2013  03:48:00     -103.420       -9.692      -19.290       13.112       14.375       11.629      171.927      206.650      135.235        0.584        0.026      103.873        8.643        0.007      337.024        8.718      865.947
05/03/2013  03:49:00      -78.014      -17.839      -11.976       24.467       20.291       17.938      598.631      411.743      321.782        0.394        0.067       80.028       12.776        0.025      337.057        8.773      865.959
05/03/2013  03:50:00      -77.154      -10.505       -9.670       29.985       23.034       12.073      899.090      530.566      145.750        0.387        0.079       77.866       11.474        0.022      337.082        8.815      865.959
05/03/2013  03:51:00      -69.126      -24.713      -14.316       20.568       18.324       10.942      423.035      335.774      119.726        0.324        0.044       73.411        8.325        0.013      337.114        8.868      865.967
05/03/2013  03:52:00      -51.906      -17.223       -9.773       19.634       17.173       15.377      385.506      294.915      236.452        0.200        0.046       54.689       12.113        0.049      337.129        8.893      865.971
05/03/2013  03:53:00      -84.055      -14.967      -13.017       17.056       14.110        9.300      290.899      199.086       86.486        0.402        0.029       85.377        3.902        0.002      337.096        8.839      865.975
05/03/2013  03:54:00      -81.563      -10.207      -14.349       20.297       18.420       14.025      411.950      339.298      196.712        0.396        0.047       82.199       13.191        0.026      337.073        8.800      865.976
05/03/2013  03:55:00      -85.220       -6.672      -11.322       21.109       13.034       14.032      445.595      169.898      196.898        0.412        0.041       85.481       12.484        0.021      337.047        8.757      865.972
05/03/2013  03:56:00      -77.878       -4.928      -16.180       16.148       15.494       11.544      260.753      240.076      133.272        0.349        0.032       78.034        9.738        0.016      337.125        8.888      865.967
05/03/2013  03:57:00      -74.376      -10.746      -13.012       17.838       11.677       13.087      318.186      136.348      171.268        0.322        0.031       75.149        6.764        0.008      337.115        8.870      865.973
05/03/2013  03:58:00      -79.159      -14.799       -8.453       14.983       10.831        9.885      224.501      117.303       97.721        0.350        0.022       80.531        8.832        0.012      337.088        8.826      865.968
05/03/2013  03:59:00      -87.065      -14.689      -17.457        8.275        8.551        6.432       68.479       73.115       41.377        0.414        0.009       88.296        1.081        0.000      337.089        8.828      865.955
05/03/2013  04:00:00      -81.775      -26.338      -14.629       10.830       12.299        9.683      117.283      151.265       93.756        0.398        0.018       85.911        2.673        0.001      337.115        8.870      865.947
05/03/2013  04:01:00     -105.429      -33.714      -19.212       14.402       20.042       10.781      207.407      401.689      116.232        0.667        0.036      110.688        8.443        0.006      337.046        8.755      865.954
05/03/2013  04:02:00      -93.620      -20.573       -9.475       21.999       15.055       15.239      483.972      226.655      232.227        0.511        0.047       95.854       13.787        0.021      337.025        8.720      865.959
05/03/2013  04:03:00      -91.933       -9.708      -13.927       14.269       10.220        8.680      203.609      104.443       75.349        0.456        0.019       92.444        6.950        0.006      337.118        8.876      865.945
05/03/2013  04:04:00      -71.532      -19.400       -9.066       12.602       11.497        9.172      158.813      132.170       84.119        0.298        0.019       74.116        5.373        0.005      337.156        8.939      865.929
05/03/2013  04:05:00      -98.681      -11.617       -9.926       16.468       12.725       12.698      271.208      161.922      161.238        0.528        0.030       99.362        8.701        0.008      337.121        8.881      865.922
05/03/2013  04:06:00     -110.939        2.045      -17.602       17.329       18.989       12.447      300.303      360.568      154.921        0.672        0.041      110.958        9.728        0.008      337.166        8.955      865.919
05/03/2013  04:07:00      -97.037       -9.493      -15.396       22.784       12.723       11.758      519.100      161.869      138.239        0.528        0.041       97.500       11.483        0.014      337.148        8.926      865.918
05/03/2013  04:08:00      -94.216      -14.158      -11.861       10.068       10.338        8.439      101.374      106.866       71.217        0.475        0.014       95.274        7.042        0.005      337.215        9.039      865.914
05/03/2013  04:09:00      -94.450      -12.425      -13.589       13.996       13.958        9.854      195.891      194.824       97.092        0.487        0.024       95.263        7.593        0.006      337.308        9.194      865.916
05/03/2013  04:10:00      -95.001      -15.308       -8.536       27.149       19.420       10.787      737.045      377.118      116.359        0.528        0.062       96.227       10.546        0.012      337.166        8.956      865.912
05/03/2013  04:11:00      -76.306       -7.168      -19.772       22.183       19.503       12.346      492.074      380.351      152.435        0.364        0.051       76.642       12.710        0.028      337.133        8.899      865.900
05/03/2013  04:12:00      -84.122      -11.595       -9.944       13.915       15.816       10.909      193.631      250.146      119.013        0.394        0.028       84.917        4.826        0.003      337.139        8.911      865.880
05/03/2013  04:13:00      -60.870      -21.134      -10.198        9.722       13.832        8.535       94.515      191.332       72.841        0.231        0.018       64.435        6.524        0.010      337.194        9.004      865.871
05/03/2013  04:14:00      -71.257      -23.198      -13.581       16.822       15.600       10.514      282.976      243.347      110.543        0.322        0.032       74.938        9.517        0.016      337.098        8.840      865.867
05/03/2013  04:15:00      -89.694      -12.612      -12.709       24.265       13.899       11.667      588.777      193.176      136.122        0.464        0.046       90.576       11.706        0.017      337.050        8.761      865.857
05/03/2013  04:16:00     -113.847      -16.489      -17.963       20.779       21.251       12.649      431.785      451.591      159.987        0.730        0.052      115.035        8.951        0.006      336.964        8.619      865.854
05/03/2013  04:17:00     -109.454      -25.387      -18.309       21.744       18.091       18.177      472.802      327.275      330.421        0.705        0.057      112.360       13.348        0.014      336.857        8.441      865.857
05/03/2013  04:18:00      -68.684      -34.702      -12.278       35.119       25.721       18.014     1233.337      661.559      324.517        0.415        0.111       76.953       16.093        0.044      336.953        8.599      865.865
05/03/2013  04:19:00      -69.494      -15.649      -11.565       12.480       17.722       15.020      155.755      314.082      225.614        0.295        0.035       71.235        5.903        0.007      336.939        8.577      865.869
05/03/2013  04:20:00      -53.174      -35.049      -15.440       21.152       18.519       20.502      447.416      342.957      420.330        0.275        0.061       63.686       13.062        0.042      336.955        8.602      865.866
05/03/2013  04:21:00      -66.689      -27.896      -12.175       27.633       20.775       14.238      763.564      431.600      202.730        0.339        0.070       72.288       11.188        0.024      336.907        8.524      865.851
05/03/2013  04:22:00      -67.953      -23.289       -9.362       23.657       19.971       13.201      559.640      398.830      174.263        0.319        0.057       71.833       10.688        0.022      336.964        8.618      865.837
05/03/2013  04:23:00      -82.697      -21.372      -17.266       16.629       13.880       12.989      276.509      192.645      168.708        0.412        0.032       85.414       10.849        0.016      336.932        8.564      865.833
05/03/2013  04:24:00      -95.516      -10.197      -15.743       19.706       14.594       10.393      388.324      212.995      108.018        0.509        0.035       96.058       10.876        0.013      336.943        8.584      865.827
05/03/2013  04:25:00      -85.330      -19.306      -10.667       12.497       11.219        9.261      156.176      125.873       85.765        0.407        0.018       87.487        5.213        0.004      336.961        8.610      865.822
05/03/2013  04:26:00      -95.419      -22.309      -14.079       21.517       14.414       11.596      462.960      207.771      134.477        0.530        0.040       97.992        8.193        0.007      336.974        8.634      865.812
05/03/2013  04:27:00     -123.053      -17.876      -12.633       22.852       18.925       16.546      522.197      358.172      273.783        0.839        0.058      124.345       14.388        0.013      336.861        8.447      865.809
05/03/2013  04:28:00     -136.023      -33.858      -20.412       17.226       15.937       12.838      296.733      253.982      164.812        1.039        0.036      140.173        7.136        0.003      336.840        8.412      865.822
05/03/2013  04:29:00     -114.586      -44.950      -18.446       13.742       15.419       10.968      188.829      237.737      120.301        0.802        0.027      123.088        5.679        0.002      336.871        8.462      865.817
05/03/2013  04:30:00     -124.632      -40.254      -20.926       16.011       16.829       12.827      256.342      283.204      164.529        0.915        0.035      130.971        6.992        0.003      336.853        8.434      865.818
05/03/2013  04:31:00     -103.178      -72.101      -10.600       22.741       28.205       17.314      517.137      795.498      299.789        0.878        0.081      125.874       13.572        0.012      336.890        8.495      865.828
05/03/2013  04:32:00      -90.153      -61.379        1.630       46.749       26.323       23.382     2185.439      692.902      546.719        0.766        0.171      109.064       28.568        0.069      336.800        8.346      865.835
05/03/2013  04:33:00     -110.954        5.791       -3.480       65.803       33.392       25.023     4330.071     1115.017      626.152        0.921        0.304      111.105       28.093        0.064      336.868        8.457      865.844
05/03/2013  04:34:00     -129.316       -6.527       -8.851       45.536       35.405       23.200     2073.512     1253.499      538.217        1.035        0.193      129.481       25.033        0.037      336.832        8.398      865.853
05/03/2013  04:35:00      -85.080      -35.593        1.152       51.344       35.186       22.281     2636.171     1238.059      496.447        0.644        0.219       92.225       23.711        0.066      336.813        8.367      865.858
05/03/2013  04:36:00      -79.633      -39.523       -0.792       40.766       48.961       23.445     1661.854     2397.202      549.661        0.626        0.230       88.901       11.362        0.016      336.743        8.251      865.874
05/03/2013  04:37:00      -71.343       21.232       -3.936       44.675       31.510       24.677     1995.887      992.850      608.941        0.458        0.180       74.435       23.900        0.103      336.764        8.286      865.892
05/03/2013  04:38:00     -128.959       18.935      -29.514       35.377       28.591       20.636     1251.518      817.463      425.846        1.018        0.125      130.341       12.218        0.009      336.843        8.415      865.904
05/03/2013  04:39:00     -117.147        2.687      -21.016       38.804       27.947       21.282     1505.715      781.062      452.907        0.846        0.137      117.178       15.947        0.019      336.755        8.270      865.901
05/03/2013  04:40:00      -79.243       -1.309      -13.134       26.036       21.091       17.626      677.854      444.845      310.670        0.394        0.072       79.254       15.992        0.041      336.815        8.370      865.897
05/03/2013  04:41:00      -30.330       -6.911      -16.534       23.801       21.899       12.527      566.497      479.585      156.931        0.122        0.060       31.108        7.312        0.055      336.910        8.527      865.884
05/03/2013  04:42:00       -4.010      -33.592       -9.670       12.990       12.607       13.367      168.740      158.935      178.668        0.087        0.025       33.830        3.257        0.009      336.987        8.656      865.863
05/03/2013  04:43:00        0.803      -21.972       -5.515       13.824       15.774       10.982      191.104      248.828      120.611        0.054        0.028       21.987        7.146        0.106      336.900        8.511      865.834
05/03/2013  04:44:00      -36.562      -16.666       -8.060       27.349       15.826       16.671      747.982      250.456      277.936        0.148        0.064       40.181       16.450        0.168      336.934        8.567      865.814
05/03/2013  04:45:00      -21.438      -25.272      -18.721       18.615       20.522       15.063      346.522      421.136      226.900        0.122        0.050       33.140        7.186        0.047      337.392        9.334      865.796
05/03/2013  04:46:00      -10.291      -24.927       -1.745       11.405       17.012       14.209      130.079      289.422      201.886        0.068        0.031       26.967        8.426        0.098      337.508        9.528      865.782
05/03/2013  04:47:00       -5.294       -1.707        5.680        6.371        5.317        4.807       40.594       28.276       23.109        0.008        0.005        5.563        2.925        0.277      337.510        9.533      865.761
05/03/2013  04:48:00      -40.492      -24.220       -3.331       14.478        8.460        8.522      209.616       71.571       72.631        0.130        0.018       47.183        7.325        0.024      337.371        9.301      865.741
05/03/2013  04:49:00      -70.030      -13.380      -10.503       12.629       12.068        7.666      159.496      145.643       58.768        0.278        0.018       71.297        5.290        0.006      337.001        8.680      865.743
05/03/2013  04:50:00      -64.462      -29.172      -10.351       17.628       12.515        7.725      310.744      156.632       59.677        0.282        0.026       70.756        5.049        0.005      336.984        8.652      865.730
05/03/2013  04:51:00      -93.447      -34.962      -11.979       13.455       10.664        9.201      181.039      113.721       84.666        0.524        0.019       99.773        3.500        0.001      336.890        8.495      865.711
05/03/2013  04:52:00     -102.343      -21.249      -12.786       13.972       15.123       11.698      195.218      228.714      136.834        0.582        0.028      104.526        8.061        0.006      336.890        8.495      865.690
05/03/2013  04:53:00      -93.661      -23.804      -16.502       10.088        9.408        8.433      101.777       88.503       71.117        0.494        0.013       96.638        4.879        0.003      336.964        8.618      865.666
05/03/2013  04:54:00      -97.429      -26.555      -13.804       10.289       14.432       12.004      105.872      208.269      144.098        0.542        0.023      100.983        9.080        0.008      336.885        8.485      865.659
05/03/2013  04:55:00     -105.420      -37.441       -9.987       16.844       14.054       13.588      283.707      197.514      184.625        0.664        0.033      111.872       10.056        0.008      336.929        8.558      865.648
05/03/2013  04:56:00     -117.217      -21.859      -13.341       16.613       13.803       11.814      276.004      190.527      139.575        0.750        0.030      119.238        8.536        0.005      336.720        8.211      865.631
05/03/2013  04:57:00     -136.145      -18.991      -16.337       20.306       15.339       13.552      412.352      235.291      183.666        1.000        0.042      137.463        7.210        0.003      336.736        8.238      865.613
05/03/2013  04:58:00     -153.135      -16.661      -24.541       34.017       20.502       15.700     1157.146      420.350      246.477        1.308        0.091      154.038       15.567        0.010      336.705        8.187      865.598
05/03/2013  04:59:00      -98.978      -15.582        0.227       31.638       27.514       20.200     1000.968      757.038      408.049        0.610        0.108      100.197       20.318        0.041      336.597        8.007      865.577
05/03/2013  05:00:00     -112.151      -38.716        0.213       37.499       26.451       17.154     1406.138      699.660      294.252        0.824        0.120      118.646       19.293        0.026      336.670        8.129      865.548
05/03/2013  05:01:00     -126.697      -21.947       -6.119       30.184       18.854       17.999      911.064      355.474      323.980        0.908        0.080      128.584       14.752        0.013      336.644        8.086      865.514
05/03/2013  05:02:00     -111.439      -20.115      -13.578       22.458       14.363       10.279      504.345      206.282      105.667        0.691        0.041      113.240       10.126        0.008      336.670        8.129      865.491
05/03/2013  05:03:00     -139.176       -8.051      -20.374       11.144        9.778        9.533      124.198       95.611       90.879        1.008        0.016      139.408        7.764        0.003      336.647        8.092      865.481
05/03/2013  05:04:00     -116.138      -29.645      -10.419       28.261       26.399       19.662      798.698      696.882      386.611        0.818        0.094      119.862       17.219        0.021      336.559        7.942      865.485
05/03/2013  05:05:00     -131.228      -23.577      -13.450       28.757       22.463       13.476      826.953      504.590      181.590        0.974        0.076      133.329       10.174        0.006      336.514        7.867      865.489
05/03/2013  05:06:00     -109.916      -25.739       -6.482       32.227       33.471       16.549     1038.597     1120.323      273.871        0.761        0.122      112.890       17.386        0.024      336.521        7.878      865.490
05/03/2013  05:07:00      -95.026      -48.305       -1.443       30.689       26.310       17.415      941.799      692.217      303.273        0.665        0.097      106.599        9.674        0.008      336.606        8.021      865.483
05/03/2013  05:08:00      -75.233      -27.478        3.373       32.567       31.626       18.516     1060.618     1000.210      342.827        0.441        0.120       80.094       14.166        0.031      336.646        8.089      865.478
05/03/2013  05:09:00     -149.274       24.171      -12.927       42.134       35.381       22.173     1775.244     1251.832      491.646        1.328        0.176      151.219       15.663        0.011      336.589        7.993      865.486
05/03/2013  05:10:00     -119.144      -17.717       -2.947       49.352       50.900       27.056     2435.604     2590.777      732.009        1.014        0.288      120.454       28.465        0.056      336.594        8.001      865.488
05/03/2013  05:11:00      -88.091      -54.644        5.932       53.861       38.578       29.850     2901.034     1488.294      891.028        0.803        0.264      103.663       30.501        0.087      336.514        7.868      865.483
05/03/2013  05:12:00     -121.956      -35.209       -4.097       54.686       32.852       27.815     2990.569     1079.259      773.672        1.049        0.242      126.937       28.043        0.049      336.451        7.761      865.471
05/03/2013  05:13:00     -112.041      -46.873      -10.058       30.385       33.843       22.552      923.241     1145.334      508.574        0.871        0.129      121.451        9.995        0.007      336.521        7.880      865.456
05/03/2013  05:14:00      -99.556      -39.513       -2.451       50.146       25.435       19.729     2514.632      646.919      389.237        0.751        0.178      107.111       20.986        0.038      336.482        7.814      865.465
05/03/2013  05:15:00      -97.708      -19.560       -6.072       43.668       30.044       15.798     1906.862      902.642      249.568        0.651        0.153       99.647       18.125        0.033      336.498        7.840      865.462
05/03/2013  05:16:00      -49.943      -47.087        4.484       46.806       27.740       23.734     2190.755      769.500      563.281        0.413        0.176       68.641       23.962        0.122      336.520        7.879      865.461
05/03/2013  05:17:00      -84.632      -32.120      -10.302       33.301       25.249       14.100     1108.964      637.524      198.817        0.512        0.097       90.522        6.452        0.005      336.539        7.909      865.454
05/03/2013  05:18:00      -94.599      -12.024        4.370       28.519       31.039       23.358      813.336      963.411      545.580        0.572        0.116       95.360       19.884        0.043      336.441        7.745      865.457
05/03/2013  05:19:00      -90.592      -28.265       -1.440       21.634       22.664       13.618      468.038      513.638      185.451        0.509        0.058       94.899        9.497        0.010      336.495        7.835      865.444
05/03/2013  05:20:00     -116.568      -47.443      -10.916       22.097       33.869       15.427      488.258     1147.093      237.993        0.892        0.094      125.853        8.645        0.005      336.471        7.795      865.439
05/03/2013  05:21:00      -95.107      -44.234       -5.374       38.934       50.493       23.857     1515.824     2549.554      569.179        0.783        0.232      104.890       24.881        0.056      336.518        7.873      865.425
05/03/2013  05:22:00     -105.870      -34.255       -7.387       25.599       22.374       16.557      655.319      500.576      274.125        0.693        0.072      111.274       13.017        0.014      336.451        7.762      865.418
05/03/2013  05:23:00      -98.467      -30.472       -6.841       41.405       29.394       16.931     1714.349      864.008      286.654        0.677        0.143      103.075       18.570        0.032      336.495        7.836      865.418
05/03/2013  05:24:00      -81.658      -17.137        6.839       57.054       31.586       21.675     3255.178      997.658      469.805        0.586        0.236       83.436       22.611        0.073      336.417        7.706      865.419
05/03/2013  05:25:00      -79.370       -9.761       -1.553       42.784       27.406       22.895     1830.498      751.091      524.194        0.475        0.155       79.968       24.041        0.090      336.461        7.778      865.415
05/03/2013  05:26:00      -56.827      -41.268       -3.750       37.490       19.369       15.143     1405.524      375.174      229.319        0.348        0.101       70.231       15.821        0.051      336.563        7.950      865.413
05/03/2013  05:27:00      -92.401      -39.249      -20.354       15.813       16.335       13.043      250.049      266.827      170.128        0.559        0.034      100.391        9.318        0.009      336.584        7.985      865.426
05/03/2013  05:28:00     -112.899      -34.139      -11.785       26.598       19.902       11.678      707.474      396.095      136.368        0.765        0.062      117.948        4.620        0.002      336.580        7.979      865.439
05/03/2013  05:29:00      -75.182      -11.483       -3.509       32.124       35.832       19.966     1031.958     1283.950      398.633        0.426        0.136       76.054       12.440        0.027      336.577        7.974      865.449
05/03/2013  05:30:00      -81.330      -17.599       -5.246       39.649       30.817       22.598     1572.009      949.717      510.681        0.499        0.152       83.212       21.846        0.069      336.534        7.901      865.455
05/03/2013  05:31:00      -64.468      -39.182        5.520       31.795       34.081       21.601     1010.894     1161.510      466.609        0.418        0.132       75.441       17.614        0.055      336.541        7.913      865.463
05/03/2013  05:32:00     -117.932      -47.994       -1.351       37.385       46.710       24.168     1397.639     2181.870      584.103        1.019        0.208      127.324       20.761        0.027      336.439        7.741      865.478
05/03/2013  05:33:00      -71.704      -22.950       -3.664       34.409       20.953       19.107     1184.005      439.039      365.088        0.383        0.099       75.287       15.573        0.043      336.518        7.874      865.479
05/03/2013  05:34:00      -66.495      -36.623       -7.457       19.545       19.238       14.160      381.994      370.100      200.516        0.339        0.048       75.914        5.611        0.005      336.545        7.920      865.474
05/03/2013  05:35:00      -47.425      -36.545       -1.037       33.295       19.449       16.623     1108.529      378.261      276.327        0.267        0.088       59.872       16.374        0.075      336.550        7.927      865.468
05/03/2013  05:36:00      -81.378      -51.107      -13.617       17.344       32.225       16.729      300.803     1038.458      279.855        0.552        0.081       96.095       11.042        0.013      336.470        7.793      865.464
05/03/2013  05:37:00      -86.020      -25.537      -14.892       25.410       17.709       13.400      645.689      313.626      179.552        0.471        0.057       89.731        6.516        0.005      336.431        7.728      865.466
05/03/2013  05:38:00      -97.659      -45.360      -19.180       20.358       18.775       13.133      414.453      352.513      172.485        0.645        0.047      107.679        4.940        0.002      336.435        7.736      865.461
05/03/2013  05:39:00      -92.421      -37.332      -17.382       38.024       23.419       14.428     1445.825      548.448      208.160        0.622        0.110       99.676       11.249        0.013      336.428        7.723      865.447
05/03/2013  05:40:00      -40.009      -35.339       -5.026       26.341       40.456       23.046      693.844     1636.706      531.128        0.287        0.143       53.381       15.484        0.084      336.409        7.692      865.445
05/03/2013  05:41:00      -58.284      -41.565       -4.489       32.818       21.746       15.914     1077.041      472.890      253.251        0.347        0.090       71.587       17.647        0.061      336.410        7.693      865.440
05/03/2013  05:42:00     -127.635      -45.178      -10.922       27.535       29.563       19.133      758.172      873.955      366.060        1.022        0.100      135.395       12.249        0.008      336.354        7.600      865.452
05/03/2013  05:43:00      -71.173      -22.051       10.313       49.045       32.699       20.878     2405.369     1069.202      435.899        0.478        0.196       74.511       22.303        0.090      336.436        7.736      865.469
05/03/2013  05:44:00      -80.230      -46.371       -0.369       41.400       34.764       21.424     1713.961     1208.551      458.987        0.598        0.169       92.667       18.530        0.040      336.399        7.674      865.475
05/03/2013  05:45:00      -75.060      -34.984       -6.635       34.399       20.606       16.404     1183.297      424.616      269.081        0.439        0.094       82.812       12.375        0.022      336.393        7.666      865.484
05/03/2013  05:46:00      -70.778      -17.319      -13.506       22.593       14.970       14.073      510.434      224.112      198.061        0.321        0.047       72.866        7.481        0.011      336.423        7.716      865.507
05/03/2013  05:47:00      -71.610      -12.948       -5.068       24.132       18.345       23.177      582.371      336.527      537.152        0.339        0.073       72.771       17.674        0.059      336.490        7.826      865.518
05/03/2013  05:48:00      -38.193      -38.932       -9.598       31.831       18.461       21.222     1013.207      340.810      450.359        0.244        0.090       54.538       14.896        0.075      336.493        7.831      865.529
05/03/2013  05:49:00      -39.371      -33.099       -2.598       29.602       20.379       16.692      876.307      415.321      278.608        0.211        0.079       51.436       12.828        0.062      336.466        7.787      865.531
05/03/2013  05:50:00      -61.830      -23.178       -1.361       20.222       13.502       16.982      408.919      182.305      288.374        0.262        0.044       66.031       12.534        0.036      336.485        7.819      865.521
05/03/2013  05:51:00      -60.454      -20.751      -10.310       23.008       12.889       12.017      529.354      166.133      144.400        0.252        0.042       63.917        8.923        0.019      336.541        7.912      865.499
05/03/2013  05:52:00      -99.047      -15.969      -12.837       14.615        9.994       10.155      213.603       99.886      103.129        0.532        0.021      100.326        6.195        0.004      336.511        7.863      865.490
05/03/2013  05:53:00     -112.859      -13.646      -22.979        9.931        8.380        8.167       98.619       70.228       66.701        0.684        0.012      113.681        5.041        0.002      336.572        7.967      865.491
05/03/2013  05:54:00     -121.410      -17.613      -24.690       22.756       21.738       13.032      517.830      472.553      169.823        0.841        0.058      122.681        8.181        0.004      336.568        7.958      865.489
05/03/2013  05:55:00      -77.403      -51.209      -14.454       26.644       19.391       13.608      709.896      376.007      185.189        0.505        0.064       92.809       14.517        0.024      336.507        7.856      865.498
05/03/2013  05:56:00      -40.573      -27.507      -14.005       14.139       15.068       10.727      199.912      227.038      115.068        0.157        0.027       49.018        7.949        0.026      336.869        8.460      865.492
05/03/2013  05:57:00      -49.900      -30.403      -13.870       16.950       13.391       11.938      287.304      179.307      142.513        0.211        0.030       58.433       10.751        0.034      336.698        8.176      865.489
05/03/2013  05:58:00      -65.637      -43.216      -15.149       22.927       15.295       12.409      525.644      233.952      153.985        0.366        0.046       78.586        7.102        0.008      336.611        8.030      865.501
05/03/2013  05:59:00      -58.557      -55.349       -8.598       21.448       19.131       19.794      460.036      365.990      391.816        0.389        0.061       80.575       13.879        0.030      336.591        7.997      865.508
05/03/2013  06:00:00      -43.317      -24.464       -2.883       24.411       22.933       19.158      595.910      525.907      367.042        0.199        0.074       49.748       11.496        0.053      336.591        7.995      865.507
05/03/2013  06:01:00      -46.400      -22.204      -15.571       28.554        9.641       15.054      815.355       92.941      226.619        0.201        0.057       51.440       16.517        0.103      336.615        8.036      865.505
05/03/2013  06:02:00      -54.502      -41.328       -5.426       29.100       18.521       16.085      846.814      343.033      258.737        0.308        0.072       68.399       11.863        0.030      336.619        8.044      865.508
05/03/2013  06:03:00      -93.273      -24.958      -14.529       37.978       20.204       19.850     1442.366      408.187      394.023        0.589        0.112       96.555       11.359        0.014      336.494        7.833      865.502
05/03/2013  06:04:00      -76.375      -40.760      -18.674       26.950       20.008       15.404      726.301      400.304      237.289        0.460        0.068       86.571       11.494        0.018      336.467        7.788      865.491
05/03/2013  06:05:00      -59.521      -23.699       -5.776       21.238       25.135       16.018      451.043      631.752      256.567        0.274        0.067       64.065       12.568        0.038      336.682        8.148      865.490
05/03/2013  06:06:00      -54.621      -27.206       -0.666       20.633       12.615       10.171      425.712      159.142      103.449        0.221        0.034       61.022        7.352        0.015      336.941        8.581      865.472
05/03/2013  06:07:00      -44.522      -21.738       -6.072       15.040       16.281       12.185      226.189      265.082      148.462        0.157        0.032       49.546        3.590        0.005      336.899        8.509      865.462
05/03/2013  06:08:00      -25.833      -25.995      -10.084       21.225       10.034       11.864      450.503      100.688      140.764        0.107        0.035       36.648        7.066        0.037      336.916        8.538      865.450
05/03/2013  06:09:00      -45.544      -23.532       -2.840       32.667       17.229       19.632     1067.139      296.845      385.398        0.219        0.087       51.264       19.612        0.146      336.748        8.259      865.434
05/03/2013  06:10:00      -84.765       -1.804       -9.044       23.100       17.412       19.753      533.600      303.187      390.163        0.425        0.061       84.784       18.959        0.050      336.742        8.249      865.424
05/03/2013  06:11:00      -50.142      -22.119       -2.780       19.207       13.925       10.745      368.919      193.893      115.457        0.184        0.034       54.804       10.350        0.036      336.775        8.305      865.416
05/03/2013  06:12:00      -53.174      -18.137      -12.735       15.567       11.124        9.660      242.329      123.744       93.312        0.189        0.023       56.183       10.360        0.034      336.804        8.354      865.411
05/03/2013  06:13:00      -81.206      -28.430      -11.177       18.830       13.424       10.528      354.573      180.204      110.832        0.409        0.032       86.039        7.392        0.007      336.786        8.321      865.414
05/03/2013  06:14:00     -115.200      -21.352      -17.171       11.964       12.934        7.611      143.139      167.292       57.925        0.720        0.018      117.162        1.766        0.000      336.677        8.141      865.433
05/03/2013  06:15:00     -114.446      -21.033      -17.965       16.194       17.346       12.773      262.248      300.874      163.139        0.729        0.036      116.363        7.573        0.004      336.546        7.922      865.461
05/03/2013  06:16:00     -118.755      -29.021       -8.760       20.863       13.457       13.331      435.281      181.082      177.702        0.791        0.040      122.249       10.609        0.008      336.594        8.001      865.491
05/03/2013  06:17:00      -95.184      -41.699       -4.380       24.266       18.263       12.966      588.817      333.519      168.112        0.595        0.055      103.917       11.969        0.013      336.719        8.209      865.522
05/03/2013  06:18:00      -61.661      -41.929       -9.949       25.119       15.392        9.570      630.962      236.908       91.575        0.331        0.048       74.566        8.559        0.013      336.724        8.220      865.544
05/03/2013  06:19:00      -27.006      -17.256      -12.375       16.853        9.827        7.322      284.040       96.579       53.606        0.081        0.022       32.048        6.709        0.044      336.810        8.362      865.549
05/03/2013  06:20:00      -14.873       -3.077       -4.724       16.351        7.704       11.807      267.352       59.356      139.405        0.036        0.023       15.188        9.233        0.370      337.057        8.773      865.550
05/03/2013  06:21:00      -20.658      -17.422       -0.194       13.424       10.127        8.352      180.207      102.552       69.749        0.054        0.018       27.023        4.396        0.026      337.031        8.730      865.537
05/03/2013  06:22:00      -26.696        1.514        1.363        9.185       10.101        8.752       84.373      102.031       76.600        0.049        0.013       26.739        5.554        0.043      336.992        8.665      865.527
05/03/2013  06:23:00        0.658        5.084        2.610        8.622        6.343        7.535       74.344       40.228       56.775        0.010        0.009        5.126        7.156        1.949      337.091        8.829      865.536
05/03/2013  06:24:00       32.611       25.844       14.183       13.552       13.837       15.333      183.669      191.459      235.093        0.127        0.031       41.610        9.893        0.057      337.024        8.718      865.548
05/03/2013  06:25:00        2.708       20.100       34.172       14.324       20.682       12.964      205.176      427.766      168.063        0.119        0.040       20.282       14.685        0.524      337.076        8.806      865.558
05/03/2013  06:26:00       -3.688       21.256       43.390        8.741       18.940       11.137       76.399      358.737      124.039        0.145        0.028       21.573       12.266        0.323      337.074        8.800      865.554
05/03/2013  06:27:00       28.870       28.455       21.545       21.461       10.713       17.989      460.588      114.768      323.602        0.150        0.045       40.536       14.940        0.136      337.005        8.687      865.555
05/03/2013  06:28:00       23.005       21.417        4.486       11.751        9.488        9.258      138.083       90.016       85.716        0.066        0.016       31.431        7.653        0.059      336.958        8.610      865.550
05/03/2013  06:29:00        7.923        6.599       31.457       15.230       21.762       10.836      231.957      473.569      117.412        0.096        0.041       10.311        9.558        0.859      337.084        8.819      865.535
05/03/2013  06:30:00        8.041      -10.129       34.272       27.742       40.063       28.243      769.608     1605.020      797.639        0.226        0.159       12.933       20.658        2.551      337.110        8.862      865.500
05/03/2013  06:31:00        6.105       36.618       61.711       21.423       31.412       17.503      458.926      986.738      306.349        0.347        0.088       37.123       16.836        0.206      337.135        8.904      865.478
05/03/2013  06:32:00       -5.408       50.594       76.499       16.480       32.940       20.262      271.600     1085.063      410.560        0.510        0.088       50.882       22.083        0.188      337.196        9.008      865.452
05/03/2013  06:33:00       -2.021       57.987       80.323       16.002       35.039       20.368      256.079     1227.713      414.863        0.586        0.095       58.022       22.975        0.157      337.246        9.090      865.423
05/03/2013  06:34:00        8.502       22.009       42.542       19.786       33.216       22.354      391.489     1103.284      499.715        0.218        0.100       23.594       19.240        0.665      337.223        9.053      865.423
05/03/2013  06:35:00       -6.491      -41.260       11.213       16.156       38.671       17.465      261.019     1495.425      305.040        0.197        0.103       41.767        5.504        0.017      337.319        9.211      865.427
05/03/2013  06:36:00       16.126      -43.629       14.718       24.932       43.237       28.921      621.593     1869.454      836.433        0.285        0.166       46.513       23.533        0.256      337.437        9.410      865.456
05/03/2013  06:37:00       10.177       34.765       51.330       29.445       27.711       21.623      867.031      767.911      467.555        0.302        0.105       36.224       15.962        0.194      337.293        9.169      865.491
05/03/2013  06:38:00       64.169       65.040       20.536       22.547       21.778       26.918      508.366      474.300      724.559        0.524        0.085       91.367       14.113        0.024      337.020        8.712      865.510
05/03/2013  06:39:00       20.847       26.035       -9.637       22.794       30.764       16.009      519.567      946.413      256.277        0.146        0.086       33.352       12.531        0.141      336.922        8.548      865.533
05/03/2013  06:40:00        5.919       17.479       -5.458       17.058       17.855       12.342      290.960      318.790      152.315        0.057        0.038       18.454       10.541        0.326      337.039        8.742      865.552
05/03/2013  06:41:00       -5.850       21.376       -2.792        6.949       15.773        6.554       48.287      248.781       42.959        0.042        0.017       22.162        7.497        0.114      337.164        8.952      865.550
05/03/2013  06:42:00       -6.400        2.614        7.125        9.555        4.428        6.217       91.297       19.603       38.648        0.012        0.007        6.913        4.361        0.398      337.365        9.291      865.544
05/03/2013  06:43:00       15.420       16.872        7.599       13.350       15.681       13.908      178.232      245.909      193.423        0.060        0.031       22.857        9.835        0.185      337.235        9.073      865.523
05/03/2013  06:44:00       33.473       26.737       12.210       17.155       20.515       17.629      294.294      420.878      310.796        0.151        0.051       42.841        7.411        0.030      337.219        9.044      865.513
05/03/2013  06:45:00        2.934       11.550       23.141       16.381       16.530       15.859      268.328      273.242      251.495        0.074        0.040       11.917        3.406        0.082      337.418        9.379      865.518
05/03/2013  06:46:00       13.125       27.473       40.226       21.153       16.763       14.320      447.459      280.984      205.062        0.174        0.047       30.447       10.824        0.126      337.430        9.399      865.514
05/03/2013  06:47:00       40.329       46.821       37.303       24.200       17.255       16.240      585.644      297.720      263.741        0.318        0.057       61.795       12.972        0.044      337.302        9.184      865.524
05/03/2013  06:48:00       74.656       67.514       44.549       29.293       17.594       22.619      858.078      309.532      511.636        0.690        0.084      100.656       16.065        0.025      337.349        9.263      865.526
05/03/2013  06:49:00       61.236       51.728       35.247       32.200       24.354       29.749     1036.845      593.129      884.993        0.509        0.126       80.160       18.775        0.055      337.360        9.281      865.545
05/03/2013  06:50:00       33.793       26.924       29.779       24.495       15.812       17.271      600.025      250.031      298.285        0.195        0.057       43.207        6.212        0.021      337.384        9.321      865.561
05/03/2013  06:51:00       59.723       40.816        3.937       17.587       17.037       19.590      309.293      290.275      383.758        0.312        0.049       72.338        9.478        0.017      337.163        8.952      865.570
05/03/2013  06:52:00       17.314       30.628        8.499       17.421       14.468       17.243      303.478      209.328      297.335        0.106        0.041       35.183       10.994        0.098      337.230        9.064      865.575
05/03/2013  06:53:00       16.269       25.116       12.550       19.126       12.533       11.752      365.821      157.064      138.098        0.086        0.033       29.924        9.135        0.093      337.208        9.028      865.573
05/03/2013  06:54:00       -8.483        9.381       -3.296       22.453       11.681        9.027      504.137      136.442       81.482        0.045        0.036       12.648        6.564        0.269      337.246        9.091      865.562
05/03/2013  06:55:00      -45.959        1.997        0.098        8.185        6.019        7.770       66.989       36.226       60.376        0.114        0.008       46.003        4.849        0.011      337.257        9.109      865.558
05/03/2013  06:56:00      -14.636        0.875        9.008       11.246       11.395       12.589      126.475      129.836      158.486        0.036        0.021       14.662        8.806        0.361      337.559        9.615      865.537
05/03/2013  06:57:00      -37.478      -12.193        0.821       22.599       19.028       10.186      510.717      362.053      103.760        0.127        0.049       39.412        7.540        0.037      337.416        9.374      865.529
05/03/2013  06:58:00      -61.510      -23.689       -6.428       15.538       11.783       11.193      241.421      138.833      125.277        0.245        0.025       65.914        5.145        0.006      337.497        9.510      865.520
05/03/2013  06:59:00      -61.087      -25.838       -9.723       15.282       13.323       11.646      233.538      177.492      135.620        0.252        0.027       66.327        4.945        0.006      337.506        9.525      865.527
05/03/2013  07:00:00      -82.307      -42.533       -3.172       27.204       23.672       15.860      740.059      560.386      251.528        0.507        0.078       92.647        7.957        0.007      337.413        9.369      865.549
05/03/2013  07:01:00      -32.881      -30.773        4.749       36.004       31.413       20.836     1296.323      986.773      434.148        0.238        0.136       45.035       16.236        0.130      337.474        9.471      865.564
05/03/2013  07:02:00      -71.040      -37.096       -2.211       42.474       24.947       20.619     1804.045      622.359      425.146        0.464        0.143       80.142       17.322        0.047      337.433        9.403      865.575
05/03/2013  07:03:00     -110.533      -51.044      -13.048       15.918       10.754       16.390      253.376      115.646      268.635        0.782        0.032      121.750       10.663        0.008      337.428        9.395      865.586
05/03/2013  07:04:00      -80.766      -53.473      -10.440       25.103       19.461       19.438      630.169      378.725      377.829        0.544        0.069       96.863       14.449        0.022      337.496        9.509      865.596
05/03/2013  07:05:00      -38.985      -18.161       -2.583       32.265       18.874       14.387     1041.047      356.209      206.973        0.173        0.080       43.008       15.015        0.122      337.669        9.799      865.602
05/03/2013  07:06:00      -51.105      -23.366       -6.351       30.092       19.423       14.244      905.545      377.244      202.878        0.234        0.074       56.194       13.047        0.054      337.702        9.854      865.603
05/03/2013  07:07:00      -34.144       -3.425        0.164       22.632       29.957       17.007      512.202      897.432      289.235        0.144        0.085       34.315       11.711        0.116      337.886       10.163      865.598
05/03/2013  07:08:00      -46.886       -4.624        0.393       32.610       33.230       18.876     1063.404     1104.236      356.302        0.237        0.126       47.113       19.415        0.170      337.744        9.925      865.597
05/03/2013  07:09:00      -50.340      -23.859       -1.616       21.945       11.193       17.053      481.596      125.292      290.819        0.200        0.045       55.708       15.043        0.073      337.607        9.695      865.593
05/03/2013  07:10:00      -51.834      -37.606       -9.086       17.435       15.231       13.931      303.993      231.992      194.078        0.246        0.037       64.039        9.602        0.022      337.688        9.831      865.582
05/03/2013  07:11:00      -88.097      -30.570       -7.788       16.580       16.188       14.702      274.904      262.055      216.151        0.475        0.038       93.251       10.614        0.013      337.765        9.961      865.567
05/03/2013  07:12:00      -67.102      -17.383       -6.943       12.057        9.624        7.684      145.380       92.625       59.044        0.258        0.015       69.317        4.188        0.004      337.604        9.691      865.551
05/03/2013  07:13:00      -24.319        1.898       10.271       17.713       13.200       16.011      313.754      174.250      256.347        0.072        0.037       24.393       15.877        0.424      337.931       10.240      865.528
05/03/2013  07:14:00        8.982       22.736       28.538       15.107       12.190        9.024      228.227      148.595       81.440        0.094        0.023       24.446        6.529        0.071      338.119       10.554      865.520
05/03/2013  07:15:00      -15.816       19.596       33.464       13.618       13.914       10.911      185.447      193.605      119.055        0.113        0.025       25.183        8.040        0.102      338.304       10.865      865.526
05/03/2013  07:16:00      -13.625        0.720       14.565       13.996        8.519       11.671      195.875       72.577      136.202        0.040        0.020       13.644        8.478        0.386      338.182       10.659      865.542
05/03/2013  07:17:00       -9.907       10.111       29.447       13.509       13.727       14.333      182.482      188.441      205.444        0.082        0.029       14.156       12.077        0.728      338.396       11.019      865.560
05/03/2013  07:18:00      -13.444      -14.935       21.125       15.427       21.943       10.700      237.995      481.481      114.489        0.084        0.042       20.095        6.396        0.101      338.301       10.860      865.576
05/03/2013  07:19:00       -9.862       -2.472       21.296       14.656       15.308       12.561      214.787      234.333      157.788        0.058        0.030       10.167       11.642        1.311      338.460       11.126      865.577
05/03/2013  07:20:00      -51.688      -24.483        4.545       22.614       17.215       16.586      511.396      296.344      275.081        0.219        0.054       57.193       11.732        0.042      338.086       10.497      865.568
05/03/2013  07:21:00      -50.948      -34.703       -6.487       10.171       10.670        6.940      103.444      113.843       48.158        0.205        0.013       61.644        4.464        0.005      337.982       10.323      865.555
05/03/2013  07:22:00      -52.080      -29.493       -7.917       13.242        8.457        6.196      175.345       71.528       38.386        0.196        0.014       59.851        5.525        0.009      338.011       10.373      865.531
05/03/2013  07:23:00      -56.998      -33.332       -0.333       25.288       17.387       16.304      639.495      302.298      265.825        0.278        0.060       66.029       10.200        0.024      338.100       10.522      865.505
05/03/2013  07:24:00      -23.644       -9.897        8.894       16.260       16.667       13.126      264.375      277.777      172.283        0.073        0.036       25.632        9.406        0.135      338.307       10.870      865.491
05/03/2013  07:25:00      -47.433      -15.498       -5.415       20.430       17.739        9.997      417.383      314.656       99.931        0.168        0.042       49.901        8.281        0.028      338.131       10.575      865.483
05/03/2013  07:26:00      -51.532       -4.052       -3.198       15.195       13.004       11.200      230.897      169.103      125.446        0.160        0.026       51.691        4.538        0.008      338.099       10.520      865.485
05/03/2013  07:27:00      -31.570       -5.799       -2.970       10.730       10.163        8.463      115.143      103.289       71.615        0.066        0.015       32.098        5.748        0.032      338.204       10.697      865.493
05/03/2013  07:28:00      -16.857       -8.563       -1.471       12.171       12.766       10.962      148.123      162.959      120.169        0.040        0.022       18.907        8.159        0.186      338.355       10.952      865.500
05/03/2013  07:29:00      -13.966      -31.412        4.432       20.495       19.084       14.733      420.036      364.184      217.075        0.110        0.050       34.377        7.713        0.050      338.338       10.921      865.507
05/03/2013  07:30:00      -29.558      -35.349       -0.188       24.682       14.830       16.601      609.204      219.933      275.601        0.161        0.055       46.079       11.305        0.060      338.302       10.862      865.507
05/03/2013  07:31:00      -51.583      -24.643       -6.407       13.970       11.482       10.930      195.147      131.840      119.455        0.188        0.022       57.167        7.191        0.016      338.328       10.904      865.503
05/03/2013  07:32:00      -21.882       -9.644       14.459       21.196       22.021       15.310      449.252      484.906      234.386        0.097        0.058       23.913        8.839        0.137      338.754       11.622      865.505
05/03/2013  07:33:00      -18.946       46.922        3.203       18.521       44.095       16.506      343.026     1944.398      272.459        0.256        0.128       50.603       20.210        0.160      338.682       11.499      865.507
05/03/2013  07:34:00      -21.332       55.762       -1.506       15.564       31.757       20.650      242.243     1008.514      426.416        0.262        0.084       59.703       20.544        0.118      338.559       11.293      865.516
05/03/2013  07:35:00      -11.486       53.170      -10.649       22.371       22.536       16.724      500.453      507.874      279.695        0.218        0.064       54.397        9.875        0.033      338.474       11.150      865.529
05/03/2013  07:36:00      -14.431       51.218       -5.438       12.972       19.129       17.634      168.280      365.912      310.960        0.185        0.042       53.212        9.996        0.035      338.666       11.473      865.544
05/03/2013  07:37:00       -5.225       45.845       -0.090       16.755       21.538       18.020      280.738      463.901      324.713        0.160        0.053       46.142       15.055        0.106      338.668       11.477      865.561
05/03/2013  07:38:00        1.967       47.345        0.103       20.661       19.052       15.521      426.857      362.990      240.913        0.164        0.052       47.385        6.941        0.021      338.759       11.629      865.579
05/03/2013  07:39:00       22.323       26.729       16.168       26.585       21.915       20.697      706.779      480.257      428.384        0.154        0.081       34.825       13.924        0.160      338.912       11.887      865.576
05/03/2013  07:40:00       27.471       54.070       -6.314       16.931       32.176       22.010      286.652     1035.291      484.452        0.276        0.090       60.648       21.645        0.127      338.677       11.491      865.574
05/03/2013  07:41:00       29.320       37.177        5.170       26.015       25.813       19.029      676.785      666.298      362.099        0.199        0.085       47.347       15.761        0.111      338.750       11.613      865.570
05/03/2013  07:42:00       31.027       56.824        7.597       29.995       24.047       20.197      899.686      578.268      407.926        0.307        0.094       64.743       13.117        0.041      338.808       11.711      865.558
05/03/2013  07:43:00       94.114       80.486       25.365       35.278       26.562       33.261     1244.516      705.545     1106.265        0.952        0.153      123.836       13.468        0.012      338.704       11.537      865.547
05/03/2013  07:44:00       76.889       72.570        4.900       39.023       24.297       30.401     1522.797      590.350      924.214        0.712        0.152      105.727       14.085        0.018      338.698       11.526      865.543
05/03/2013  07:45:00       85.234       60.738       10.782       37.891       30.003       31.952     1435.702      900.201     1020.954        0.721        0.168      104.661       16.686        0.025      338.683       11.500      865.536
05/03/2013  07:46:00       54.009       58.078       -2.006       28.284       15.251       21.339      799.991      232.593      455.370        0.389        0.074       79.310        9.119        0.013      338.640       11.430      865.519
05/03/2013  07:47:00       41.762       37.779        3.121       25.487       17.265       19.667      649.587      298.088      386.778        0.226        0.067       56.315       12.486        0.049      338.761       11.633      865.498
05/03/2013  07:48:00       54.995       40.616       20.414       41.224       21.869       28.290     1699.434      478.257      800.331        0.403        0.149       68.367       18.480        0.073      338.884       11.839      865.475
05/03/2013  07:49:00       18.915       38.548       47.400       44.063       25.709       29.469     1941.575      660.943      868.413        0.378        0.174       42.938       30.953        0.520      339.001       12.036      865.467
05/03/2013  07:50:00       80.360       41.062        5.554       30.816       20.592       26.682      949.620      424.022      711.911        0.513        0.104       90.243       20.768        0.053      338.733       11.586      865.465
05/03/2013  07:51:00       63.223       38.528       16.381       27.443       32.578       27.495      753.107     1061.302      755.957        0.416        0.129       74.037       20.158        0.074      338.919       11.899      865.451
05/03/2013  07:52:00       19.067       47.044       54.501       33.084       36.891       40.278     1094.573     1360.938     1622.355        0.481        0.204       50.761       32.705        0.415      339.023       12.073      865.433
05/03/2013  07:53:00       31.208       65.044       65.346       26.665       26.760       19.731      711.042      716.086      389.314        0.565        0.091       72.143       15.497        0.046      338.903       11.870      865.426
05/03/2013  07:54:00        6.682       35.736       42.504       22.805       27.067       22.414      520.090      732.638      502.395        0.244        0.088       36.355       17.467        0.231      339.044       12.109      865.432
05/03/2013  07:55:00       16.899       19.384       36.819       37.787       23.589       24.429     1427.875      556.442      596.787        0.230        0.129       25.716       22.313        0.753      339.313       12.562      865.446
05/03/2013  07:56:00       14.229       22.678       27.856       17.715       28.093       19.804      313.817      789.230      392.186        0.149        0.075       26.773       13.101        0.239      339.127       12.247      865.453
05/03/2013  07:57:00        4.215       28.202       35.128       23.602       29.044       18.767      557.041      843.540      352.199        0.190        0.088       28.515       15.905        0.311      339.412       12.729      865.468
05/03/2013  07:58:00       31.890       39.751        5.472       35.900       29.209       29.806     1288.791      853.151      888.383        0.283        0.152       50.962       24.747        0.236      339.275       12.498      865.490
05/03/2013  07:59:00       21.495       54.595       -9.643       31.901       31.889       25.143     1017.656     1016.891      632.153        0.310        0.133       58.674       20.039        0.117      339.123       12.240      865.509
05/03/2013  08:00:00       62.158       60.090        5.520       32.947       22.245       26.690     1085.512      494.851      712.382        0.490        0.115       86.455       10.818        0.016      339.053       12.123      865.502
05/03/2013  08:01:00       29.151       68.500       -7.700       22.866       20.069       21.402      522.835      402.755      458.050        0.349        0.069       74.445        8.478        0.013      338.965       11.975      865.496
05/03/2013  08:02:00        2.835       38.503       -7.312       23.588       20.829       17.690      556.388      433.845      312.924        0.142        0.065       38.607       14.896        0.149      339.101       12.203      865.485
05/03/2013  08:03:00      -12.301       26.898        1.949       24.214       19.542       16.881      586.294      381.872      284.967        0.107        0.063       29.577       15.605        0.278      339.333       12.594      865.483
05/03/2013  08:04:00      -21.254        2.275       16.076       27.073       23.648       14.457      732.952      559.238      209.001        0.111        0.075       21.375       15.356        0.516      339.414       12.731      865.475
05/03/2013  08:05:00      -47.971       -1.020       -2.919       15.678       20.719       12.973      245.794      429.258      168.296        0.158        0.042       47.982        8.509        0.031      339.094       12.192      865.467
05/03/2013  08:06:00      -13.395       -8.120       22.768       11.704       16.217       15.280      136.990      262.988      233.483        0.070        0.032       15.664        7.549        0.232      340.032       13.775      865.453
05/03/2013  08:07:00      -37.641       -6.243       11.053       12.072       16.075       14.332      145.739      258.390      205.407        0.109        0.030       38.156       12.700        0.111      339.339       12.604      865.445
05/03/2013  08:08:00      -31.649      -30.382        3.230       25.527       22.396       12.915      651.637      501.569      166.804        0.163        0.066       43.872       10.042        0.052      339.292       12.525      865.436
05/03/2013  08:09:00      -25.571      -24.635      -13.992       16.043       17.661       10.758      257.393      311.901      115.735        0.107        0.034       35.508        9.589        0.073      339.172       12.322      865.421
05/03/2013  08:10:00      -20.748       -3.996        3.984       15.329       10.296       14.474      234.974      106.010      209.506        0.051        0.028       21.129       11.699        0.307      339.542       12.947      865.418
05/03/2013  08:11:00       -5.158       -1.256       13.142       22.928        9.693       15.585      525.686       93.955      242.903        0.053        0.043        5.309       16.360        9.498      339.954       13.642      865.412
05/03/2013  08:12:00        9.867      -10.620       13.732       12.732       15.689       15.213      162.110      246.133      231.435        0.052        0.032       14.496        7.963        0.302      339.910       13.568      865.400
05/03/2013  08:13:00       17.268       -9.216       16.607       12.755       19.143       10.788      162.698      366.459      116.380        0.065        0.032       19.574        6.625        0.115      339.907       13.562      865.391
05/03/2013  08:14:00       43.448       15.876        9.941       26.860       20.963       24.546      721.438      439.438      602.526        0.200        0.088       46.258       17.674        0.146      339.854       13.474      865.385
05/03/2013  08:15:00       33.766       34.619       10.170       23.338       22.183       26.403      544.680      492.072      697.105        0.209        0.087       48.359       14.302        0.087      339.779       13.346      865.377
05/03/2013  08:16:00       28.434       68.205       -4.538       23.069       17.699       21.532      532.175      313.242      463.645        0.339        0.065       73.895       12.119        0.027      339.503       12.880      865.362
05/03/2013  08:17:00        6.501       28.695       12.392       17.492       15.522       18.990      305.986      240.921      360.602        0.096        0.045       29.422       12.977        0.195      339.871       13.500      865.353
05/03/2013  08:18:00      -11.353       32.213       -3.614       13.021       20.493       21.650      169.551      419.966      468.717        0.112        0.053       34.155       15.138        0.196      339.874       13.507      865.335
05/03/2013  08:19:00       11.785        4.829       -8.970       18.207       16.651       12.060      331.492      277.271      145.453        0.050        0.038       12.736        8.554        0.451      339.653       13.133      865.314
05/03/2013  08:20:00        6.910       15.211        9.241       16.033       15.332       17.607      257.055      235.064      310.019        0.058        0.040       16.706       13.761        0.678      340.118       13.920      865.287
05/03/2013  08:21:00       17.443       24.973        9.553       16.899       19.221       27.763      285.583      369.453      770.761        0.122        0.071       30.461       17.172        0.318      339.844       13.456      865.268
05/03/2013  08:22:00       17.716       34.876       53.965       27.608       20.314       18.414      762.223      412.643      339.066        0.298        0.076       39.118       11.117        0.081      339.979       13.684      865.250
05/03/2013  08:23:00        1.442       15.970       43.147       26.357       33.701       27.149      694.692     1135.771      737.069        0.234        0.128       16.035       23.545        2.156      340.201       14.058      865.235
05/03/2013  08:24:00       28.111       35.912       51.142       35.476       32.653       29.891     1258.534     1066.188      893.474        0.396        0.161       45.606       21.122        0.215      339.821       13.418      865.228
05/03/2013  08:25:00       36.213       31.011       35.724       25.078       23.751       20.174      628.883      564.122      406.997        0.257        0.080       47.677       15.536        0.106      339.670       13.163      865.209
05/03/2013  08:26:00       29.945       36.819       48.352       38.868       24.874       26.167     1510.706      618.698      684.695        0.370        0.141       47.459       24.998        0.277      339.959       13.650      865.197
05/03/2013  08:27:00       48.742       72.720       61.536       57.104       32.133       33.520     3260.827     1032.553     1123.592        0.843        0.271       87.544       29.528        0.114      339.749       13.294      865.176
05/03/2013  08:28:00       41.868       67.295       59.996       37.032       39.341       36.348     1371.356     1547.698     1321.209        0.706        0.212       79.257       28.967        0.134      339.612       13.063      865.179
05/03/2013  08:29:00       34.084       52.145       72.924       34.480       33.424       31.279     1188.845     1117.141      978.360        0.624        0.164       62.296       23.752        0.145      339.757       13.310      865.179
05/03/2013  08:30:00       53.069       44.450       32.987       58.342       46.110       39.093     3403.781     2126.092     1528.257        0.647        0.353       69.225       28.154        0.165      339.873       13.505      865.174
05/03/2013  08:31:00       74.436       76.641        1.551       51.381       58.130       41.861     2640.043     3379.104     1752.360        0.959        0.389      106.839       37.071        0.120      339.867       13.495      865.162
05/03/2013  08:32:00       58.493       73.391       -2.105       40.817       36.830       31.068     1666.040     1356.481      965.221        0.640        0.199       93.849       21.337        0.052      340.039       13.786      865.151
05/03/2013  08:33:00       78.260       72.782       15.278       41.591       40.308       33.960     1729.798     1624.763     1153.258        0.808        0.225      106.873       12.041        0.013      340.122       13.925      865.138
05/03/2013  08:34:00       68.509       62.963       16.656       50.453       32.544       33.495     2545.555     1059.091     1121.935        0.683        0.236       93.048       18.249        0.038      340.015       13.745      865.130
05/03/2013  08:35:00       66.363       60.042       15.328       46.063       40.025       30.884     2121.767     1601.985      953.850        0.646        0.234       89.493       21.745        0.059      340.056       13.815      865.119
05/03/2013  08:36:00       32.441       55.030       -1.752       48.942       39.466       30.833     2395.308     1557.548      950.659        0.449        0.245       63.880       24.361        0.145      340.107       13.900      865.111
05/03/2013  08:37:00       92.341       64.355       11.094       43.912       39.503       29.632     1928.225     1560.462      878.039        0.858        0.218      112.554       19.873        0.031      340.033       13.775      865.102
05/03/2013  08:38:00       60.067       35.360        1.673       38.776       34.168       32.539     1503.604     1167.431     1058.768        0.429        0.186       69.702       17.519        0.063      340.087       13.865      865.105
05/03/2013  08:39:00       50.907       39.306       15.716       37.410       30.351       30.077     1399.485      921.198      904.604        0.380        0.161       64.315       23.620        0.135      340.257       14.155      865.095
05/03/2013  08:40:00       70.689       67.943       16.209       53.956       25.422       33.641     2911.225      646.288     1131.685        0.728        0.234       98.047       17.730        0.033      339.916       13.577      865.082
05/03/2013  08:41:00       64.653       53.185       -2.134       40.134       15.463       17.137     1610.772      239.112      293.669        0.458        0.107       83.718        9.343        0.012      339.745       13.288      865.067
05/03/2013  08:42:00        2.724       41.833        6.700       14.962       20.587       19.296      223.873      423.828      372.322        0.141        0.051       41.921       15.663        0.140      340.277       14.187      865.042
05/03/2013  08:43:00       39.410       45.024       14.293       39.576       24.715       21.497     1566.229      610.817      462.135        0.321        0.132       59.835       16.984        0.081      340.459       14.495      865.023
05/03/2013  08:44:00       29.637       34.890       17.767       36.639       26.390       26.056     1342.441      696.439      678.901        0.256        0.136       45.779       16.485        0.130      340.903       15.245      865.017
05/03/2013  08:45:00       63.201       49.964       27.708       42.145       36.025       37.928     1776.211     1297.812     1438.560        0.588        0.226       80.565       30.677        0.145      340.681       14.870      865.008
05/03/2013  08:46:00       42.662      -17.018       30.292       33.308       40.919       26.906     1109.448     1674.393      723.947        0.327        0.175       45.931       13.864        0.091      340.591       14.719      865.008
05/03/2013  08:47:00       30.504        2.303       19.587       38.624       34.543       23.818     1491.794     1193.210      567.306        0.229        0.163       30.590       17.304        0.320      340.704       14.909      864.993
05/03/2013  08:48:00       11.627       40.817        8.426       33.871       25.189       23.788     1147.229      634.481      565.846        0.211        0.117       42.441       17.980        0.179      340.683       14.873      864.989
05/03/2013  08:49:00       43.788       25.621        2.081       34.466       42.759       23.975     1187.929     1828.320      574.795        0.308        0.180       50.733       24.260        0.229      340.500       14.564      864.985
05/03/2013  08:50:00       -8.641       -5.228       20.114       19.052       28.228       26.695      362.980      796.808      712.643        0.119        0.094       10.100       17.646        3.053      341.345       15.996      864.984
05/03/2013  08:51:00       -0.352       40.290       42.118       29.191       35.715       38.020      852.124     1275.542     1445.519        0.348        0.179       40.292       29.782        0.546      341.062       15.515      864.979
05/03/2013  08:52:00       67.090       61.210       27.142       53.034       35.135       34.957     2812.567     1234.478     1221.996        0.713        0.263       90.817       28.147        0.096      340.684       14.877      864.979
05/03/2013  08:53:00       90.776       65.806       -1.964       57.899       30.815       24.782     3352.265      949.590      614.160        0.874        0.246      112.120       15.619        0.019      340.400       14.395      864.975
05/03/2013  08:54:00      107.561       67.950       21.194       47.101       41.889       32.307     2218.551     1754.648     1043.741        1.083        0.251      127.226       22.745        0.032      340.518       14.595      864.971
05/03/2013  08:55:00       67.017       48.658        3.020       39.216       28.038       27.207     1537.879      786.143      740.216        0.497        0.153       82.819       13.388        0.026      340.481       14.532      864.976
05/03/2013  08:56:00       27.506       27.417        2.573       37.762       30.162       22.424     1425.990      909.759      502.823        0.218        0.142       38.836       18.964        0.238      340.945       15.317      864.971
05/03/2013  08:57:00       96.447       71.143       24.082       63.296       46.008       46.111     4006.405     2116.699     2126.261        1.159        0.412      119.847       28.324        0.056      340.653       14.820      864.958
05/03/2013  08:58:00       77.695       64.496       70.871       73.642       51.088       38.228     5423.092     2609.935     1461.402        1.236        0.475      100.977       39.595        0.154      340.879       15.204      864.951
05/03/2013  08:59:00       91.249       63.513       60.212       39.659       31.077       40.270     1572.869      965.806     1621.672        1.007        0.208      111.176       23.007        0.043      340.502       14.567      864.946
05/03/2013  09:00:00       14.653       39.137       29.070       29.817       25.725       27.041      889.061      661.779      731.207        0.244        0.114       41.790       14.271        0.117      340.904       15.248      864.944
05/03/2013  09:01:00       22.232      -20.339       26.249       37.827       57.802       29.428     1430.892     3341.020      866.032        0.362        0.282       30.132       37.278        1.531      341.048       15.490      864.945
05/03/2013  09:02:00       53.119      -40.765        7.215       32.147       25.161       31.467     1033.445      633.095      990.199        0.360        0.133       66.958       20.484        0.094      340.760       15.003      864.938
05/03/2013  09:03:00       40.220        8.030       26.845       42.397       34.720       38.331     1797.504     1205.476     1469.227        0.344        0.224       41.014       29.343        0.512      341.061       15.514      864.931
05/03/2013  09:04:00       44.936       13.136       18.095       21.538       41.625       29.035      463.899     1732.650      843.018        0.278        0.152       46.817       23.431        0.250      340.761       15.005      864.941
05/03/2013  09:05:00       11.958        4.924       26.990       21.499       44.944       25.288      462.197     2019.938      639.479        0.201        0.156       12.932       12.409        0.921      340.985       15.385      864.928
05/03/2013  09:06:00       10.330       34.621       32.022       23.534       26.485       22.056      553.839      701.450      486.481        0.204        0.087       36.130       17.711        0.240      341.138       15.642      864.924
05/03/2013  09:07:00       33.589       44.992       20.125       30.038       37.197       26.141      902.298     1383.611      683.373        0.326        0.148       56.147       24.469        0.190      341.546       16.335      864.910
05/03/2013  09:08:00       25.863       25.655       12.154       38.082       37.988       23.787     1450.209     1443.084      565.836        0.247        0.173       36.429       19.190        0.277      341.477       16.217      864.910
05/03/2013  09:09:00      -28.235      -22.727        2.605       26.181       39.842       23.134      685.451     1587.408      535.174        0.206        0.140       36.245       21.817        0.362      341.325       15.961      864.909
05/03/2013  09:10:00      -50.039      -51.414        8.220       23.327       30.532       21.427      544.139      932.233      459.106        0.357        0.097       71.744       15.479        0.047      341.097       15.574      864.900
05/03/2013  09:11:00      -28.626      -26.441        7.736       21.201       24.055       15.727      449.499      578.632      247.330        0.143        0.064       38.968        5.302        0.019      341.153       15.668      864.895
05/03/2013  09:12:00      -16.786        2.488       20.793       57.144       32.666       33.071     3265.493     1067.048     1093.670        0.307        0.271       16.969       27.204        2.570      341.237       15.811      864.881
05/03/2013  09:13:00       24.662       39.103       30.204       43.203       37.580       30.454     1866.541     1412.220      927.451        0.363        0.210       46.231       23.017        0.248      341.234       15.806      864.871
05/03/2013  09:14:00      -30.714      -33.989       -5.523       32.434       36.681       20.862     1051.991     1345.497      435.231        0.248        0.142       45.811       19.400        0.179      341.176       15.708      864.864
05/03/2013  09:15:00      -28.811      -16.221       -7.012       33.515       25.055       18.392     1123.288      627.768      338.278        0.162        0.104       33.064        8.491        0.066      341.329       15.969      864.852
05/03/2013  09:16:00      -16.918      -53.062        1.869       43.381       44.482       31.273     1881.923     1978.641      977.969        0.397        0.242       55.694       17.723        0.101      341.333       15.972      864.840
05/03/2013  09:17:00      -15.957      -10.971       13.446       36.831       26.622       27.464     1356.496      708.740      754.249        0.169        0.141       19.364       14.686        0.575      341.397       16.082      864.830
05/03/2013  09:18:00      -32.067      -23.968       -1.208       17.751       16.309       15.508      315.109      265.968      240.501        0.121        0.041       40.034       10.999        0.075      341.150       15.664      864.836
05/03/2013  09:19:00       52.603      -93.803       -7.996       41.535       47.984       28.046     1725.149     2302.421      786.596        0.822        0.241      107.546       25.262        0.055      341.248       15.829      864.831
05/03/2013  09:20:00       36.972       -6.254       32.618       46.979       52.117       38.463     2207.023     2716.187     1479.424        0.444        0.320       37.497       37.658        1.009      341.490       16.240      864.824
05/03/2013  09:21:00       54.338      -41.734        7.646       33.751       42.423       35.399     1139.147     1799.688     1253.122        0.447        0.210       68.515       23.892        0.122      341.158       15.677      864.816
05/03/2013  09:22:00       29.952       -1.738       27.681       45.423       35.195       36.352     2063.244     1238.686     1321.466        0.314        0.231       30.002       31.349        1.092      341.544       16.331      864.803
05/03/2013  09:23:00       -4.272      -22.876       30.251       36.964       43.637       24.880     1366.345     1904.158      618.994        0.267        0.194       23.271        9.642        0.172      341.684       16.569      864.789
05/03/2013  09:24:00        2.643      -52.139       20.944       38.051       41.908       33.500     1447.857     1756.319     1122.240        0.374        0.216       52.206       10.971        0.044      341.076       15.538      864.770
05/03/2013  09:25:00       -6.807       -5.877       30.402       33.492       50.439       23.441     1121.739     2544.092      549.494        0.261        0.211        8.993       13.637        2.300      341.217       15.777      864.756
05/03/2013  09:26:00       -8.774        9.935       40.498       23.978       29.362       29.766      574.933      862.103      886.037        0.207        0.116       13.255       21.449        2.619      342.152       17.362      864.743
05/03/2013  09:27:00      -38.304      -22.363        1.417       27.976       16.802       20.161      782.641      282.303      406.469        0.172        0.074       44.354       19.829        0.200      341.719       16.626      864.743
05/03/2013  09:28:00      -22.459      -57.870        0.508       27.674       42.441       24.542      765.844     1801.218      602.310        0.351        0.158       62.076       15.615        0.063      341.664       16.534      864.742
05/03/2013  09:29:00      -31.776      -39.736       27.688       34.064       51.873       31.795     1160.370     2690.842     1010.939        0.411        0.243       50.878       33.320        0.429      342.140       17.342      864.731
05/03/2013  09:30:00       42.156      -48.888       23.267       67.144       70.867       45.433     4508.265     5022.163     2064.176        0.815        0.580       64.553       47.144        0.533      341.810       16.783      864.738
05/03/2013  09:31:00      -40.245      -24.449       27.266       48.333       36.233       39.037     2336.104     1312.807     1523.889        0.407        0.259       47.090       21.086        0.201      341.724       16.636      864.739
05/03/2013  09:32:00      -39.031       -5.176       25.847       34.822       36.058       24.917     1212.592     1300.159      620.869        0.268        0.157       39.373       18.222        0.214      342.112       17.295      864.738
05/03/2013  09:33:00       18.551       15.823       47.161       38.016       29.501       25.287     1445.234      870.315      639.454        0.289        0.148       24.383        6.977        0.082      342.218       17.474      864.741
05/03/2013  09:34:00       39.041       11.257       49.047       40.668       32.170       27.280     1653.919     1034.923      744.186        0.374        0.172       40.632       11.779        0.084      341.952       17.023      864.738
05/03/2013  09:35:00       50.749      -23.830       28.861       38.310       34.777       32.992     1467.640     1209.435     1088.486        0.387        0.188       56.066       25.959        0.214      341.357       16.014      864.747
05/03/2013  09:36:00       33.971      -75.297       -0.351       39.348       35.347       33.073     1548.283     1249.381     1093.831        0.536        0.195       82.605       19.428        0.055      341.133       15.634      864.750
05/03/2013  09:37:00       64.146       57.436       29.687       41.464       41.692       44.757     1719.223     1738.219     2003.172        0.688        0.273       86.102       22.645        0.069      341.508       16.270      864.743
05/03/2013  09:38:00       80.545       67.923       25.848       39.216       33.779       37.457     1537.876     1141.018     1403.049        0.792        0.204      105.361       22.027        0.044      341.599       16.423      864.745
05/03/2013  09:39:00       -3.965      -14.710       16.500       38.412       34.839       32.879     1475.509     1213.770     1081.019        0.214        0.189       15.235       21.368        1.967      341.947       17.013      864.735
05/03/2013  09:40:00       87.242       72.848       31.442       66.045       34.513       30.759     4361.917     1191.121      946.147        1.020        0.325      113.657       20.855        0.034      341.924       16.975      864.727
05/03/2013  09:41:00       21.606       71.480       40.074       60.928       51.230       35.546     3712.203     2624.555     1263.541        0.739        0.380       74.674       11.344        0.023      342.169       17.389      864.719
05/03/2013  09:42:00       65.473      108.996      101.258       86.116       53.501       49.315     7415.888     2862.335     2431.973        1.956        0.636      127.149       56.794        0.200      341.748       16.676      864.705
05/03/2013  09:43:00      124.999       95.929       51.282       55.726       47.424       52.255     3105.440     2249.082     2730.616        1.777        0.404      157.566       42.767        0.074      341.645       16.501      864.696
05/03/2013  09:44:00       11.614       97.533      104.042       38.157       52.942       35.909     1455.978     2802.872     1289.466        1.301        0.277       98.222       30.461        0.096      342.080       17.241      864.667
05/03/2013  09:45:00       39.547       35.257       73.521       46.349       35.993       28.414     2148.231     1295.503      807.378        0.623        0.213       52.981       17.501        0.109      342.010       17.121      864.658
05/03/2013  09:46:00       17.218       10.882       59.803       39.817       67.386       36.612     1585.365     4540.815     1340.411        0.573        0.373       20.368       26.984        1.755      342.428       17.831      864.637
05/03/2013  09:47:00       61.211      -88.362        5.025       52.502       48.205       45.286     2756.460     2323.690     2050.863        0.935        0.357      107.492       34.028        0.100      341.704       16.601      864.629
05/03/2013  09:48:00       32.729      -52.242       -1.435       32.292       48.118       29.832     1042.744     2315.337      889.926        0.402        0.212       61.647       23.460        0.145      341.870       16.884      864.621
05/03/2013  09:49:00       40.553       30.486       25.880       41.369       32.452       33.052     1711.413     1053.143     1092.422        0.355        0.193       50.734       22.009        0.188      342.531       18.005      864.604
05/03/2013  09:50:00       37.330      -19.207       31.211       50.333       70.714       42.207     2533.425     5000.459     1781.393        0.602        0.466       41.982       46.053        1.203      342.873       18.587      864.603
05/03/2013  09:51:00       48.593      -84.133        3.895       41.663       70.138       35.034     1735.785     4919.284     1227.409        0.867        0.394       97.158       37.373        0.148      342.249       17.528      864.592
05/03/2013  09:52:00      -34.656      -83.708       -4.131       59.845       59.413       33.470     3581.387     3529.938     1120.269        0.823        0.412       90.598       30.246        0.111      342.208       17.457      864.585
05/03/2013  09:53:00       -5.069       -8.195        0.471       26.475       20.877       21.133      700.916      435.856      446.605        0.084        0.079        9.636       12.071        1.569      342.434       17.841      864.583
05/03/2013  09:54:00       18.773       13.573       36.984       31.309       47.580       42.638      980.245     2263.826     1818.017        0.348        0.253       23.166       28.204        1.482      342.538       18.017      864.581
05/03/2013  09:55:00       43.700      -49.982       21.309       33.244       45.141       40.431     1105.152     2037.718     1634.667        0.482        0.239       66.392       32.052        0.233      342.167       17.388      864.563
05/03/2013  09:56:00        9.256      -63.292       -0.732       38.916       42.904       25.594     1514.427     1840.754      655.069        0.405        0.201       63.965       16.520        0.067      341.958       17.031      864.559
05/03/2013  09:57:00       77.701       27.593        2.230       37.152       69.414       30.328     1380.279     4818.322      919.787        0.696        0.356       82.455       27.460        0.111      342.359       17.713      864.544
05/03/2013  09:58:00       -2.288       12.957       19.831       57.218       52.223       38.312     3273.853     2727.205     1467.832        0.402        0.373       13.157       12.279        0.871      342.436       17.844      864.529
05/03/2013  09:59:00       98.445     -119.577      -27.105       73.895       81.317       61.016     5460.525     6612.400     3722.979        2.026        0.790      154.888       61.193        0.156      342.279       17.575      864.508
05/03/2013  10:00:00       70.431     -101.500       -7.656       63.633       69.310       53.542     4049.136     4803.944     2866.772        1.352        0.586      123.543       44.910        0.132      342.357       17.709      864.502
05/03/2013  10:01:00       -0.043       10.416       53.369       49.104       53.621       39.173     2411.180     2875.242     1534.531        0.489        0.341       10.416       26.772        6.607      342.669       18.241      864.486
05/03/2013  10:02:00       21.212      -11.156       51.391       62.011       52.916       43.378     3845.317     2800.142     1881.618        0.587        0.426       23.966       26.705        1.242      342.738       18.359      864.471
05/03/2013  10:03:00       19.118      -85.108       15.459       47.569       38.934       48.695     2262.821     1515.878     2371.172        0.700        0.307       87.229       23.905        0.075      342.439       17.850      864.461
05/03/2013  10:04:00       62.288      -77.226        3.136       40.334       73.631       40.677     1626.839     5421.479     1654.632        0.928        0.435       99.215       43.675        0.194      342.487       17.931      864.452
05/03/2013  10:05:00       41.089        0.486       18.366       34.663       38.683       29.065     1201.535     1496.341      844.791        0.278        0.177       41.091       26.584        0.419      342.455       17.877      864.436
05/03/2013  10:06:00       51.831      -49.225       -8.206       71.969       43.417       34.991     5179.494     1885.001     1224.398        0.673        0.414       71.481       25.835        0.131      342.224       17.485      864.419
05/03/2013  10:07:00       78.026     -137.993      -20.334       61.617       72.891       47.274     3796.700     5313.096     2234.799        1.844        0.567      158.525       36.270        0.052      342.521       17.988      864.411
05/03/2013  10:08:00       15.616       36.837       74.904       37.749       68.041       46.214     1425.003     4629.577     2135.720        0.770        0.410       40.010       47.759        1.425      342.945       18.710      864.398
05/03/2013  10:09:00       19.370       -8.511       34.988       40.400       45.207       27.642     1632.141     2043.688      764.103        0.306        0.222       21.157       22.673        1.148      342.898       18.632      864.403
05/03/2013  10:10:00        7.037      -10.649       29.901       52.938       70.318       57.752     2802.391     4944.619     3335.268        0.607        0.554       12.764       24.780        3.769      342.908       18.647      864.373
05/03/2013  10:11:00       34.888      -41.445       34.518       54.416       76.118       49.070     2961.050     5793.969     2407.896        0.764        0.558       54.174       43.434        0.643      342.924       18.675      864.373
05/03/2013  10:12:00        2.373       -7.363       27.975       36.919       29.667       31.794     1363.034      880.153     1010.871        0.205        0.163        7.736       21.539        7.753      343.100       18.976      864.378
05/03/2013  10:13:00       44.433      -47.164       30.819       61.941      110.268       48.636     3836.687    12159.042     2365.475        1.175        0.918       64.797       67.683        1.091      342.962       18.738      864.364
05/03/2013  10:14:00       11.921       -4.008       29.009       33.258       50.515       39.397     1106.109     2551.805     1552.140        0.310        0.261       12.577       24.289        3.729      342.924       18.676      864.360
05/03/2013  10:15:00       44.476       33.226       14.677       43.304       26.435       30.802     1875.254      698.811      948.772        0.341        0.176       55.516       25.473        0.211      342.846       18.542      864.344
05/03/2013  10:16:00       12.362      -64.127        0.441       51.704       60.586       33.797     2673.285     3670.656     1142.244        0.587        0.374       65.308       38.769        0.352      342.968       18.748      864.342
05/03/2013  10:17:00      -45.707      -30.104        0.328       38.341       28.556       28.786     1470.060      815.457      828.606        0.305        0.156       54.730       18.405        0.113      342.631       18.176      864.329
05/03/2013  10:18:00       31.662      -82.159       15.433       77.120       96.811       71.713     5947.497     9372.344     5142.702        1.422        1.023       88.049       56.505        0.412      343.156       19.068      864.311
05/03/2013  10:19:00      128.739     -195.143      -41.789       62.886       54.247       35.807     3954.641     2942.758     1282.155        3.229        0.409      233.783       15.400        0.004      342.692       18.277      864.312
05/03/2013  10:20:00       84.823     -145.707      -18.751       63.599       44.855       39.905     4044.884     2011.945     1592.423        1.821        0.382      168.598       32.621        0.037      342.510       17.969      864.319
05/03/2013  10:21:00      -13.580       -0.389       34.147       31.448       37.326       34.252      989.001     1393.217     1173.173        0.245        0.178       13.585       30.234        4.953      343.307       19.326      864.313
05/03/2013  10:22:00       53.679     -141.630       -5.875       40.673       63.737       45.209     1654.256     4062.400     2043.874        1.537        0.388      151.461       35.263        0.054      342.958       18.732      864.316
05/03/2013  10:23:00        9.468      -46.031        1.394       37.266       55.781       36.371     1388.785     3111.523     1322.884        0.402        0.291       46.994       26.191        0.311      343.214       19.169      864.316
05/03/2013  10:24:00      -14.273      -32.507        1.955       34.812       47.984       37.693     1211.865     2302.453     1420.726        0.310        0.247       35.502       27.103        0.583      343.169       19.091      864.310
05/03/2013  10:25:00      -48.781      -32.137        9.333       39.183       30.810       29.061     1535.301      949.283      844.557        0.341        0.166       58.415       15.555        0.071      342.823       18.504      864.313
05/03/2013  10:26:00       -5.501      -24.435        0.559       63.968       43.538       29.680     4091.944     1895.529      880.917        0.375        0.343       25.046       34.703        1.920      342.893       18.622      864.315
05/03/2013  10:27:00       25.769      -58.121       27.229       79.818       58.329       43.840     6370.881     3402.292     1921.921        0.824        0.585       63.577       45.175        0.505      342.948       18.716      864.298
05/03/2013  10:28:00       50.382     -131.465       -0.564       82.623       91.979       54.641     6826.588     8460.100     2985.607        1.904        0.914      140.789       60.888        0.187      343.068       18.917      864.298
05/03/2013  10:29:00       66.590     -132.019       -2.074       56.255       64.610       39.068     3164.624     4174.449     1526.347        1.537        0.443      147.862       37.673        0.065      342.843       18.535      864.283
05/03/2013  10:30:00       47.590      -11.788       62.518       56.493       91.750       57.555     3191.469     8418.030     3312.569        1.061        0.746       49.028       56.300        1.319      343.458       19.583      864.271
05/03/2013  10:31:00       89.710      -71.253       17.504       78.581      145.350       62.460     6174.980    21126.752     3901.292        2.231        1.560      114.564       49.606        0.187      343.134       19.031      864.252
05/03/2013  10:32:00      127.336      100.837       55.596       79.283       48.108       46.817     6285.865     2314.363     2191.868        2.013        0.540      162.427       24.439        0.023      343.078       18.934      864.255
05/03/2013  10:33:00       76.284       61.782       67.668       90.147       83.545       48.803     8126.423     6979.731     2381.775        1.585        0.874       98.164       35.712        0.132      343.196       19.136      864.242
05/03/2013  10:34:00      123.021       74.527       48.863       89.330       60.300       54.273     7979.847     3636.068     2945.566        1.882        0.728      143.835       40.437        0.079      343.083       18.945      864.226
05/03/2013  10:35:00      160.327      135.400       62.295       85.835       47.187       52.503     7367.633     2226.568     2756.578        3.013        0.618      209.852       56.432        0.072      343.021       18.839      864.222
05/03/2013  10:36:00       54.832       21.431       53.165       44.996       76.101       55.333     2024.602     5791.293     3061.713        0.858        0.544       58.871       55.746        0.897      342.941       18.704      864.227
05/03/2013  10:37:00       49.410       43.496       43.433       38.105       53.261       37.228     1452.005     2836.683     1385.946        0.595        0.284       65.827       19.953        0.092      343.056       18.900      864.240
05/03/2013  10:38:00      -36.094        8.275      -10.380       41.711       27.720       25.377     1739.831      768.420      643.993        0.232        0.158       37.030       28.187        0.579      343.109       18.989      864.224
05/03/2013  10:39:00      -52.689        4.088       12.818       39.941       21.841       18.199     1595.314      477.041      331.208        0.268        0.120       52.847       18.646        0.124      343.235       19.204      864.219
05/03/2013  10:40:00       74.698      -61.793       16.116       78.742       84.229       35.282     6200.260     7094.586     1244.808        1.210        0.727       96.944       46.781        0.233      343.421       19.520      864.209
05/03/2013  10:41:00       47.227       31.199       89.304       65.135       90.920       66.549     4242.603     8266.453     4428.749        1.406        0.847       56.602       63.720        1.267      343.735       20.056      864.190
05/03/2013  10:42:00       97.739      -52.916       35.757       64.554       67.598       50.509     4167.215     4569.526     2551.120        1.246        0.564      111.144       43.261        0.152      343.313       19.337      864.200
05/03/2013  10:43:00       37.730       -5.445       69.728       47.987      119.070       50.286     2302.704    14177.636     2528.710        1.266        0.950       38.121       66.306        3.025      343.389       19.465      864.187
05/03/2013  10:44:00      107.260      -54.520       23.781       77.525       59.964       58.288     6010.101     3595.697     3397.437        1.402        0.650      120.321       49.945        0.172      342.995       18.794      864.201
05/03/2013  10:45:00       44.597       23.926       20.138       37.040       69.826       37.602     1371.925     4875.613     1413.875        0.531        0.383       50.610       11.734        0.054      343.157       19.072      864.198
05/03/2013  10:46:00       89.899       74.364        4.199       28.905       26.004       23.032      835.494      676.199      530.483        0.784        0.102      116.670        5.684        0.002      343.006       18.815      864.209
05/03/2013  10:47:00       18.553       54.533      -31.532       45.105       44.574       25.786     2034.452     1986.816      664.939        0.450        0.234       57.602       20.075        0.121      343.002       18.808      864.199
05/03/2013  10:48:00       32.524       16.026       -1.776       37.193       60.311       27.196     1383.285     3637.419      739.630        0.354        0.288       36.258       25.424        0.492      343.657       19.923      864.194
05/03/2013  10:49:00       40.208      -98.516        7.506       52.032       56.529       42.726     2707.311     3195.578     1825.475        0.955        0.386      106.405       40.965        0.148      343.727       20.043      864.181
05/03/2013  10:50:00       24.419      -35.031       42.892       41.631       76.512       45.927     1733.116     5854.090     2109.301        0.668        0.485       42.702       37.935        0.789      344.149       20.764      864.168
05/03/2013  10:51:00       95.454      -64.356       30.240       89.858      133.839       89.880     8074.524    17912.863     8078.395        2.411        1.703      115.122      100.508        0.762      343.801       20.166      864.162
05/03/2013  10:52:00      129.672     -106.853       28.995       89.880      105.414       72.835     8078.356    11112.180     5304.937        2.678        1.225      168.025       66.426        0.156      343.572       19.776      864.153
05/03/2013  10:53:00       79.747       93.835      110.221       91.189       74.680       55.360     8315.443     5577.118     3064.748        2.213        0.848      123.145       42.593        0.120      343.722       20.034      864.151
05/03/2013  10:54:00       11.765       48.364       89.185       46.375       77.251       49.411     2150.680     5967.658     2441.460        1.049        0.528       49.774       52.258        1.102      343.846       20.246      864.138
05/03/2013  10:55:00       85.099       97.145       83.386      106.007       75.896       80.815    11237.575     5760.275     6531.016        2.358        1.176      129.147       74.040        0.329      343.526       19.698      864.160
05/03/2013  10:56:00       95.556       80.857       20.570       69.152       46.952       54.879     4781.966     2204.460     3011.731        1.304        0.500      125.175       28.843        0.053      343.743       20.070      864.158
05/03/2013  10:57:00       93.701       66.235       37.846       62.394       50.781       36.192     3893.051     2578.669     1309.876        1.119        0.389      114.748       12.822        0.012      344.017       20.537      864.155
05/03/2013  10:58:00      165.873      112.520       68.736       61.810       41.895       55.518     3820.508     1755.222     3082.222        2.678        0.433      200.436       17.578        0.008      343.559       19.754      864.146
05/03/2013  10:59:00       26.576       18.287       19.551       70.495       51.993       57.353     4969.559     2703.273     3289.312        0.619        0.548       32.260       37.158        1.327      344.176       20.810      864.141
05/03/2013  11:00:00       34.227       63.827       87.818       60.675       42.004       54.794     3681.433     1764.369     3002.357        1.070        0.422       72.425       10.967        0.023      343.819       20.200      864.136
05/03/2013  11:01:00       12.468       27.058       -1.922       31.027       66.151       37.157      962.686     4375.981     1380.669        0.380        0.336       29.793       42.193        2.006      343.854       20.260      864.122
05/03/2013  11:02:00        4.506      -69.802       14.183       36.401       84.174       48.421     1325.019     7085.327     2344.561        0.792        0.538       69.947       57.831        0.684      344.099       20.678      864.097
05/03/2013  11:03:00       47.952      -27.953       17.221       48.888       51.297       39.680     2390.025     2631.409     1574.467        0.499        0.330       55.505       36.675        0.437      344.070       20.630      864.083
05/03/2013  11:04:00       -0.097      -18.185       35.756       24.193       45.453       26.995      585.297     2065.964      728.734        0.249        0.169       18.185       20.305        1.247      344.641       21.605      864.060
05/03/2013  11:05:00       30.910      -15.772       28.322       38.937       66.598       40.735     1516.121     4435.302     1659.307        0.481        0.381       34.701       42.016        1.466      344.337       21.083      864.050
05/03/2013  11:06:00       49.814       -5.256       41.944       66.403       91.378       74.503     4409.297     8349.915     5550.723        1.129        0.915       50.090       77.490        2.393      344.152       20.768      864.036
05/03/2013  11:07:00       93.619     -120.005       -3.794       60.341       83.351       61.572     3640.990     6947.384     3791.056        1.878        0.719      152.203       66.389        0.190      343.640       19.895      864.030
05/03/2013  11:08:00       58.576       21.330       23.875       40.238       62.350       42.294     1619.101     3887.539     1788.778        0.587        0.365       62.339       17.870        0.082      343.621       19.861      864.037
05/03/2013  11:09:00       85.848      -17.281       26.834       58.906       67.899       50.748     3469.861     4610.297     2575.355        0.952        0.533       87.570       30.511        0.121      343.765       20.108      864.007
05/03/2013  11:10:00       58.555      -70.628       16.353       67.694       72.435       49.393     4582.414     5246.762     2439.678        1.047        0.613       91.745       53.195        0.336      344.188       20.830      864.001
05/03/2013  11:11:00       13.797       -6.863       49.390       59.329       54.220       46.221     3519.882     2939.793     2136.419        0.564        0.430       15.410       34.971        5.150      344.369       21.140      864.005
05/03/2013  11:12:00       97.150       82.520       59.505       74.277       50.067       48.720     5517.088     2506.683     2373.681        1.509        0.520      127.466       18.782        0.022      344.173       20.804      864.006
05/03/2013  11:13:00       22.524       40.825       42.225       48.512       48.957       44.294     2353.407     2396.810     1961.972        0.533        0.336       46.626       26.854        0.332      344.597       21.529      863.991
05/03/2013  11:14:00       38.151       48.920       59.626       82.166       61.094       50.494     6751.262     3732.510     2549.614        1.022        0.652       62.038       36.525        0.347      344.335       21.080      863.986
05/03/2013  11:15:00       58.255       64.727       69.542       66.821       75.599       39.185     4465.064     5715.269     1535.501        1.207        0.586       87.081       33.039        0.144      344.253       20.940      863.983
05/03/2013  11:16:00       -8.208       -7.305        4.465       28.609       31.378       27.392      818.490      984.609      750.296        0.135        0.128       10.988       12.578        1.310      344.547       21.443      863.965
05/03/2013  11:17:00        8.071       -6.858       35.873       24.620       41.914       28.661      606.164     1756.742      821.458        0.229        0.159       10.591       29.316        7.662      344.477       21.325      863.959
05/03/2013  11:18:00       10.020      -22.368       18.612       28.264       35.186       34.317      798.872     1238.061     1177.660        0.208        0.161       24.510       27.775        1.284      344.560       21.467      863.943
05/03/2013  11:19:00       26.309       -0.199       24.606       59.519       48.296       32.097     3542.547     2332.533     1030.203        0.410        0.345       26.310       19.599        0.555      344.195       20.841      863.925
05/03/2013  11:20:00       19.024      -13.694       22.513       39.875       54.047       34.200     1590.023     2921.115     1169.647        0.337        0.284       23.440       31.752        1.835      344.226       20.894      863.926
05/03/2013  11:21:00       -8.127        5.339       25.474       22.185       29.272       25.868      492.194      856.877      669.149        0.138        0.101        9.724       16.736        2.962      344.698       21.703      863.909
05/03/2013  11:22:00      -13.491       20.814       27.121       90.665       57.510       73.319     8220.104     3307.356     5375.621        0.912        0.845       24.804       41.544        2.805      344.360       21.123      863.895
05/03/2013  11:23:00        1.775       -1.009      -21.257       49.740       51.319       35.439     2474.081     2633.663     1255.914        0.341        0.318        2.042       40.137      386.452      343.955       20.431      863.887
05/03/2013  11:24:00        4.004      -11.348       19.785       35.598       32.621       21.131     1267.204     1064.128      446.521        0.166        0.139       12.034       15.819        1.728      344.699       21.702      863.874
05/03/2013  11:25:00       91.541       45.607       29.841       89.312       40.637       35.565     7976.554     1651.362     1264.865        1.112        0.545      102.273       29.308        0.082      344.701       21.707      863.853
05/03/2013  11:26:00      119.786      103.034       25.126       96.097       64.036       60.438     9234.727     4100.562     3652.702        2.129        0.849      158.002       40.185        0.065      344.269       20.967      863.836
05/03/2013  11:27:00       77.823       64.719       23.217       63.412       44.321       33.579     4021.098     1964.330     1127.545        0.895        0.356      101.218       18.852        0.035      344.513       21.385      863.808
05/03/2013  11:28:00       10.340        8.360        9.889       47.015       64.164       36.279     2210.377     4116.960     1316.161        0.396        0.382       13.297       15.144        1.297      344.688       21.684      863.781
05/03/2013  11:29:00      126.225       57.282       16.510       82.600       52.752       42.332     6822.749     2782.749     1791.966        1.544        0.570      138.614       35.040        0.064      344.624       21.574      863.759
05/03/2013  11:30:00       44.204      -86.670       13.655       73.726       69.966       33.865     5435.568     4895.220     1146.846        1.056        0.574       97.292       29.882        0.094      344.590       21.517      863.749
05/03/2013  11:31:00       49.465      -38.584       15.011       39.760       36.940       29.938     1580.875     1364.570      896.268        0.400        0.192       62.734       10.741        0.029      344.278       20.985      863.719
05/03/2013  11:32:00      115.212       76.624       37.875       99.976       78.721       60.105     9995.150     6197.074     3612.581        2.019        0.990      138.365       48.901        0.125      344.662       21.638      863.689
05/03/2013  11:33:00       51.461      -56.157       35.580       73.597      148.389       69.496     5416.568    22019.261     4829.681        1.966        1.613       76.170       78.403        1.059      344.754       21.797      863.646
05/03/2013  11:34:00      105.356       85.241      104.606      107.337      129.541       81.815    11521.287    16780.944     6693.770        3.215        1.750      135.521       79.109        0.341      344.535       21.419      863.631
05/03/2013  11:35:00      143.923       22.198       78.374      109.382      164.531       93.353    11964.462    27070.443     8714.773        3.754        2.387      145.625       90.534        0.387      344.548       21.442      863.601
05/03/2013  11:36:00      212.110      185.723      137.973      127.508      103.953       93.091    16258.373    10806.286     8665.976        6.712        1.787      281.929       66.589        0.056      344.410       21.205      863.603
05/03/2013  11:37:00      126.453       98.039       49.052       85.230       78.081       72.303     7264.073     6096.579     5227.683        2.330        0.929      160.006       46.600        0.085      344.761       21.806      863.618
05/03/2013  11:38:00      161.957      124.752       77.641      131.054       97.326       73.338    17175.025     9472.387     5378.479        3.992        1.601      204.434       66.482        0.106      344.501       21.362      863.586
05/03/2013  11:39:00      150.214      110.242       80.026      115.820       77.444       64.709    13414.190     5997.519     4187.306        3.236        1.180      186.326       55.825        0.090      344.675       21.659      863.567
05/03/2013  11:40:00       42.807      -76.760       13.207       92.279      138.000       56.489     8515.461    19044.041     3190.992        1.932        1.538       87.889       56.833        0.418      344.999       22.215      863.545
05/03/2013  11:41:00      120.377       96.740       34.796      120.489       85.072       61.852    14517.522     7237.277     3825.721        2.532        1.279      154.432       51.228        0.110      344.953       22.136      863.554
05/03/2013  11:42:00       62.996      -36.447       20.640       77.793       79.750       54.096     6051.715     6360.019     2926.353        1.053        0.767       72.779       18.105        0.062      344.521       21.399      863.537
05/03/2013  11:43:00       97.804       93.142      103.796       89.808       79.090       74.467     8065.554     6255.237     5545.270        2.444        0.993      135.059       50.128        0.138      344.551       21.448      863.510
05/03/2013  11:44:00      123.460      150.712      127.361      127.371      115.086       92.709    16223.296    13244.750     8595.003        4.611        1.903      194.824       98.428        0.255      344.323       21.056      863.504
05/03/2013  11:45:00       83.253       71.593       98.118       97.967      111.637       83.813     9597.453    12462.903     7024.649        2.538        1.454      109.802       73.171        0.444      344.523       21.401      863.481
05/03/2013  11:46:00       38.792      -67.993       24.393       70.487       96.161       52.024     4968.467     9246.858     2706.536        1.182        0.846       78.280       61.599        0.619      344.610       21.551      863.474
05/03/2013  11:47:00       44.076      -79.048       12.853       60.427      101.351       42.168     3651.393    10272.108     1778.180        1.203        0.785       90.506       44.785        0.245      344.976       22.176      863.437
05/03/2013  11:48:00       21.550       18.477       38.420       37.612       42.328       32.901     1414.625     1791.632     1082.505        0.328        0.214       28.387       17.830        0.395      344.912       22.067      863.435
05/03/2013  11:49:00       84.258       48.461       12.947       50.012       46.629       37.480     2501.228     2174.223     1404.718        0.785        0.304       97.200       26.091        0.072      344.484       21.335      863.435
05/03/2013  11:50:00       86.868      -12.752       29.624       77.002      154.679       61.868     5929.252    23925.700     3827.694        2.113        1.684       87.799       49.781        0.321      344.943       22.120      863.402
05/03/2013  11:51:00       76.922       73.585       83.339       58.413       70.300       48.182     3412.081     4942.091     2321.540        1.447        0.534      106.450       33.047        0.096      344.818       21.907      863.404
05/03/2013  11:52:00       71.002      -51.542        9.507       57.410       45.110       30.142     3295.914     2034.915      908.557        0.701        0.312       87.737       33.532        0.146      344.393       21.181      863.402
05/03/2013  11:53:00       99.532       95.194       99.677      103.786      102.148       93.256    10771.556    10434.219     8696.639        2.940        1.495      137.726       82.962        0.363      344.711       21.722      863.367
05/03/2013  11:54:00      214.270      123.420       95.247      130.040       95.817       81.522    16910.432     9180.887     6645.853        5.147        1.637      247.274       64.395        0.068      344.606       21.541      863.339
05/03/2013  11:55:00      144.526      -29.151       60.257      129.737       97.385       75.952    16831.562     9483.744     5768.716        2.872        1.604      147.436       78.263        0.282      344.658       21.633      863.322
05/03/2013  11:56:00       33.979       31.935       29.669       95.291      130.718       49.910     9080.315    17087.208     2490.995        1.585        1.433       46.631       43.998        0.890      345.253       22.650      863.302
05/03/2013  11:57:00      137.706      154.587       20.748      124.895      107.632       76.638    15598.661    11584.636     5873.348        3.817        1.653      207.027       69.785        0.114      345.155       22.482      863.328
05/03/2013  11:58:00      111.544       94.687       31.637       94.423       57.058       65.123     8915.721     3255.588     4241.029        1.941        0.821      146.313       44.985        0.095      345.269       22.677      863.334
05/03/2013  11:59:00      256.209      154.862       20.300      103.893       86.250       64.127    10793.822     7439.069     4112.320        5.619        1.117      299.375       35.963        0.014      344.788       21.853      863.329
05/03/2013  12:00:00      151.421      102.398       31.666       78.433       64.112       57.889     6151.770     4110.298     3351.126        2.401        0.681      182.794       39.913        0.048      344.594       21.522      863.315
05/03/2013  12:01:00       27.039      -29.231       35.771       48.041       75.055       47.656     2307.969     5633.238     2271.112        0.654        0.511       39.819       28.268        0.504      344.773       21.830      863.296
05/03/2013  12:02:00       29.258      -46.315       18.033       74.499       84.413       49.132     5550.122     7125.582     2413.950        0.921        0.754       54.782       30.208        0.304      344.688       21.684      863.276
05/03/2013  12:03:00       62.871       96.420       14.453       65.688       52.226       44.464     4314.930     2727.525     1977.044        1.124        0.451      115.107       30.164        0.069      344.985       22.193      863.247
05/03/2013  12:04:00       25.454       68.438       14.125       47.244       50.407       36.780     2231.963     2540.881     1352.791        0.583        0.306       73.018       30.654        0.176      345.503       23.081      863.229
05/03/2013  12:05:00       45.922       16.834       19.884       34.234       34.201       24.850     1171.990     1169.710      617.524        0.287        0.148       48.911       13.397        0.075      344.973       22.173      863.214
05/03/2013  12:06:00       76.986       53.798       21.101       87.124       49.840       32.019     7590.607     2483.978     1025.243        1.018        0.555       93.920       22.239        0.056      345.287       22.710      863.212
05/03/2013  12:07:00      142.776       94.046       14.790      121.945       88.835       68.005    14870.464     7891.627     4624.661        2.841        1.369      170.966       53.201        0.097      345.276       22.688      863.206
05/03/2013  12:08:00        5.924      173.072      -27.563       43.607       78.056       34.148     1901.568     6092.749     1166.087        1.995        0.458      173.174       27.906        0.026      344.833       21.930      863.197
05/03/2013  12:09:00      -28.090       49.675      -10.841       47.985       59.941       23.350     2302.569     3592.891      545.212        0.491        0.322       57.067       25.935        0.207      345.068       22.335      863.161
05/03/2013  12:10:00      -22.407      -18.196       27.841      137.965       94.175       47.460    19034.462     8868.925     2252.421        1.588        1.508       28.865       45.978        2.537      345.504       23.081      863.123
05/03/2013  12:11:00      169.086       80.594       43.649      150.670      135.964       85.715    22701.488    18486.153     7347.076        4.275        2.427      187.311       38.535        0.042      344.995       22.206      863.109
05/03/2013  12:12:00      254.765      141.999       28.499      101.189       80.026       78.315    10239.298     6404.113     6133.275        5.433        1.139      291.666       50.539        0.030      345.058       22.314      863.110
05/03/2013  12:13:00      181.697      130.572       23.986       71.690       58.345       51.867     5139.501     3404.088     2690.165        3.093        0.562      223.748       21.720        0.009      344.864       21.981      863.130
05/03/2013  12:14:00      128.025       62.350        7.991       77.078       47.740       39.740     5940.968     2279.067     1579.280        1.507        0.490      142.401       37.183        0.068      344.711       21.724      863.112
05/03/2013  12:15:00       13.215       49.654       16.696       59.252       26.358       35.134     3510.770      694.762     1234.397        0.418        0.272       51.382       19.666        0.146      345.466       23.017      863.090
05/03/2013  12:16:00       62.364       49.867       34.733       37.812       36.165       33.647     1429.782     1307.875     1132.092        0.573        0.193       79.850       21.199        0.070      345.178       22.524      863.063
05/03/2013  12:17:00       21.588       29.195        7.426       24.045       35.167       23.969      578.153     1236.717      574.498        0.188        0.119       36.310       16.137        0.198      345.369       22.850      863.042
05/03/2013  12:18:00      115.661       57.958        8.704       77.342       48.012       32.435     5981.847     2305.151     1051.997        1.307        0.467      129.371        8.696        0.005      345.365       22.842      863.035
05/03/2013  12:19:00      179.464       67.510       45.254      115.099       73.689       71.621    13247.740     5430.030     5129.497        3.131        1.190      191.742       50.329        0.069      345.291       22.713      863.028
05/03/2013  12:20:00      111.151       40.853       51.928       88.386       63.816       55.335     7812.039     4072.503     3061.975        1.583        0.747      118.421       43.503        0.135      345.043       22.290      863.007
05/03/2013  12:21:00       88.967       67.475      102.735       93.847       97.642       64.264     8807.222     9533.941     4129.904        2.274        1.124      111.660       56.419        0.255      345.151       22.475      862.979
05/03/2013  12:22:00      100.971      114.848      125.736      105.028       89.229       79.007    11030.944     7961.751     6242.092        3.221        1.262      152.922       68.893        0.203      345.193       22.546      862.940
05/03/2013  12:23:00       53.834       85.257      112.729       88.302       95.852       80.904     7797.291     9187.578     6545.417        2.320        1.177      100.830       74.245        0.542      345.292       22.716      862.922
05/03/2013  12:24:00       43.883      133.876       43.342      114.092      109.584       97.308    13016.877    12008.628     9468.755        2.810        1.725      140.885       66.181        0.221      345.099       22.385      862.931
05/03/2013  12:25:00       69.105      185.806       -7.225       81.734      104.849       66.826     6680.401    10993.250     4465.685        3.074        1.107      198.241       72.329        0.133      345.181       22.526      862.941
05/03/2013  12:26:00       81.582      119.254        3.725       88.249       70.656       68.555     7787.820     4992.212     4699.851        1.918        0.874      144.489       53.004        0.135      345.321       22.768      862.931
05/03/2013  12:27:00      103.063       89.395       18.561       80.920       55.812       42.632     6548.088     3115.005     1817.486        1.522        0.574      136.432       26.738        0.038      345.445       22.981      862.906
05/03/2013  12:28:00      111.391       88.201       23.536       93.345       56.414       59.907     8713.329     3182.556     3588.875        1.811        0.774      142.082       34.043        0.057      345.398       22.897      862.886
05/03/2013  12:29:00       90.716       44.887       24.179       61.407       48.354       49.934     3770.864     2338.127     2493.358        0.971        0.430      101.214       32.037        0.100      345.545       23.152      862.862
05/03/2013  12:30:00       69.382       63.849       38.794       65.375       57.607       41.341     4273.947     3318.596     1709.044        0.985        0.465       94.290       21.109        0.050      345.335       22.791      862.845
05/03/2013  12:31:00        6.674       38.536       22.708       27.388       46.233       27.481      750.082     2137.516      755.183        0.284        0.182       39.110       20.528        0.275      346.043       24.007      862.836
05/03/2013  12:32:00       52.917      126.728      -11.230       71.945       57.593       48.788     5176.105     3316.963     2380.265        1.493        0.544      137.333       39.957        0.085      345.647       23.325      862.832
05/03/2013  12:33:00       78.674      142.190      -12.914       84.805      130.846       53.814     7191.937    17120.559     2895.973        2.689        1.360      162.504       58.616        0.130      345.522       23.110      862.816
05/03/2013  12:34:00      143.771      140.022       -6.902      108.930       73.294       63.239    11865.673     5371.963     3999.182        3.078        1.062      200.689       35.867        0.032      345.133       22.443      862.789
05/03/2013  12:35:00       38.287      172.760        4.646      159.426       81.153       63.205    25416.511     6585.839     3994.845        3.366        1.800      176.951       64.634        0.133      345.383       22.870      862.745
05/03/2013  12:36:00     -160.273      167.086      -39.067      102.589       94.631       53.264    10524.576     8954.974     2837.102        3.872        1.116      231.528       58.856        0.065      345.221       22.594      862.732
05/03/2013  12:37:00      -30.008      137.601       -6.960      116.967       82.827       56.455    13681.235     6860.259     3187.219        2.180        1.186      140.835       64.770        0.212      345.370       22.852      862.701
05/03/2013  12:38:00       64.888      102.323       16.111       77.271       62.982       45.714     5970.850     3966.670     2089.781        1.348        0.601      121.163       22.067        0.033      345.392       22.890      862.691
05/03/2013  12:39:00       92.358       56.777       10.154       83.651       45.702       38.966     6997.448     2088.642     1518.365        1.123        0.530      108.414       34.843        0.103      345.737       23.481      862.677
05/03/2013  12:40:00      205.924      146.099       43.421      130.830       88.750       68.183    17116.453     7876.601     4648.882        4.763        1.482      252.487       31.441        0.016      345.254       22.651      862.662
05/03/2013  12:41:00      259.878      167.685       41.611      107.484       69.127       69.711    11552.749     4778.598     4859.614        5.929        1.060      309.281       28.106        0.008      345.425       22.941      862.650
05/03/2013  12:42:00      268.299      150.230       16.828      145.445       83.591       86.835    21154.122     6987.446     7540.326        6.525        1.784      307.495       40.713        0.018      345.541       23.140      862.662
05/03/2013  12:43:00      213.806      144.951        8.533      169.090      101.952       74.448    28591.514    10394.208     5542.510        5.565        2.226      258.309       23.495        0.008      345.311       22.749      862.695
05/03/2013  12:44:00       33.236       72.606       24.486       64.394       74.246       49.860     4146.623     5512.443     2486.023        0.956        0.607       79.852       49.176        0.379      345.416       22.930      862.664
05/03/2013  12:45:00       -4.321      129.966       24.769       50.480      103.793       48.783     2548.185    10773.012     2379.781        1.661        0.785      130.038       58.199        0.200      345.569       23.193      862.651
05/03/2013  12:46:00       66.694        7.123       33.204       67.126       78.211       48.693     4505.907     6117.020     2370.993        0.930        0.650       67.073       30.469        0.206      345.918       23.791      862.642
05/03/2013  12:47:00      103.285       94.845      123.908       81.406       88.119       66.414     6626.887     7764.880     4410.882        2.691        0.940      140.226       60.169        0.184      345.562       23.180      862.605
05/03/2013  12:48:00      113.051      -21.603       74.640      101.107      122.459       71.259    10222.596    14996.214     5077.787        2.455        1.515      115.096       54.693        0.226      345.772       23.541      862.588
05/03/2013  12:49:00      118.248      -43.730       53.324      115.762      138.113       71.615    13400.822    19075.244     5128.741        2.817        1.880      126.075       81.449        0.417      345.403       22.907      862.575
05/03/2013  12:50:00      137.442      -55.577       27.962      121.880      156.725      102.843    14854.617    24562.569    10576.766        3.637        2.500      148.253      122.282        0.680      345.465       23.013      862.555
05/03/2013  12:51:00       66.740       93.634       66.551       94.123      122.834       83.292     8859.215    15088.113     6937.517        2.426        1.544      114.985       79.346        0.476      345.707       23.429      862.559
05/03/2013  12:52:00       47.006     -136.488      -16.044       49.004       47.302       26.472     2401.344     2237.492      700.774        1.322        0.267      144.356        5.417        0.001      345.449       22.986      862.548
05/03/2013  12:53:00      120.458       38.811       67.132       64.844       83.129       43.094     4204.749     6910.389     1857.069        1.675        0.649      126.556       37.584        0.088      345.278       22.694      862.547
05/03/2013  12:54:00       53.060       -0.533        4.679       60.551       56.871       34.341     3666.477     3234.360     1179.303        0.546        0.404       53.063       22.198        0.175      345.150       22.476      862.532
05/03/2013  12:55:00       33.992       42.740       22.467       39.582       31.673       39.543     1566.745     1003.196     1563.651        0.381        0.207       54.609       27.603        0.255      345.765       23.528      862.515
05/03/2013  12:56:00       47.832       60.482       62.280       60.592       60.354       45.714     3671.405     3642.631     2089.750        0.961        0.470       77.110       27.032        0.123      346.063       24.042      862.509
05/03/2013  12:57:00       62.678       48.846       34.267      104.137       92.433       57.585    10844.417     8543.769     3316.005        1.509        1.135       79.464       40.393        0.258      345.840       23.658      862.500
05/03/2013  12:58:00      172.612       88.959       92.589      144.964      139.979       92.247    21014.700    19594.113     8509.434        4.769        2.456      194.187       89.675        0.213      345.579       23.208      862.457
05/03/2013  12:59:00       85.932      120.619       87.922       58.392       69.074       64.482     3409.680     4771.185     4157.896        2.100        0.617      148.099       49.356        0.111      345.351       22.818      862.450
05/03/2013  13:00:00       92.364       64.540       15.272       76.171       59.424       45.816     5801.976     3531.246     2099.079        1.218        0.572      112.679       35.231        0.098      345.751       23.504      862.468
05/03/2013  13:01:00       97.139       93.017        9.852      110.305       73.011       44.711    12167.259     5330.629     1999.084        1.884        0.975      134.492       47.701        0.126      345.464       23.010      862.473
05/03/2013  13:02:00       72.039      134.423       -6.900       50.510       83.118       54.405     2551.292     6908.612     2959.907        1.786        0.621      152.509       49.223        0.104      345.845       23.666      862.460
05/03/2013  13:03:00       62.631      185.499       -1.355      116.597      141.055       81.545    13594.822    19896.377     6649.555        3.923        2.007      195.787       84.103        0.185      345.922       23.796      862.451
05/03/2013  13:04:00     -130.275      327.182      -51.020       74.769      107.269       55.963     5590.383    11506.675     3131.864        7.342        1.011      352.164       50.295        0.020      345.254       22.650      862.465
05/03/2013  13:05:00      -58.290      178.443      -26.805       38.468       72.337       33.513     1479.751     5232.668     1123.136        2.190        0.392      187.722       33.345        0.032      345.385       22.876      862.439
05/03/2013  13:06:00      -20.766       50.014       38.643       46.660       40.945       31.751     2177.200     1676.497     1008.114        0.464        0.243       54.153       17.747        0.107      346.283       24.420      862.399
05/03/2013  13:07:00      -24.925       84.901       21.251       47.546       50.622       37.475     2260.644     2562.552     1404.380        0.725        0.311       88.484       16.281        0.034      346.016       23.961      862.376
05/03/2013  13:08:00      -20.996       43.006       25.671       63.606       54.403       47.412     4045.766     2959.688     2247.937        0.610        0.463       47.858       30.597        0.409      345.992       23.921      862.364
05/03/2013  13:09:00      -58.847      105.259       -6.869       67.683       65.259       34.693     4581.023     4258.788     1203.626        1.231        0.502      120.592       22.490        0.035      345.715       23.443      862.363
05/03/2013  13:10:00      -68.226      223.264       -9.088       79.973      123.810       58.616     6395.650    15329.036     3435.863        3.987        1.258      233.456       46.394        0.039      345.802       23.591      862.358
05/03/2013  13:11:00     -201.454      183.744      -37.791       92.906      101.755       58.082     8631.581    10354.083     3373.547        4.906        1.118      272.663       57.795        0.045      345.627       23.290      862.368
05/03/2013  13:12:00     -119.604      104.892      -11.212      111.564       79.110       52.055    12446.588     6258.379     2709.679        2.342        1.071      159.083       41.105        0.067      345.489       23.052      862.389
05/03/2013  13:13:00       49.016      176.916       -4.938      112.996       89.273       57.291    12768.093     7969.651     3282.241        2.887        1.201      183.580       56.762        0.096      345.426       22.947      862.356
05/03/2013  13:14:00       71.766       91.474       22.562       73.903       73.804       53.430     5461.712     5446.959     2854.733        1.389        0.688      116.266       47.984        0.170      345.780       23.554      862.325
05/03/2013  13:15:00       28.400       89.887       -5.061      121.139       59.216       45.707    14674.600     3506.539     2089.100        1.459        1.014       94.267       42.572        0.204      345.680       23.382      862.317
05/03/2013  13:16:00       23.375      147.097      -20.367       52.212      104.273       43.338     2726.063    10872.806     1878.170        1.904        0.774      148.943       47.695        0.103      345.600       23.246      862.294
05/03/2013  13:17:00      110.066      105.747       13.221      110.050      100.597       47.685    12110.909    10119.792     2273.895        2.398        1.225      152.633       46.050        0.091      345.665       23.355      862.279
05/03/2013  13:18:00      117.270       94.863       28.068       92.416       59.375       48.226     8540.770     3525.445     2325.734        1.896        0.720      150.835       30.165        0.040      345.759       23.519      862.254
05/03/2013  13:19:00       66.113       78.101       16.828       59.302       55.778       48.999     3516.781     3111.159     2400.867        0.989        0.451      102.327       28.471        0.077      345.647       23.325      862.245
05/03/2013  13:20:00       78.119       68.907       15.074       24.399       36.277       35.783      595.317     1316.017     1280.409        0.713        0.160      104.167       30.788        0.087      345.243       22.633      862.238
05/03/2013  13:21:00       62.675       49.177        6.277       40.972       38.693       35.597     1678.681     1497.162     1267.111        0.541        0.222       79.665       29.599        0.138      345.334       22.790      862.224
05/03/2013  13:22:00      -23.406      -37.181       -2.425       60.885       35.170       31.506     3707.009     1236.933      992.600        0.394        0.297       43.934       13.295        0.092      345.583       23.216      862.210
05/03/2013  13:23:00     -225.316      -42.420      -12.488       58.671       70.607       43.823     3442.274     4985.395     1920.427        3.153        0.517      229.274       37.343        0.027      345.589       23.223      862.184
05/03/2013  13:24:00     -152.565      -28.341        5.297       97.861       87.793       47.248     9576.790     7707.587     2232.336        2.181        0.976      155.175       44.818        0.083      345.803       23.593      862.162
05/03/2013  13:25:00     -260.260      -12.085      -34.509       78.480       73.206       49.058     6159.154     5359.122     2406.670        4.150        0.696      260.541       52.126        0.040      345.625       23.284      862.152
05/03/2013  13:26:00     -210.586       37.067      -26.379       55.802       54.950       38.450     3113.855     3019.459     1478.404        2.701        0.381      213.823       20.879        0.010      345.737       23.478      862.143
05/03/2013  13:27:00     -148.222      -61.901       -7.980       85.429       69.919       42.376     7298.076     4888.650     1795.700        1.992        0.699      160.629       38.721        0.058      345.814       23.611      862.120
05/03/2013  13:28:00      -35.446       30.590        5.388       49.889       57.198       46.459     2488.885     3271.650     2158.468        0.507        0.396       46.821       36.513        0.608      345.955       23.855      862.110
05/03/2013  13:29:00      -22.657      158.340      -10.259       65.521      148.688       56.185     4292.951    22108.057     3156.708        2.762        1.478      159.953       57.379        0.129      346.113       24.125      862.143
05/03/2013  13:30:00     -205.119      247.321      -50.993       83.513      109.807       52.285     6974.453    12057.679     2733.735        6.380        1.088      321.312       55.538        0.030      345.403       22.905      862.136
05/03/2013  13:31:00       12.843      172.036        1.666       72.004      186.979       71.196     5184.521    34961.157     5068.842        3.748        2.261      172.514       98.830        0.328      346.142       24.177      862.107
05/03/2013  13:32:00       20.489      257.131      -22.253       96.936      123.186       66.244     9396.519    15174.870     4388.332        4.799        1.448      257.946       66.945        0.067      345.852       23.675      862.106
05/03/2013  13:33:00       43.961      286.130      -29.171      103.482      149.494       77.062    10708.533    22348.556     5938.501        6.182        1.950      289.487       82.040        0.080      345.701       23.416      862.097
05/03/2013  13:34:00      124.862      293.495      -32.650      118.709      123.597       62.224    14091.897    15276.229     3871.764        6.801        1.662      318.951       81.905        0.066      345.401       22.900      862.083
05/03/2013  13:35:00       72.990      209.608      -23.255       97.070      140.070       64.735     9422.606    19619.657     4190.656        4.151        1.662      221.953       74.790        0.114      345.924       23.801      862.071
05/03/2013  13:36:00       27.554      299.917      -29.507       63.736       88.293       59.638     4062.263     7795.734     3556.683        5.349        0.771      301.180       62.576        0.043      345.443       22.973      862.110
05/03/2013  13:37:00      -53.708      119.460      -15.079       60.903       69.764       34.402     3709.136     4867.039     1183.473        1.357        0.488      130.978       37.775        0.083      345.511       23.094      862.095
05/03/2013  13:38:00       -7.171       30.373       16.475       44.506       36.356       28.737     1980.810     1321.746      825.816        0.269        0.206       31.208       29.432        0.889      346.097       24.100      862.056
05/03/2013  13:39:00      -50.477       85.736        9.615       69.543       70.692       43.931     4836.257     4997.397     1929.926        1.088        0.588       99.492       43.064        0.187      345.914       23.786      862.051
05/03/2013  13:40:00      -33.311       83.133        0.156       39.637       57.395       37.187     1571.072     3294.184     1382.897        0.713        0.312       89.558       34.275        0.146      345.865       23.702      862.035
05/03/2013  13:41:00       33.189       52.026       -5.007       35.208       43.649       23.202     1239.599     1905.264      538.316        0.376        0.184       61.710       17.773        0.083      345.417       22.933      861.997
05/03/2013  13:42:00      -21.370       37.281       17.273       49.072       46.137       32.521     2408.054     2128.625     1057.589        0.387        0.280       42.972       30.448        0.502      345.955       23.856      861.987
05/03/2013  13:43:00      -30.308      155.965      -12.561       38.751       82.987       30.909     1501.634     6886.837      955.389        1.737        0.467      158.883       39.773        0.063      346.005       23.940      861.996
05/03/2013  13:44:00      -30.553      144.824      -13.656       63.801       78.435       42.068     4070.552     6152.015     1769.694        1.704        0.600      148.012       35.489        0.057      346.065       24.043      861.972
05/03/2013  13:45:00     -226.943      120.514      -32.712       97.594      115.119       52.749     9524.654    13252.454     2782.489        4.632        1.278      256.957       54.194        0.044      345.859       23.687      861.958
05/03/2013  13:46:00     -171.736      142.868      -22.946       90.658       92.306       61.441     8218.961     8520.431     3774.962        3.547        1.026      223.393       60.733        0.074      345.640       23.313      861.955
05/03/2013  13:47:00      -72.728      -46.398        2.894       80.056       54.256       37.605     6408.976     2943.763     1414.125        0.911        0.538       86.268       33.334        0.149      345.994       23.922      861.941
05/03/2013  13:48:00      -42.282       31.131       -2.773       42.865       55.163       25.907     1837.372     3042.907      671.169        0.416        0.278       52.507       19.035        0.131      345.981       23.901      861.941
05/03/2013  13:49:00      -32.593      134.416      -12.326       33.878       90.959       39.666     1147.752     8273.453     1573.406        1.514        0.550      138.311       50.871        0.135      345.857       23.687      861.965
05/03/2013  13:50:00        8.069      136.676        8.537       75.130       98.808       64.997     5644.577     9763.044     4224.614        1.922        0.982      136.914       62.738        0.210      345.951       23.847      861.934
05/03/2013  13:51:00       49.753      173.041       -4.043      110.421       92.315       56.140    12192.755     8522.028     3151.719        2.815        1.193      180.051       59.135        0.108      345.861       23.691      861.936
05/03/2013  13:52:00      192.503      191.845       28.651      167.077      102.808       92.011    27914.823    10569.467     8465.980        6.081        2.348      271.775       64.595        0.056      345.789       23.567      861.913
05/03/2013  13:53:00      240.157      150.823       30.664      109.816       84.533       78.985    12059.540     7145.877     6238.646        5.340        1.272      283.589       43.420        0.023      346.137       24.164      861.897
05/03/2013  13:54:00       72.772      155.467        6.033       80.501       99.889       68.765     6480.491     9977.765     4728.632        2.534        1.059      171.656       60.909        0.126      345.877       23.720      861.908
05/03/2013  13:55:00      120.460      132.254       -6.346       62.661       99.126       49.371     3926.360     9826.005     2437.499        2.411        0.809      178.890       53.579        0.090      345.543       23.148      861.867
05/03/2013  13:56:00       46.376      187.181       -8.112       94.644      115.519       72.318     8957.420    13344.556     5229.901        3.239        1.377      192.840       74.979        0.151      345.916       23.785      861.827
05/03/2013  13:57:00        7.251      253.010      -18.678       61.892      106.927       59.446     3830.576    11433.419     3533.797        4.160        0.940      253.114       64.193        0.064      345.632       23.297      861.849
05/03/2013  13:58:00      -24.144      137.157       -5.032       44.243       72.982       38.188     1957.463     5326.316     1458.341        1.408        0.437      139.266       37.441        0.072      345.854       23.681      861.847
05/03/2013  13:59:00       51.240       65.790       17.200       72.288       80.859       51.130     5225.620     6538.100     2614.228        1.081        0.719       83.390       47.612        0.326      346.024       23.974      861.808
05/03/2013  14:00:00        6.262      173.236      -10.388       47.136      101.527       53.311     2221.800    10307.743     2842.086        2.276        0.769      173.349       56.910        0.108      346.088       24.081      861.798
05/03/2013  14:01:00     -104.123      153.191      -28.497      116.539       79.391       50.742    13581.277     6302.993     2574.729        2.879        1.123      185.227       45.939        0.062      346.149       24.186      861.797
05/03/2013  14:02:00      -50.273      290.391      -40.530       69.457      111.555       45.990     4824.270    12444.619     2115.084        5.394        0.969      294.711       46.483        0.025      345.859       23.688      861.792
05/03/2013  14:03:00      -26.186      440.088      -57.962       71.107      113.182       40.884     5056.189    12810.155     1671.497       10.863        0.977      440.866       48.047        0.012      345.578       23.206      861.796
05/03/2013  14:04:00        7.684      253.642      -31.938       45.844       87.763       35.564     2101.697     7702.292     1264.820        3.824        0.553      253.758       36.886        0.021      345.526       23.115      861.782
05/03/2013  14:05:00      -69.160      172.586      -11.019       51.296       61.535       41.142     2631.310     3786.524     1692.689        2.140        0.406      185.928       36.663        0.039      345.811       23.608      861.762
05/03/2013  14:06:00       91.645      137.639       19.195      125.626       91.297       60.650    15781.850     8335.052     3678.384        2.775        1.390      165.358       61.926        0.140      345.976       23.891      861.755
05/03/2013  14:07:00      193.268      140.947       65.161      178.075      112.722      114.590    31710.639    12706.292    13130.857        5.950        2.877      239.204       77.038        0.104      346.022       23.967      861.699
05/03/2013  14:08:00      234.545      175.847        9.188      148.189      119.593       71.628    21959.982    14302.586     5130.584        6.370        2.070      293.144       52.802        0.032      345.850       23.674      861.720
05/03/2013  14:09:00      137.591      109.708       38.048      106.587       49.784       52.869    11360.696     2478.436     2795.122        2.452        0.832      175.975       32.469        0.034      345.771       23.537      861.707
05/03/2013  14:10:00      -54.447       59.161      -29.456      127.694       82.541       31.467    16305.846     6813.074      990.141        1.572        1.205       80.402       25.490        0.101      345.889       23.743      861.673
05/03/2013  14:11:00      -85.638       79.520       -2.043       62.987       69.244       39.086     3967.417     4794.687     1527.744        1.197        0.514      116.864       39.400        0.114      346.119       24.137      861.607
05/03/2013  14:12:00      -98.254      -29.697      -41.125       81.238       53.440       36.607     6599.689     2855.849     1340.060        1.151        0.540      102.644       14.799        0.021      346.117       24.133      861.588
05/03/2013  14:13:00      -92.042      152.395      -45.561       83.471       91.260       41.781     6967.418     8328.463     1745.615        2.540        0.852      178.034       44.153        0.062      345.833       23.643      861.547
05/03/2013  14:14:00      -44.280      -52.445      -22.287      137.518       72.214       35.751    18911.148     5214.867     1278.107        1.530        1.270       68.638       43.957        0.410      345.852       23.677      861.529
05/03/2013  14:15:00     -298.320      -68.831      -18.678      124.945       89.060       47.738    15611.248     7931.709     2278.911        5.995        1.291      306.157       44.917        0.022      346.014       23.953      861.510
05/03/2013  14:16:00     -252.162        3.666      -39.576      118.793      119.261       59.851    14111.862    14223.260     3582.160        4.854        1.596      252.188       53.194        0.044      346.558       24.888      861.512
05/03/2013  14:17:00     -106.114      -52.732        2.997      147.195       83.640       50.276    21666.452     6995.689     2527.716        2.261        1.559      118.494       53.742        0.206      346.085       24.077      861.524
05/03/2013  14:18:00      -58.683      137.236        3.090       68.418      100.844       57.752     4680.975    10169.551     3335.339        2.023        0.909      149.256       47.576        0.102      346.211       24.294      861.506
05/03/2013  14:19:00     -111.609      167.830       -8.037       90.030       77.467       58.830     8105.421     6001.090     3461.009        2.912        0.878      201.552       55.069        0.075      346.409       24.633      861.536
05/03/2013  14:20:00     -114.141      134.010      -13.411       68.624       90.450       52.054     4709.218     8181.176     2709.571        2.338        0.780      176.031       47.856        0.074      346.534       24.849      861.551
05/03/2013  14:21:00      -64.803      131.983       -5.002       63.057       78.024       46.702     3976.232     6087.801     2181.049        1.694        0.612      147.034       33.351        0.051      346.389       24.599      861.538
05/03/2013  14:22:00      -72.191      179.685      -14.216       99.812      149.327       63.263     9962.526    22298.574     4002.237        3.698        1.813      193.644       60.115        0.096      346.477       24.749      861.532
05/03/2013  14:23:00     -269.772       90.467      -30.138      103.788      112.448       56.138    10772.027    12644.630     3151.480        5.421        1.328      284.537       58.441        0.042      346.098       24.098      861.548
05/03/2013  14:24:00     -102.432       98.687       -4.079      107.439      137.136       55.217    11543.213    18806.348     3048.903        2.682        1.670      142.238       58.625        0.170      346.338       24.513      861.532
05/03/2013  14:25:00      -13.441      100.599        5.863       46.430       63.479       39.341     2155.767     4029.524     1547.742        0.903        0.387      101.493       35.156        0.120      346.175       24.234      861.508
05/03/2013  14:26:00      181.968      127.885       18.654      116.431       79.584       58.472    13556.081     6333.670     3419.021        3.656        1.165      222.412       30.953        0.019      346.079       24.066      861.479
05/03/2013  14:27:00      220.881      150.161       40.285      139.857       82.972       71.169    19560.070     6884.286     5065.005        5.223        1.575      267.089       74.010        0.077      346.000       23.929      861.426
05/03/2013  14:28:00      196.413      115.659       29.339       82.792       61.429       62.123     6854.471     3773.562     3859.303        3.365        0.724      227.936       57.814        0.064      346.012       23.950      861.411
05/03/2013  14:29:00      188.059      128.310       46.878       79.721       60.126       68.999     6355.361     3615.101     4760.908        3.438        0.737      227.661       53.912        0.056      345.804       23.593      861.382
05/03/2013  14:30:00      108.332       69.093       16.845       70.825       54.645       58.965     5016.138     2986.099     3476.909        1.413        0.574      128.490       20.524        0.026      345.848       23.671      861.353
05/03/2013  14:31:00      -14.534       24.609       23.289       68.977       37.993       31.639     4757.776     1443.440     1001.032        0.428        0.360       28.580       33.327        1.360      346.473       24.745      861.359
05/03/2013  14:32:00     -216.301      -23.609      -18.246      111.685       65.444       56.346    12473.510     4282.928     3174.817        3.380        0.997      217.586       62.366        0.082      346.569       24.909      861.350
05/03/2013  14:33:00     -158.150      -50.575      -17.026      222.180      123.698       67.138    49363.959    15301.182     4507.455        4.850        3.459      166.040       99.284        0.358      346.485       24.765      861.338
05/03/2013  14:34:00     -222.430      307.835      -54.058      192.212      128.989       72.678    36945.447    16638.181     5282.150       10.300        2.943      379.786       93.363        0.060      346.001       23.932      861.392
05/03/2013  14:35:00      -80.233      125.818      -10.805       48.779      102.446       38.169     2379.359    10495.237     1456.858        1.836        0.717      149.223       29.563        0.039      345.988       23.912      861.418
05/03/2013  14:36:00      -34.626      186.441      -16.927       67.445       85.655       44.130     4548.770     7336.861     1947.493        2.504        0.692      189.629       42.864        0.051      345.748       23.498      861.402
05/03/2013  14:37:00      -74.151      209.233      -30.947      112.876      104.493       54.169    12740.999    10918.834     2934.308        3.841        1.330      221.984       59.522        0.072      346.010       23.947      861.418
05/03/2013  14:38:00       28.149      305.788      -33.899       80.542      165.689       66.534     6486.987    27452.895     4426.747        6.690        1.918      307.081       79.807        0.068      346.208       24.288      861.410
05/03/2013  14:39:00      -57.502      160.223      -21.614      101.954      110.304       63.015    10394.560    12166.924     3970.873        2.798        1.327      170.229       57.567        0.114      346.390       24.601      861.421
05/03/2013  14:40:00     -298.794      107.275      -51.192      132.454      206.628       65.685    17544.167    42695.023     4314.517        8.397        3.228      317.468       62.430        0.039      346.266       24.387      861.431
05/03/2013  14:41:00      -47.656      311.235      -28.993      107.926      123.456       68.239    11647.965    15241.505     4656.510        6.576        1.577      314.863       58.307        0.034      345.979       23.895      861.466
05/03/2013  14:42:00       -9.917      137.943       -5.404       99.023      147.564       66.038     9805.553    21775.251     4361.057        2.754        1.797      138.299       68.765        0.247      346.029       23.980      861.428
05/03/2013  14:43:00     -144.308      368.307      -60.634      115.348      190.323       52.262    13305.092    36222.685     2731.349       10.620        2.613      395.569       66.819        0.029      345.621       23.279      861.487
05/03/2013  14:44:00     -107.741      249.596      -37.780      127.132       93.670       55.200    16162.470     8774.098     3046.991        5.165        1.399      271.857       53.996        0.039      345.736       23.477      861.487
05/03/2013  14:45:00      -13.685      133.018       -6.246       39.181      100.153       45.344     1535.141    10030.566     2056.106        1.577        0.681      133.720       50.600        0.143      345.816       23.615      861.435
05/03/2013  14:46:00     -164.157       92.340      -18.996       72.213       89.544       36.593     5214.678     8018.172     1339.051        2.520        0.729      188.346       36.312        0.037      345.869       23.707      861.393
05/03/2013  14:47:00      -89.916       29.761      -11.200       79.383       55.198       33.249     6301.601     3046.790     1105.471        0.977        0.523       94.713       28.386        0.090      345.780       23.556      861.368
05/03/2013  14:48:00       15.298       41.769       -7.085       46.529       32.906       35.623     2164.916     1082.774     1268.991        0.327        0.226       44.482       18.417        0.171      346.111       24.125      861.334
05/03/2013  14:49:00       83.440      -42.004       41.101       96.049      132.634       83.444     9225.388    17591.828     6962.956        2.209        1.689       93.416       93.320        0.998      345.869       23.706      861.330
05/03/2013  14:50:00        4.043      -31.103        9.680       42.403       56.634       42.801     1798.019     3207.418     1831.933        0.396        0.342       31.364       43.886        1.958      345.856       23.684      861.316
05/03/2013  14:51:00      -50.268      -85.336       -5.209       70.428       70.402       34.582     4960.058     4956.393     1195.934        1.047        0.556       99.041       37.176        0.141      346.119       24.137      861.255
05/03/2013  14:52:00       65.495     -215.217      -16.426      114.994       80.496       55.954    13223.630     6479.585     3130.897        3.685        1.142      224.962       48.626        0.047      345.808       23.599      861.214
05/03/2013  14:53:00      -19.968      -69.593       14.764       63.802       83.845       47.936     4070.666     7030.025     2297.814        0.943        0.670       72.401       27.419        0.143      346.366       24.562      861.189
05/03/2013  14:54:00       15.292       -9.738       25.098       50.139       85.924       49.657     2513.908     7382.963     2465.805        0.666        0.618       18.130       30.139        2.764      346.309       24.463      861.194
05/03/2013  14:55:00       46.788       -2.604       74.534       57.161       96.112       64.149     3267.420     9237.539     4115.113        1.218        0.831       46.861       55.496        1.402      346.166       24.219      861.169
05/03/2013  14:56:00       30.808       30.200       81.169       34.205       41.495       25.278     1169.989     1721.846      638.970        0.599        0.177       43.141       20.308        0.222      346.622       25.001      861.167
05/03/2013  14:57:00       90.087       64.482       24.139       37.852       46.617       41.215     1432.795     2173.178     1698.669        0.908        0.265      110.786       29.067        0.069      346.158       24.205      861.200
05/03/2013  14:58:00       38.958      200.072      -14.632       73.422      135.500       53.045     5390.773    18360.243     2813.742        3.416        1.328      203.830       53.966        0.070      346.084       24.076      861.216
05/03/2013  14:59:00      197.938      116.258       21.739      123.559       82.237       70.150    15266.889     6762.994     4920.955        4.005        1.348      229.555       45.189        0.039      346.234       24.332      861.166
05/03/2013  15:00:00      327.323      187.314       30.781      181.980      127.787       83.285    33116.634    16329.568     6936.345        9.977        2.819      377.130       82.977        0.048      346.162       24.209      861.121
05/03/2013  15:01:00      278.534      185.565        6.260      109.718       90.401       71.927    12038.138     8172.301     5173.457        6.872        1.269      334.688       59.020        0.031      345.764       23.523      861.121
05/03/2013  15:02:00      190.572      126.444       15.002       54.637       52.752       41.479     2985.241     2782.784     1720.515        3.001        0.374      228.705       26.554        0.013      345.570       23.191      861.050
05/03/2013  15:03:00      101.101       94.485       12.786       92.003       79.205       48.608     8464.514     6273.367     2362.715        1.820        0.855      138.379       42.760        0.095      346.027       23.977      861.034
05/03/2013  15:04:00      234.853      136.391       33.065      131.665      102.616       93.368    17335.646    10530.110     8717.657        5.571        1.829      271.585       44.545        0.027      346.143       24.174      861.023
05/03/2013  15:05:00      256.042      167.503       71.276      177.190      156.785       96.180    31396.320    24581.563     9250.584        8.195        3.261      305.965       57.163        0.035      346.316       24.473      861.005
05/03/2013  15:06:00      221.859      176.120       31.316      184.914      138.251       89.708    34193.160    19113.359     8047.536        7.128        3.068      283.266       54.614        0.037      346.420       24.652      861.017
05/03/2013  15:07:00      365.407      211.389       44.912      168.881      111.722      101.173    28520.914    12481.706    10235.901       11.572        2.562      422.146       85.160        0.041      346.254       24.365      861.002
05/03/2013  15:08:00      303.163      177.328       28.285      168.926      119.760       87.256    28535.926    14342.383     7613.635        8.731        2.525      351.216       52.906        0.023      346.185       24.246      861.006
05/03/2013  15:09:00      261.294      183.724       58.520      132.929      112.006       88.424    17670.006    12545.235     7818.773        7.174        1.902      319.420       75.021        0.055      346.190       24.256      860.982
05/03/2013  15:10:00      305.097      175.177       47.234      117.230       94.884       81.607    13742.804     9002.896     6659.745        7.770        1.470      351.811       46.803        0.018      346.021       23.966      860.951
05/03/2013  15:11:00      354.331      209.034       50.288      152.819      113.886       98.927    23353.597    12969.962     9786.528       10.893        2.306      411.395       25.046        0.004      346.099       24.098      860.916
05/03/2013  15:12:00       98.391      203.419      -23.434      128.683      101.215       73.156    16559.365    10244.455     5351.820        4.188        1.608      225.965       60.823        0.072      346.210       24.290      860.983
05/03/2013  15:13:00        4.137      237.513      -11.853       77.413      117.640       66.696     5992.713    13839.205     4448.334        4.042        1.214      237.549       71.426        0.090      346.323       24.484      861.017
05/03/2013  15:14:00      -88.921      176.477      -21.035       84.618      121.894       55.098     7160.250    14858.193     3035.820        3.227        1.253      197.613       52.225        0.070      346.463       24.726      861.031
05/03/2013  15:15:00     -185.984      166.552      -26.410       76.793       83.662       54.608     5897.186     6999.378     2982.083        3.945        0.794      249.659       43.513        0.030      346.037       23.993      861.006
05/03/2013  15:16:00     -154.438      196.224      -45.191       43.475       68.137       37.560     1890.096     4642.631     1410.788        3.617        0.397      249.710       20.630        0.007      345.894       23.746      860.983
05/03/2013  15:17:00      -48.476      120.012       -2.915       48.079       59.462       41.330     2311.633     3535.757     1708.166        1.216        0.378      129.433       28.593        0.049      346.151       24.190      860.959
05/03/2013  15:18:00       48.962      118.948       17.761      120.658       86.674       66.472    14558.431     7512.440     4418.527        2.167        1.324      128.631       43.073        0.112      346.207       24.288      860.980
05/03/2013  15:19:00       75.480      214.181      -18.710       80.166      115.103       70.705     6426.599    13248.674     4999.197        3.829        1.234      227.092       68.599        0.091      345.830       23.638      861.010
05/03/2013  15:20:00      100.088       81.363       43.360      103.187       81.150       76.336    10647.608     6585.312     5827.171        2.079        1.153      128.987       66.956        0.269      345.716       23.444      860.961
05/03/2013  15:21:00       11.226      -22.945       38.800       61.643       67.472       46.977     3799.867     4552.416     2206.802        0.636        0.528       25.544       25.938        1.031      345.954       23.854      860.902
05/03/2013  15:22:00       63.136      119.279      -10.912       94.251       69.515       44.669     8883.163     4832.330     1995.286        1.702        0.786      134.958       34.736        0.066      346.071       24.054      860.951
05/03/2013  15:23:00      -68.112      207.739      -27.170       60.029       74.174       47.077     3603.448     5501.709     2216.239        2.993        0.566      218.620       39.525        0.033      346.267       24.389      860.956
05/03/2013  15:24:00      -95.291      175.130      -25.576       72.607       73.564       50.264     5271.733     5411.623     2526.479        2.681        0.660      199.376       41.086        0.042      346.305       24.455      860.939
05/03/2013  15:25:00      -31.194      263.614      -21.377       63.320      126.254       45.484     4009.477    15939.980     2068.832        4.647        1.101      265.453       52.593        0.039      346.201       24.275      860.936
05/03/2013  15:26:00      -25.734      479.759      -65.447       67.747       91.091       38.236     4589.691     8297.597     1461.996       12.473        0.717      480.449       39.675        0.007      345.841       23.657      860.925
05/03/2013  15:27:00      -67.190      256.078      -34.703       63.191      113.966       42.604     3993.077    12988.256     1815.067        4.504        0.940      264.746       51.003        0.037      345.955       23.852      860.937
05/03/2013  15:28:00     -152.798        6.940      -36.656       80.973       82.931       45.632     6556.706     6877.502     2082.291        2.013        0.776      152.956       28.753        0.035      346.226       24.320      860.880
05/03/2013  15:29:00     -145.751      254.732      -26.586      143.417      145.857       62.300    20568.408    21274.328     3881.259        6.627        2.286      293.482       61.373        0.044      346.098       24.098      860.860
05/03/2013  15:30:00      -89.410      483.354      -60.350       75.184      137.571       63.594     5652.675    18925.663     4044.236       13.694        1.431      491.554       69.949        0.020      346.152       24.191      860.886
05/03/2013  15:31:00      -27.536      295.051      -31.124      116.476      140.674       63.414    13566.766    19789.190     4021.285        6.307        1.869      296.333       67.298        0.052      346.072       24.052      860.896
05/03/2013  15:32:00      -54.367      152.369      -17.362       93.516      151.056       54.841     8745.275    22817.964     3007.485        3.052        1.729      161.778       69.146        0.183      346.128       24.151      860.877
05/03/2013  15:33:00     -110.082      217.515      -38.440       69.805      130.610       46.675     4872.681    17059.075     2178.536        4.251        1.206      243.785       49.961        0.042      345.946       23.837      860.886
05/03/2013  15:34:00      -26.749      295.414      -28.648       68.925      121.763       48.167     4750.711    14826.326     2320.037        5.535        1.095      296.622       49.597        0.028      346.112       24.120      860.853
05/03/2013  15:35:00     -112.841      255.403      -34.209       87.369       79.727       45.889     7633.282     6356.348     2105.806        4.761        0.805      279.220       41.914        0.023      346.047       24.010      860.829
05/03/2013  15:36:00      -39.169      133.889       -4.037       70.016      110.394       53.666     4902.275    12186.923     2880.010        1.972        0.998      139.501       64.878        0.216      346.111       24.122      860.833
05/03/2013  15:37:00     -117.809      187.716      -33.525       63.245       81.442       41.362     3999.991     6632.765     1710.801        3.129        0.617      221.622       41.661        0.035      345.998       23.928      860.823
05/03/2013  15:38:00      -48.024      132.842       -7.185       53.051       58.959       45.093     2814.363     3476.222     2033.362        1.416        0.416      141.256       35.866        0.064      346.178       24.238      860.807
05/03/2013  15:39:00        4.285      204.403      -28.345       39.962       58.056       35.251     1596.945     3370.512     1242.646        2.441        0.311      204.448       33.790        0.027      345.803       23.592      860.791
05/03/2013  15:40:00      -41.105      132.441      -15.453       30.530       54.450       32.311      932.087     2964.843     1043.993        1.220        0.247      138.673       21.818        0.025      346.245       24.353      860.757
05/03/2013  15:41:00      -53.444       31.869       14.474       77.577      119.518       52.905     6018.144    14284.593     2798.895        1.359        1.155       62.225       55.603        0.799      346.562       24.898      860.723
05/03/2013  15:42:00       24.239       30.156        9.243       81.327       82.849       55.517     6614.109     6863.972     3082.152        0.907        0.828       38.690       44.329        1.313      346.418       24.650      860.712
05/03/2013  15:43:00      153.878      198.308        4.658      112.600      165.384       85.947    12678.656    27351.840     7386.878        5.521        2.371      251.007       90.459        0.130      346.191       24.257      860.730
05/03/2013  15:44:00      122.794      207.594      -13.127      115.390      128.509       79.312    13314.935    16514.633     6290.409        4.723        1.806      241.192       75.713        0.099      346.328       24.493      860.713
05/03/2013  15:45:00       17.249      267.507      -26.415       65.339      153.232       58.352     4269.212    23479.939     3404.986        5.185        1.558      268.063       81.017        0.091      345.996       23.923      860.697
05/03/2013  15:46:00       41.805      126.360      -10.453       88.855       83.876       55.213     7895.249     7035.181     3048.530        1.790        0.899      133.096       44.482        0.112      346.305       24.455      860.677
05/03/2013  15:47:00       93.443      144.098       -1.355      104.140       87.153       51.829    10845.109     7595.568     2686.267        2.531        1.056      171.744       55.770        0.105      346.254       24.366      860.652
05/03/2013  15:48:00      186.612      142.797       55.761      141.653      105.460       74.895    20065.540    11121.894     5609.235        4.755        1.840      234.979       60.236        0.066      346.515       24.815      860.632
05/03/2013  15:49:00      247.653      155.670       31.330      109.890       81.865       63.618    12075.893     6701.937     4047.226        5.468        1.141      292.515       53.573        0.034      346.087       24.079      860.617
05/03/2013  15:50:00      202.998      105.331       24.130       83.495       80.999       64.777     6971.479     6560.859     4196.030        3.530        0.886      228.698       32.073        0.020      346.384       24.591      860.608
05/03/2013  15:51:00      189.821       95.347       53.192      115.748       93.159       64.739    13397.589     8678.682     4191.158        3.711        1.313      212.422       50.249        0.056      346.169       24.220      860.607
05/03/2013  15:52:00      245.873      197.068       17.828      170.857      123.955      101.775    29192.206    15364.855    10358.249        7.725        2.746      315.102       57.022        0.033      346.307       24.455      860.609
05/03/2013  15:53:00       16.284      304.289       -2.997      138.407      214.944       86.479    19156.570    46201.104     7478.650        8.284        3.642      304.724      105.113        0.119      346.313       24.468      860.615
05/03/2013  15:54:00       97.347      453.462      -30.557      218.593      247.087      115.907    47783.025    61052.227    13434.544       16.913        6.113      463.794      128.004        0.076      346.245       24.350      860.613
05/03/2013  15:55:00      135.815      137.413       62.306      196.136      139.281      104.814    38469.152    19399.335    10986.043        5.502        3.443      193.205       83.374        0.186      346.431       24.670      860.619
05/03/2013  15:56:00       49.318      251.297      -17.026      119.558      166.742       94.813    14294.053    27803.028     8989.498        5.847        2.554      256.091       95.922        0.140      346.329       24.496      860.621
05/03/2013  15:57:00       20.294      395.607      -57.109      133.016      165.068       57.606    17693.228    27247.467     3318.432       10.421        2.413      396.128       54.107        0.019      346.407       24.629      860.614
05/03/2013  15:58:00      -93.225      530.005      -70.075       86.980      162.487       60.477     7565.500    26402.095     3657.436       16.606        1.881      538.142       68.075        0.016      346.144       24.175      860.659
05/03/2013  15:59:00      -90.566      472.291      -67.972      109.662      130.262       62.745    12025.689    16968.133     3936.959       13.440        1.647      480.896       63.248        0.017      345.983       23.900      860.671
05/03/2013  16:00:00      -24.734      323.633      -17.729      119.710      178.054       86.848    14330.545    31703.144     7542.495        7.961        2.679      324.577      109.823        0.114      346.189       24.253      860.668
05/03/2013  16:01:00      107.547      203.533       -2.898      126.825      149.618       79.034    16084.689    22385.609     6246.331        4.885        2.236      230.200       75.854        0.109      346.014       23.954      860.634
05/03/2013  16:02:00     -139.883      240.835      -40.232      112.488      103.891       57.437    12653.544    10793.306     3298.982        5.296        1.337      278.511       49.801        0.032      346.092       24.088      860.642
05/03/2013  16:03:00      -59.606      228.667      -30.036       56.241       74.436       34.756     3163.058     5540.734     1207.948        3.333        0.496      236.308       30.915        0.017      345.883       23.729      860.618
05/03/2013  16:04:00       23.875      148.914        1.832       83.454       83.782       56.829     6964.640     7019.429     3229.522        1.998        0.861      150.816       53.658        0.127      346.197       24.269      860.606
05/03/2013  16:05:00       57.162      180.685       -9.308       74.095      124.521       69.584     5490.024    15505.494     4841.978        3.091        1.292      189.511       78.773        0.173      346.173       24.229      860.596
05/03/2013  16:06:00       -6.290      270.511      -33.592       54.032       80.156       45.282     2919.463     6424.964     2050.419        4.287        0.570      270.584       46.987        0.030      345.846       23.665      860.580
05/03/2013  16:07:00      113.899      108.801       26.872      105.129       93.667       61.580    11052.108     8773.548     3792.148        2.457        1.181      157.514       50.460        0.103      345.995       23.923      860.557
05/03/2013  16:08:00      104.025      202.373        5.845      120.083      208.058       89.818    14419.838    43288.131     8067.199        5.878        3.289      227.544       96.177        0.179      346.154       24.195      860.552
05/03/2013  16:09:00      104.891      232.037       -5.754      135.798      138.864      106.535    18441.201    19283.269    11349.802        5.697        2.454      254.644       89.234        0.123      346.225       24.315      860.574
05/03/2013  16:10:00       85.788      390.692      -45.086       86.397      205.154       87.913     7464.359    42088.084     7728.709       10.965        2.864      400.000      109.253        0.075      345.899       23.757      860.569
05/03/2013  16:11:00      219.699      242.478       11.409      159.288      132.365      110.303    25372.659    17520.408    12166.858        8.112        2.753      327.205       88.889        0.074      345.901       23.760      860.531
05/03/2013  16:12:00      195.014      245.129        5.199      177.895      142.964       97.380    31646.678    20438.827     9482.920        7.985        3.078      313.239       72.699        0.054      346.088       24.081      860.493
05/03/2013  16:13:00      277.684      334.416       -7.307      244.156      156.813      124.249    59611.927    24590.238    15437.780       14.430        4.982      434.675      103.178        0.056      346.028       23.978      860.467
05/03/2013  16:14:00      250.199      137.515       47.878      213.229      139.450       96.573    45466.430    19446.340     9326.308        7.901        3.712      285.500       43.738        0.023      346.369       24.564      860.460
05/03/2013  16:15:00       38.455      235.530      -23.181      139.948      196.289       72.537    19585.447    38529.402     5261.636        6.042        3.169      238.649       86.553        0.132      346.215       24.299      860.525
05/03/2013  16:16:00      -34.786      505.655      -72.016      101.743      127.535       52.392    10351.579    16265.086     2744.908       14.572        1.468      506.850       55.150        0.012      346.008       23.944      860.583
05/03/2013  16:17:00      -37.515      403.229      -57.318      106.249       90.872       51.170    11288.753     8257.798     2618.402        9.472        1.108      404.971       43.237        0.011      345.878       23.720      860.584
05/03/2013  16:18:00       76.508      268.765      -25.386       88.864      115.410       80.085     7896.799    13319.372     6413.536        5.318        1.381      279.442       76.071        0.074      345.991       23.914      860.542
05/03/2013  16:19:00       68.353      274.660      -27.906       97.237      187.919       87.738     9454.972    35313.606     7697.923        6.667        2.623      283.037      106.618        0.142      346.052       24.018      860.506
05/03/2013  16:20:00      131.640       61.743       43.466      136.677       97.594       69.223    18680.568     9524.618     4791.873        2.801        1.650      145.400       52.606        0.131      346.143       24.176      860.489
05/03/2013  16:21:00      -81.889      241.191      -29.525       97.421      136.710       49.660     9490.821    18689.526     2466.155        4.819        1.532      254.714       57.570        0.051      346.365       24.557      860.524
05/03/2013  16:22:00     -152.297      172.079      -34.480       97.427      107.615       56.894     9492.055    11581.055     3236.982        3.915        1.216      229.795       51.361        0.050      346.247       24.354      860.524
05/03/2013  16:23:00     -348.978      109.621      -42.468      132.278      117.290       66.967    17497.364    13756.987     4484.519        8.567        1.787      365.790       64.800        0.031      346.015       23.956      860.483
05/03/2013  16:24:00      -96.369      179.639      -24.444       87.375       87.938       57.988     7634.426     7733.127     3362.596        3.044        0.937      203.856       47.546        0.054      346.161       24.205      860.443
05/03/2013  16:25:00      -69.908      234.479      -13.503      130.953      166.623       80.275    17148.646    27763.320     6444.142        5.569        2.568      244.678       87.123        0.127      346.212       24.293      860.444
05/03/2013  16:26:00      -70.296      283.034      -34.940      179.829      197.842       77.117    32338.542    39141.506     5947.065        8.184        3.871      291.633       91.197        0.098      346.292       24.432      860.465
05/03/2013  16:27:00      -44.772      394.329      -36.095      179.849      255.738       96.336    32345.665    65401.970     9280.530       13.290        5.351      396.863      117.607        0.088      346.402       24.620      860.457
05/03/2013  16:28:00     -105.381      494.382      -64.041      123.742      160.026       70.167    15312.176    25608.282     4923.438       15.272        2.292      505.489       67.269        0.018      346.012       23.950      860.512
05/03/2013  16:29:00      -30.189      262.708      -26.659      108.083      142.302       54.634    11681.904    20249.900     2984.893        5.277        1.746      264.437       64.956        0.060      346.226       24.319      860.498
05/03/2013  16:30:00        6.438      200.336      -23.074       77.132       75.049       48.670     5949.373     5632.365     2368.751        2.733        0.698      200.439       47.273        0.056      346.107       24.113      860.457
05/03/2013  16:31:00      -22.348      190.678        2.450       71.357      168.137       68.040     5091.783    28270.140     4629.505        3.742        1.900      191.983       91.829        0.229      346.394       24.607      860.437
05/03/2013  16:32:00      -44.301      182.816      -19.194      130.940      132.104       67.900    17145.347    17451.390     4610.423        3.747        1.960      188.107       76.165        0.164      346.470       24.739      860.457
05/03/2013  16:33:00      -27.011      371.611      -49.702      114.179      158.874       64.086    13036.784    25240.998     4106.973        9.183        2.119      372.592       64.805        0.030      346.237       24.336      860.447
05/03/2013  16:34:00      -40.449       82.035       -8.101       83.877       80.923       50.349     7035.288     6548.599     2534.980        1.227        0.806       91.465       51.501        0.317      346.426       24.664      860.435
05/03/2013  16:35:00      104.288      111.633       -3.685      157.260       98.163       70.278    24730.675     9635.970     4939.042        3.132        1.965      152.768       52.395        0.118      346.242       24.347      860.394
05/03/2013  16:36:00      179.364      119.063       22.129      103.325       98.445       70.514    10676.087     9691.391     4972.279        3.608        1.267      215.284       42.842        0.040      346.004       23.937      860.369
05/03/2013  16:37:00       83.457       41.733       25.684       60.404       63.817       49.313     3648.692     4072.615     2431.812        0.976        0.508       93.310       31.396        0.113      346.094       24.094      860.370
05/03/2013  16:38:00      155.405      148.522       17.982      147.076      117.108       71.893    21631.357    13714.244     5168.580        4.352        2.026      214.964       69.786        0.105      346.014       23.955      860.368
05/03/2013  16:39:00       72.260      221.338      -14.904      115.672      159.537       97.425    13379.963    25452.201     9491.555        5.137        2.416      232.835       94.759        0.166      346.212       24.294      860.375
05/03/2013  16:40:00       91.591      199.152      -27.166       89.008      127.823       61.261     7922.489    16338.844     3752.852        3.840        1.401      219.204       57.329        0.068      346.298       24.442      860.416
05/03/2013  16:41:00       34.341      145.352       13.049       61.114      153.236       59.900     3734.919    23481.154     3588.016        2.664        1.540      149.354       75.641        0.256      346.129       24.153      860.403
05/03/2013  16:42:00      214.697      141.653       33.098      136.827       97.848       59.450    18721.533     9574.183     3534.359        4.954        1.592      257.217       42.345        0.027      346.255       24.366      860.413
05/03/2013  16:43:00      400.589      256.366       79.716      163.824      133.639      104.218    26838.362    17859.487    10861.371       14.405        2.778      475.599       71.368        0.023      345.904       23.766      860.392
05/03/2013  16:44:00      380.636      217.345       24.711      193.046      119.334       83.981    37266.609    14240.691     7052.810       12.564        2.928      438.317       51.419        0.014      345.981       23.897      860.444
05/03/2013  16:45:00      273.382      175.720       40.436      160.765      105.714       78.122    25845.299    11175.550     6103.013        7.518        2.156      324.985       36.792        0.013      345.839       23.653      860.426
05/03/2013  16:46:00      168.330      184.429        9.638      137.786      105.886       73.049    18984.923    11211.760     5336.181        4.898        1.777      249.698       60.545        0.059      345.990       23.913      860.425
05/03/2013  16:47:00      132.009      230.995       -6.013      158.070      140.769       91.519    24986.075    19815.787     8375.819        6.199        2.659      266.055       85.532        0.103      345.907       23.770      860.393
05/03/2013  16:48:00      204.258      150.719       29.511      150.265       94.191       76.102    22579.580     8871.998     5791.562        5.127        1.862      253.846       53.018        0.044      346.054       24.023      860.358
05/03/2013  16:49:00       18.501       57.582       44.331       85.738       77.337       81.267     7350.985     5980.966     6604.382        1.278        0.997       60.481       56.942        0.886      345.725       23.460      860.327
05/03/2013  16:50:00      -54.363      124.917      -22.510       67.830       65.232       37.258     4600.884     4255.274     1388.192        1.465        0.512      136.233       31.846        0.055      346.229       24.326      860.354
05/03/2013  16:51:00        5.813       69.068        0.732       36.124       73.348       33.276     1304.952     5379.994     1107.294        0.630        0.390       69.312       35.897        0.268      346.272       24.400      860.332
05/03/2013  16:52:00       18.526      277.838      -34.829       80.793      115.002       55.116     6527.582    13225.496     3037.725        5.077        1.140      278.455       57.033        0.042      346.214       24.298      860.311
05/03/2013  16:53:00      -28.608      383.669      -31.195      154.258      190.426       75.796    23795.528    36262.122     5744.992       10.739        3.290      384.734       98.174        0.065      346.150       24.187      860.295
05/03/2013  16:54:00      336.440      238.344       61.038      163.968      125.860      102.402    26885.607    15840.659    10486.192       11.346        2.661      412.310       43.387        0.011      346.161       24.205      860.287
05/03/2013  16:55:00      212.682      160.289       40.951      129.048       91.830       72.109    16653.359     8432.825     5199.739        5.144        1.514      266.320       42.911        0.026      346.169       24.219      860.300
05/03/2013  16:56:00       34.928      157.622      -12.593       86.187       95.712       50.202     7428.197     9160.814     2520.242        2.266        0.955      161.445       44.578        0.076      346.179       24.238      860.298
05/03/2013  16:57:00       39.124      165.788      -16.992       78.825       80.854       49.603     6213.340     6537.379     2460.490        2.226        0.761      170.342       45.356        0.071      346.149       24.187      860.308
05/03/2013  16:58:00      277.947      162.951       31.972      124.619       93.022       70.445    15529.980     8653.136     4962.473        6.698        1.457      322.191       56.618        0.031      346.188       24.252      860.286
05/03/2013  16:59:00      296.798      202.283       66.487      195.997      100.450      102.741    38414.662    10090.200    10555.652        9.623        2.953      359.176       76.441        0.045      346.112       24.122      860.274
05/03/2013  17:00:00      331.669      220.181       79.740      180.619      105.995      102.353    32623.159    11235.019    10476.048       10.958        2.717      398.101       67.593        0.029      345.976       23.888      860.231
05/03/2013  17:01:00      295.747      190.700       46.062      153.431      111.311       88.062    23541.153    12390.047     7754.989        8.481        2.184      351.899       40.482        0.013      345.926       23.802      860.213
05/03/2013  17:02:00      223.547      136.390       31.167      131.210      105.096       74.595    17216.134    11045.174     5564.463        5.168        1.691      261.869       49.042        0.035      346.020       23.963      860.211
05/03/2013  17:03:00      154.663      135.321       10.835      118.972       83.717       61.770    14154.367     7008.556     3815.584        3.366        1.249      205.505       35.228        0.029      346.050       24.016      860.207
05/03/2013  17:04:00      227.837      161.981       20.433      110.212       90.925       75.544    12146.755     8267.384     5706.883        5.234        1.306      279.548       33.605        0.014      346.223       24.312      860.218
05/03/2013  17:05:00      346.577      258.053       34.951      202.526      131.578      105.996    41016.790    17312.674    11235.075       12.873        3.478      432.096       64.944        0.023      346.148       24.183      860.241
05/03/2013  17:06:00      207.550      328.408      -10.816      233.876      180.663      112.401    54697.806    32639.151    12634.020       12.549        4.999      388.496      114.973        0.088      346.149       24.184      860.227
05/03/2013  17:07:00     -151.464      255.381      -34.917      113.244      135.164       64.892    12824.262    18269.421     4210.960        6.234        1.765      296.919       67.186        0.051      346.197       24.269      860.323
05/03/2013  17:08:00      -73.273      293.063      -26.047       91.267      111.923       62.541     8329.744    12526.813     3911.342        5.835        1.238      302.084       55.607        0.034      346.241       24.344      860.293
05/03/2013  17:09:00      -42.673      369.632      -36.774       72.859      137.379       54.032     5308.417    18872.937     2919.446        8.345        1.355      372.087       54.462        0.021      346.131       24.156      860.271
05/03/2013  17:10:00      -23.785      135.594      -10.029       75.255      107.046       63.305     5663.269    11458.799     4007.516        2.009        1.056      137.665       60.192        0.191      346.149       24.187      860.254
05/03/2013  17:11:00      -72.545      139.523        0.048       84.577      120.471       57.811     7153.301    14513.335     3342.163        2.486        1.250      157.256       61.379        0.152      346.391       24.602      860.242
05/03/2013  17:12:00     -108.555      207.972      -42.728      105.774       82.702       45.216    11188.081     6839.656     2044.446        3.846        1.004      234.599       38.898        0.027      346.262       24.379      860.288
05/03/2013  17:13:00      -21.169      137.987        0.162       89.286       84.755       53.778     7972.067     7183.331     2892.116        1.877        0.902      139.602       57.157        0.168      346.402       24.623      860.271
05/03/2013  17:14:00      -40.567      209.648       -7.583       98.146      162.179       67.531     9632.605    26301.981     4560.471        4.307        2.025      213.537       74.011        0.120      346.452       24.706      860.275
05/03/2013  17:15:00       30.936      190.530      -12.473       80.879      139.774       74.659     6541.466    19536.720     5573.905        3.453        1.583      193.025       82.357        0.182      346.169       24.219      860.280
05/03/2013  17:16:00       -0.004      372.124      -53.580       82.684      113.180       52.185     6836.576    12809.604     2723.321        8.185        1.118      372.124       59.556        0.026      345.986       23.904      860.242
05/03/2013  17:17:00      102.206      259.528      -20.943      138.631      144.570      113.973    19218.504    20900.399    12989.735        6.567        2.655      278.928       99.926        0.128      346.225       24.316      860.186
05/03/2013  17:18:00      -17.142      461.986      -57.907       98.258      170.126       62.936     9654.678    28942.874     3960.917       12.981        2.128      462.304       71.702        0.024      346.102       24.105      860.252
05/03/2013  17:19:00        1.407      448.649      -63.941      137.431      168.354       75.877    18887.268    28343.004     5757.281       12.917        2.649      448.652       85.390        0.036      346.115       24.129      860.267
05/03/2013  17:20:00       54.704      420.465      -40.564      108.703      279.798       95.425    11816.324    78287.173     9105.863       14.030        4.960      424.008      128.207        0.091      345.960       23.861      860.259
05/03/2013  17:21:00      125.796      320.294      -14.359      124.429      251.359      112.927    15482.694    63181.234    12752.502       10.500        4.571      344.111      135.308        0.155      345.968       23.874      860.248
05/03/2013  17:22:00      180.930      167.842       24.919      160.396      116.871       86.676    25726.855    13658.857     7512.743        5.421        2.345      246.793       73.036        0.088      346.017       23.959      860.230
05/03/2013  17:23:00      151.036      315.058      -44.978      141.666      172.103       91.212    20069.173    29619.523     8319.645        9.104        2.900      349.390       91.374        0.068      345.969       23.878      860.218
05/03/2013  17:24:00      256.836      215.448       27.038      155.260      121.664       93.784    24105.710    14802.148     8795.357        8.040        2.385      335.235       71.908        0.046      345.896       23.751      860.219
05/03/2013  17:25:00      103.228      317.587      -19.406      142.608      217.762      102.315    20337.175    47420.392    10468.431        9.505        3.911      333.942      113.132        0.115      345.871       23.709      860.240
05/03/2013  17:26:00       99.247      214.093      -23.155      119.928       93.066       74.785    14382.696     8661.293     5592.778        4.242        1.432      235.979       61.299        0.067      345.935       23.818      860.241
05/03/2013  17:27:00       30.439      117.851       -2.894       55.975       79.308       46.476     3133.224     6289.755     2160.024        1.320        0.579      121.719       41.486        0.116      346.066       24.045      860.236
05/03/2013  17:28:00      136.575       89.941       27.624      108.824       70.953       51.032    11842.571     5034.346     2604.279        2.349        0.974      163.530       49.611        0.092      346.023       23.972      860.217
05/03/2013  17:29:00      236.194      206.220       22.005      158.509      124.675       83.541    25125.233    15543.750     6979.027        7.322        2.382      313.551       64.768        0.043      346.044       24.006      860.185
05/03/2013  17:30:00      156.451      148.890       16.331      116.965      132.626       90.475    13680.696    17589.554     8185.695        4.318        1.973      215.974       74.346        0.118      346.124       24.142      860.208
05/03/2013  17:31:00      159.289      143.833       20.951      136.552      114.272       70.336    18646.572    13058.098     4947.199        4.157        1.833      214.618       51.599        0.058      346.060       24.033      860.208
05/03/2013  17:32:00       18.911      228.452      -28.440       93.005      131.915       51.860     8649.847    17401.440     2689.470        4.104        1.437      229.233       62.941        0.075      346.134       24.162      860.199
05/03/2013  17:33:00      193.818      249.204      -17.691      190.304      143.935      113.025    36215.705    20717.189    12774.667        8.483        3.485      315.703       83.570        0.070      346.012       23.950      860.181
05/03/2013  17:34:00      348.026      268.394       43.358      189.131      157.060      112.130    35770.652    24667.790    12573.237       13.401        3.651      439.497       63.229        0.021      346.033       23.987      860.134
05/03/2013  17:35:00      219.429      233.315       -8.534      159.054      141.155       86.863    25298.293    19924.859     7545.224        7.770        2.638      320.289       81.658        0.065      346.097       24.095      860.158
05/03/2013  17:36:00      126.101      346.477      -44.434      128.668      192.694       98.056    16555.356    37130.867     9614.896       10.060        3.165      368.711       91.094        0.061      346.094       24.091      860.207
05/03/2013  17:37:00        9.077      261.258      -21.895       65.370      143.974       57.481     4273.276    20728.573     3304.038        4.856        1.415      261.416       73.836        0.080      346.027       23.977      860.248
05/03/2013  17:38:00      -23.815      137.340      -23.836       62.290      122.409       46.723     3880.071    14983.849     2183.071        2.052        1.052      139.389       59.850        0.184      346.221       24.311      860.234
05/03/2013  17:39:00       -6.918      109.201        1.423       88.969       89.131       58.954     7915.567     7944.406     3475.526        1.565        0.967      109.420       55.083        0.253      346.157       24.201      860.192
05/03/2013  17:40:00      102.518      241.544       -6.297      203.674      128.934       66.392    41483.072    16623.948     4407.874        6.569        3.126      262.400       67.536        0.066      346.018       23.958      860.187
05/03/2013  17:41:00      213.492      140.776       19.742       93.850       73.127       62.127     8807.802     5347.512     3859.749        4.190        0.901      255.728       40.355        0.025      345.825       23.630      860.163
05/03/2013  17:42:00      208.611      151.321       15.532      114.300       76.147       61.942    13064.495     5798.384     3836.822        4.467        1.135      257.714       51.764        0.040      345.809       23.602      860.115
05/03/2013  17:43:00      290.773      198.172       49.070      166.628      141.695      105.116    27764.921    20077.535    11049.350        9.255        2.945      351.883       60.272        0.029      345.831       23.640      860.081
05/03/2013  17:44:00      408.331      340.373       29.754      260.962      196.688      143.684    68101.301    38686.097    20645.068       20.543        6.372      531.590      108.112        0.041      345.933       23.815      860.075
05/03/2013  17:45:00      211.287      262.369       17.934      167.255      150.335      115.411    27974.329    22600.541    13319.623        8.884        3.195      336.868       98.833        0.086      345.990       23.912      860.141
05/03/2013  17:46:00      100.523      249.652      -29.731      103.665      128.925       71.484    10746.366    16621.717     5110.010        5.289        1.624      269.130       74.815        0.077      346.060       24.032      860.181
05/03/2013  17:47:00       36.497      133.836       -5.757       66.877       90.308       58.830     4472.482     8155.585     3460.920        1.768        0.804      138.723       57.360        0.171      346.171       24.224      860.182
05/03/2013  17:48:00       10.321      214.293      -19.412       61.344      141.089       54.835     3763.078    19906.138     3006.844        3.654        1.334      214.541       72.970        0.116      346.186       24.252      860.186
05/03/2013  17:49:00      -58.913      234.814      -41.240       86.284      120.585       41.402     7444.921    14540.660     1714.111        4.200        1.185      242.091       46.022        0.036      345.983       23.901      860.188
05/03/2013  17:50:00      -41.154      184.859      -28.838       49.295       61.552       33.342     2429.971     3788.655     1111.688        2.201        0.367      189.385       31.805        0.028      346.046       24.010      860.185
05/03/2013  17:51:00      -93.734      245.541      -36.410       49.066       80.902       38.767     2407.512     6545.114     1502.909        4.043        0.523      262.825       35.094        0.018      345.983       23.898      860.194
05/03/2013  17:52:00     -139.348      183.422      -27.162       95.447       93.258       44.548     9110.132     8697.142     1984.557        3.679        0.990      230.351       49.704        0.047      346.166       24.215      860.180
05/03/2013  17:53:00      -49.600      100.215      -10.173       51.502       43.527       27.916     2652.447     1894.578      779.330        0.897        0.266      111.818       22.230        0.040      346.045       24.010      860.140
05/03/2013  17:54:00       -4.948       31.024       20.247       37.173       28.720       21.249     1381.815      824.810      451.519        0.203        0.133       31.416       19.963        0.404      346.208       24.290      860.116
05/03/2013  17:55:00     -190.814       92.120      -36.549       85.137      116.404       47.449     7248.329    13549.940     2251.389        3.464        1.152      211.887       57.450        0.074      346.219       24.305      860.092
05/03/2013  17:56:00      -80.120      205.238      -16.375       72.488       86.144       53.902     5254.505     7420.758     2905.475        3.219        0.779      220.322       47.651        0.047      346.017       23.960      860.046
05/03/2013  17:57:00     -120.068      159.544      -26.064       67.966       69.875       39.749     4619.352     4882.506     1579.993        2.581        0.554      199.676       35.932        0.032      346.196       24.268      860.041
05/03/2013  17:58:00     -125.748      191.921      -34.127       77.441       84.575       50.529     5997.039     7152.972     2553.227        3.475        0.785      229.448       49.962        0.047      346.112       24.121      860.039
05/03/2013  17:59:00      -60.182      245.306      -16.024       79.841      103.638       59.055     6374.531    10740.909     3487.441        4.232        1.030      252.581       60.005        0.056      346.063       24.038      860.001
05/03/2013  18:00:00      -43.005      254.831       -5.233      102.987      180.240       75.182    10606.262    32486.377     5652.401        5.777        2.437      258.434       84.204        0.106      346.148       24.185      860.038
05/03/2013  18:01:00       45.480      280.962      -36.522       95.901      176.688       83.577     9197.088    31218.535     6985.115        6.486        2.370      284.619       83.452        0.086      345.927       23.805      860.046
05/03/2013  18:02:00      -36.933      343.644      -39.484       87.889      163.730       72.981     7724.555    26807.485     5326.214        8.043        1.993      345.624       87.365        0.064      345.862       23.693      860.030
05/03/2013  18:03:00       39.712      233.607      -16.672       91.581      112.949       54.448     8387.034    12757.519     2964.560        4.026        1.205      236.958       56.241        0.056      345.913       23.780      860.007
05/03/2013  18:04:00       43.334      245.731      -16.426       77.406      157.977       70.299     5991.732    24956.791     4941.986        4.920        1.795      249.522       85.121        0.116      345.979       23.896      860.007
05/03/2013  18:05:00       21.701      247.208      -20.242      111.431      147.791       63.336    12416.826    21842.321     4011.404        5.012        1.914      248.158       68.160        0.075      345.949       23.843      859.992
05/03/2013  18:06:00       35.129      238.564      -25.143       91.241      121.896       67.544     8324.877    14858.624     4562.184        4.326        1.387      241.137       65.822        0.075      345.944       23.834      859.990
05/03/2013  18:07:00      -11.281      311.456      -20.326      118.516      135.895       61.108    14046.069    18467.344     3734.173        6.689        1.812      311.660       58.156        0.035      345.981       23.896      860.002
05/03/2013  18:08:00       30.594      229.875       -1.529      140.546      166.994       68.434    19753.242    27887.094     4683.240        5.304        2.616      231.902       70.677        0.093      346.068       24.048      860.004
05/03/2013  18:09:00       57.263      250.518      -27.321       90.522      181.348       60.142     8194.193    32886.925     3617.110        5.573        2.235      256.980       72.073        0.079      345.962       23.865      860.019
05/03/2013  18:10:00      111.360      129.279       19.844      120.580      141.915       79.937    14539.614    20139.866     6389.895        3.528        2.053      170.629       75.574        0.196      345.873       23.712      860.004
05/03/2013  18:11:00       84.665       91.238       15.850       93.103       74.942       66.303     8668.084     5616.322     4396.132        1.721        0.934      124.470       46.894        0.142      345.895       23.751      859.990
05/03/2013  18:12:00       67.639      166.356        2.710       86.266      119.931       63.917     7441.769    14383.328     4085.374        2.908        1.296      179.582       70.668        0.155      345.889       23.740      859.980
05/03/2013  18:13:00       73.775      107.237       22.258       88.941      109.694       72.425     7910.448    12032.691     5245.437        2.131        1.259      130.164       68.263        0.275      345.895       23.751      859.960
05/03/2013  18:14:00      134.817      136.744       20.393      124.697       98.480       66.605    15549.453     9698.387     4436.173        3.348        1.484      192.027       55.037        0.082      345.962       23.865      859.937
05/03/2013  18:15:00      192.513      137.296       25.834      123.111       89.784       77.285    15156.389     8061.183     5972.935        4.288        1.460      236.456       29.391        0.015      345.844       23.663      859.886
05/03/2013  18:16:00      -82.460       66.863      -34.165      247.353      262.288       82.745    61183.316    68795.059     6846.702        7.461        6.841      106.162       99.417        0.877      346.018       23.959      859.677
05/03/2013  18:17:00     -182.108      393.494      -57.970      146.909      138.324       65.721    21582.305    19133.654     4319.257       11.819        2.252      433.591       59.863        0.019      345.963       23.864      859.907
05/03/2013  18:18:00      -74.718      326.272      -29.532       87.603      136.970       68.104     7674.269    18760.871     4638.181        7.199        1.554      334.718       80.331        0.058      345.909       23.773      859.945
05/03/2013  18:19:00      -66.982      279.925      -30.134       58.466       62.894       37.391     3418.292     3955.700     1398.066        4.626        0.439      287.827       32.371        0.013      345.804       23.592      859.923
05/03/2013  18:20:00      -12.887      205.619      -21.066       43.486       79.629       32.232     1891.065     6340.846     1038.880        2.608        0.464      206.023       39.994        0.038      345.816       23.615      859.874
05/03/2013  18:21:00       50.195      120.348       13.524       63.685       68.712       53.168     4055.732     4721.390     2826.835        1.439        0.580      130.396       52.304        0.161      345.813       23.610      859.828
05/03/2013  18:22:00       44.846      130.407       -2.129       50.951       54.736       40.357     2595.984     2995.979     1628.701        1.312        0.361      137.902       33.698        0.060      345.882       23.732      859.814
05/03/2013  18:23:00       41.428      159.349      -24.131       43.326       75.974       43.144     1877.103     5772.054     1861.363        1.860        0.476      164.646       46.337        0.079      345.994       23.922      859.824
05/03/2013  18:24:00       69.296       81.118        9.173       67.799       62.908       45.519     4596.717     3957.367     2071.984        1.104        0.531      106.687       41.301        0.150      345.913       23.784      859.814
05/03/2013  18:25:00       33.268       86.160       -6.208       64.859       82.448       45.917     4206.679     6797.703     2108.343        1.084        0.656       92.360       44.287        0.230      345.905       23.770      859.814
05/03/2013  18:26:00      109.252      220.868       -7.210       86.907      126.875       85.779     7552.865    16097.326     7358.082        4.588        1.550      246.412       85.433        0.120      345.878       23.720      859.821
05/03/2013  18:27:00      162.142      228.016      -26.442      126.553      124.574       75.613    16015.584    15518.795     5717.262        5.811        1.863      279.788       74.226        0.070      345.824       23.628      859.783
05/03/2013  18:28:00       96.439      207.265      -13.379       89.565      131.344       83.191     8021.824    17251.191     6920.747        4.231        1.610      228.603       82.878        0.131      345.813       23.609      859.778
05/03/2013  18:29:00       84.679      190.499       -9.037       97.370      128.590       88.881     9480.842    16535.391     7899.912        3.872        1.696      208.472       82.471        0.156      345.842       23.660      859.764
05/03/2013  18:30:00       42.019      293.155      -27.550      137.254      142.909       74.539    18838.560    20422.898     5556.114        6.663        2.241      296.151       78.641        0.071      345.788       23.565      859.762
05/03/2013  18:31:00       27.049      276.993      -20.802      103.650      142.275       70.539    10743.385    20242.280     4975.724        5.692        1.798      278.311       73.932        0.071      345.722       23.454      859.717
05/03/2013  18:32:00      297.082      162.550       26.269      153.615      103.948       85.805    23597.594    10805.166     7362.449        7.856        2.088      338.644       30.783        0.008      345.731       23.468      859.694
05/03/2013  18:33:00      183.988      199.244        5.081      130.736      115.265       93.980    17091.909    13286.006     8832.158        5.639        1.961      271.200       65.566        0.058      345.801       23.587      859.698
05/03/2013  18:34:00       49.409      214.414       -7.090       76.694      166.905       72.029     5881.966    27857.236     5188.148        4.369        1.946      220.033       89.567        0.166      345.780       23.554      859.722
05/03/2013  18:35:00       43.367      171.978       -7.338       59.723       81.892       50.477     3566.845     6706.264     2547.913        2.216        0.641      177.362       50.512        0.081      345.790       23.573      859.717
05/03/2013  18:36:00       29.110      158.053      -11.457       57.692       81.761       41.609     3328.370     6684.882     1731.314        1.885        0.587      160.712       42.130        0.069      345.846       23.667      859.700
05/03/2013  18:37:00       79.116      144.228       -0.973       78.852       91.440       54.888     6217.636     8361.239     3012.673        2.232        0.880      164.503       49.239        0.090      345.817       23.617      859.716
05/03/2013  18:38:00       48.911      236.012      -37.628       59.433      108.914       48.016     3532.225    11862.266     2305.559        3.860        0.885      241.027       48.559        0.041      345.780       23.551      859.693
05/03/2013  18:39:00      -26.409      294.979      -25.570       84.172      142.243       61.599     7084.912    20233.120     3794.481        5.973        1.556      296.159       71.927        0.059      345.784       23.560      859.682
05/03/2013  18:40:00       86.941      268.977      -22.999      109.144      137.765       75.675    11912.341    18979.093     5726.658        5.852        1.831      282.678       72.954        0.067      345.754       23.509      859.686
05/03/2013  18:41:00       37.594      256.538      -37.156       72.033      104.216       60.435     5188.733    10860.888     3652.421        4.415        0.985      259.278       68.132        0.069      345.737       23.480      859.679
05/03/2013  18:42:00      -57.133      310.087      -25.583       98.012      132.010       64.735     9606.294    17426.730     4190.567        6.564        1.561      315.306       75.618        0.058      345.732       23.470      859.678
05/03/2013  18:43:00       -4.574      296.383      -33.123       82.984       86.873       48.488     6886.269     7546.991     2351.067        5.287        0.839      296.418       34.632        0.014      345.760       23.516      859.669
05/03/2013  18:44:00       30.644      369.345      -43.323       70.492      126.633       76.655     4969.064    16035.986     5875.923        8.305        1.344      370.614       77.523        0.044      345.678       23.376      859.660
05/03/2013  18:45:00       10.617      190.892       -4.489       65.600      114.956       55.961     4303.295    13214.904     3131.676        2.861        1.032      191.187       56.081        0.086      345.685       23.390      859.642
05/03/2013  18:46:00       62.009      291.786      -42.527       59.559       84.700       56.976     3547.322     7174.045     3246.231        5.238        0.698      298.302       46.355        0.024      345.694       23.403      859.643
05/03/2013  18:47:00       56.666      142.965       16.406       75.580      125.599       66.848     5712.371    15775.017     4468.694        2.493        1.298      153.785       49.449        0.103      345.730       23.469      859.648
05/03/2013  18:48:00      117.720      100.601       -0.674      104.018       61.926       48.787    10819.719     3834.862     2380.205        2.050        0.852      154.850       30.324        0.038      345.680       23.382      859.615
05/03/2013  18:49:00       96.440      156.527        9.388      125.701       91.389       67.339    15800.637     8351.918     4534.503        3.128        1.434      183.851       51.003        0.077      345.681       23.383      859.596
05/03/2013  18:50:00      113.650      165.495        4.621      102.377       99.153       79.791    10481.136     9831.288     6366.583        3.350        1.334      200.761       62.604        0.097      345.714       23.440      859.585
05/03/2013  18:51:00      134.258      216.840      -17.748      137.568      162.183       90.100    18925.037    26303.453     8118.010        5.934        2.667      255.039       70.971        0.077      345.683       23.385      859.572
05/03/2013  18:52:00      190.517      189.767       13.185      140.467       95.745       78.484    19730.847     9167.116     6159.666        5.376        1.753      268.902       63.128        0.055      345.674       23.369      859.562
05/03/2013  18:53:00       84.531      153.319       -5.783      102.823      124.701       81.953    10572.632    15550.266     6716.365        3.176        1.642      175.077       73.509        0.176      345.652       23.333      859.550
05/03/2013  18:54:00      127.608      109.141        8.175       99.284      101.422       66.166     9857.338    10286.427     4377.918        2.639        1.226      167.915       42.469        0.064      345.695       23.405      859.541
05/03/2013  18:55:00      138.438      151.530       15.056      125.698       97.148       61.346    15800.099     9437.754     3763.362        3.567        1.450      205.247       54.993        0.072      345.651       23.330      859.560
05/03/2013  18:56:00      162.691      127.420        2.558      140.377       82.140       68.731    19705.814     6746.938     4723.889        3.694        1.559      206.650       49.720        0.058      345.631       23.295      859.545
05/03/2013  18:57:00       74.502      193.739       -6.601       93.775      123.967       72.614     8793.793    15367.723     5272.824        3.628        1.472      207.570       71.783        0.120      345.613       23.264      859.546
05/03/2013  18:58:00       97.157      184.445       -2.055      108.102      113.980       61.760    11686.146    12991.377     3814.354        3.597        1.425      208.469       61.369        0.087      345.611       23.262      859.536
05/03/2013  18:59:00       36.923      191.726       -4.113       97.600      143.778       62.860     9525.817    20672.000     3951.356        3.614        1.707      195.249       73.985        0.144      345.613       23.266      859.535
05/03/2013  19:00:00      102.811      183.430        3.347       84.041      138.276       68.577     7062.894    19120.278     4702.829        3.755        1.544      210.278       67.915        0.104      345.595       23.235      859.526
05/03/2013  19:01:00       42.064      262.424      -26.296       89.093      145.019       69.252     7937.610    21030.376     4795.832        5.254        1.688      265.774       86.906        0.107      345.600       23.241      859.522
05/03/2013  19:02:00       21.952      290.061      -35.235       65.912       79.126       47.920     4344.381     6260.973     2296.348        4.938        0.645      290.890       44.232        0.023      345.573       23.195      859.519
05/03/2013  19:03:00       72.122      102.307        3.814       74.514       60.298       46.451     5552.284     3635.889     2157.705        1.351        0.567      125.173       35.429        0.080      345.568       23.191      859.522
05/03/2013  19:04:00       49.701      158.642       -2.039       80.107      112.027       75.683     6417.127    12549.954     5727.990        2.616        1.235      166.245       76.078        0.209      345.560       23.175      859.502
05/03/2013  19:05:00      160.835      108.280       24.717       97.639       70.866       51.540     9533.383     5022.048     2656.332        2.770        0.861      193.888       42.289        0.048      345.535       23.132      859.504
05/03/2013  19:06:00      191.454      134.139       16.851      113.797       78.854       54.089    12949.765     6217.894     2925.634        3.851        1.105      233.769       47.190        0.041      345.552       23.161      859.482
05/03/2013  19:07:00       66.037      102.171       19.044       68.609       61.051       47.723     4707.135     3727.176     2277.442        1.294        0.536      121.655       37.555        0.095      345.518       23.104      859.494
05/03/2013  19:08:00       56.752      150.334      -10.855       51.254       67.379       43.725     2626.949     4539.953     1911.856        1.751        0.454      160.689       39.691        0.061      345.535       23.134      859.490
05/03/2013  19:09:00      121.552      110.945       14.474       84.837       66.993       48.540     7197.302     4488.111     2356.126        2.067        0.702      164.571       28.337        0.030      345.465       23.012      859.491
05/03/2013  19:10:00      165.528      112.824       34.555      148.347      109.993       71.903    22006.977    12098.478     5169.999        4.029        1.964      200.322       49.042        0.060      345.424       22.942      859.487
05/03/2013  19:11:00       74.785      142.554        0.109       62.896      108.766       58.336     3955.953    11829.960     3403.125        2.255        0.959      160.979       56.730        0.124      345.476       23.031      859.502
05/03/2013  19:12:00       81.576      201.316      -24.254       80.199      110.037       60.317     6431.927    12108.080     3638.167        3.497        1.109      217.216       56.034        0.067      345.453       22.991      859.492
05/03/2013  19:13:00      167.651      151.964       10.000      112.657       80.532       56.583    12691.623     6485.348     3201.639        3.684        1.119      226.274       46.897        0.043      345.478       23.034      859.499
05/03/2013  19:14:00       71.252      120.090        7.694       77.300       76.146       52.251     5975.311     5798.169     2730.186        1.703        0.725      139.637       46.178        0.109      345.424       22.943      859.509
05/03/2013  19:15:00       76.194      130.091       10.556       76.351       88.210       51.396     5829.479     7781.053     2641.527        1.954        0.813      150.762       48.096        0.102      345.382       22.870      859.495
05/03/2013  19:16:00      209.844      121.665       28.101      105.959       87.102       57.414    11227.310     7586.795     3296.353        4.086        1.106      242.563       19.202        0.006      345.386       22.874      859.507
05/03/2013  19:17:00       56.429      172.379       -3.127       82.197       81.407       65.248     6756.319     6627.171     4257.339        2.527        0.882      181.380       62.437        0.118      345.405       22.909      859.529
05/03/2013  19:18:00       81.960      125.206       -0.156       64.137       81.636       68.991     4113.554     6664.474     4759.757        1.896        0.777      149.646       54.461        0.132      345.437       22.964      859.523
05/03/2013  19:19:00       91.741      173.803      -14.115       88.901       70.591       51.949     7903.329     4983.059     2698.715        2.720        0.779      196.530       43.486        0.049      345.387       22.879      859.517
05/03/2013  19:20:00      149.726      145.582        3.746      120.851       87.913       73.799    14605.058     7728.720     5446.324        3.570        1.389      208.835       56.480        0.073      345.406       22.911      859.500
05/03/2013  19:21:00      138.106      150.074       -2.246       92.672       88.952       63.673     8588.062     7912.370     4054.214        3.107        1.028      203.950       56.167        0.076      345.374       22.855      859.498
05/03/2013  19:22:00      129.029      123.688       17.733       96.871       95.527       76.804     9383.899     9125.381     5898.849        2.833        1.220      178.738       63.004        0.124      345.410       22.918      859.490
05/03/2013  19:23:00      137.835      159.219      -14.043       81.371       91.018       59.942     6621.236     8284.354     3593.054        3.152        0.925      210.593       56.258        0.071      345.406       22.912      859.475
05/03/2013  19:24:00       75.281      181.430      -10.465       72.807       87.718       52.612     5300.857     7694.401     2768.064        2.723        0.788      196.429       53.950        0.075      345.395       22.891      859.463
05/03/2013  19:25:00       78.968       81.236       18.633       75.780       67.535       43.578     5742.639     4561.007     1899.057        1.269        0.610      113.293       34.134        0.091      345.350       22.818      859.449
05/03/2013  19:26:00       73.363       94.396       18.163       61.083       54.371       51.227     3731.112     2956.243     2624.160        1.197        0.466      119.552       36.913        0.095      345.345       22.809      859.448
05/03/2013  19:27:00       35.794       99.942      -12.874       46.839       52.859       26.835     2193.855     2794.066      720.115        0.857        0.285      106.158       19.903        0.035      345.181       22.527      859.471
05/03/2013  19:28:00       36.006       67.736       -2.834       37.631       42.417       29.113     1416.112     1799.197      847.593        0.498        0.203       76.711       27.649        0.130      345.256       22.657      859.479
05/03/2013  19:29:00       85.566       60.199       25.635       55.327       40.335       45.268     3061.106     1626.879     2049.195        0.917        0.337      104.621       29.697        0.081      345.178       22.522      859.487
05/03/2013  19:30:00       92.535       96.860       10.820       59.528       54.062       45.972     3543.581     2922.710     2113.452        1.332        0.429      133.957       38.093        0.081      345.255       22.654      859.489
05/03/2013  19:31:00       92.575      103.602       18.176       44.915       48.494       41.091     2017.365     2351.631     1688.502        1.284        0.303      138.937       34.307        0.061      345.180       22.525      859.503
05/03/2013  19:32:00       27.108      100.428        0.384       57.473       75.772       38.757     3303.157     5741.456     1502.097        1.068        0.527      104.022       41.634        0.160      345.196       22.554      859.517
05/03/2013  19:33:00       40.928      128.875       -2.484       67.089       68.512       48.415     4500.924     4693.847     2343.974        1.491        0.577      135.217       45.204        0.112      345.188       22.539      859.530
05/03/2013  19:34:00       29.031      152.823      -11.284       47.676       65.541       40.050     2273.015     4295.648     1604.011        1.625        0.409      155.556       44.293        0.081      345.168       22.506      859.538
05/03/2013  19:35:00       13.145      221.014      -27.120       41.409       55.891       37.056     1714.683     3123.842     1373.144        2.798        0.311      221.405       35.714        0.026      345.171       22.508      859.534
05/03/2013  19:36:00       20.881      194.379      -29.275       34.611       66.382       28.481     1197.923     4406.574      811.176        2.274        0.321      195.497       25.284        0.017      345.132       22.443      859.526
05/03/2013  19:37:00       25.334      166.999      -20.863       46.089       57.725       30.941     2124.175     3332.166      957.327        1.769        0.321      168.910       27.729        0.027      345.103       22.393      859.527
05/03/2013  19:38:00       24.143      130.759       -3.147       46.170       72.002       41.107     2131.657     5184.247     1689.754        1.335        0.450      132.969       43.381        0.106      345.060       22.322      859.534
05/03/2013  19:39:00       26.663      124.483       -6.597       53.145       73.260       42.320     2824.419     5367.075     1790.946        1.311        0.499      127.306       45.124        0.126      345.035       22.277      859.532
05/03/2013  19:40:00       60.325      123.688        6.427       59.670       91.634       53.314     3560.453     8396.867     2842.336        1.689        0.740      137.615       58.074        0.178      345.040       22.286      859.533
05/03/2013  19:41:00       32.098      121.664      -12.259       44.547       66.133       36.410     1984.433     4373.511     1325.652        1.183        0.384      125.827       35.201        0.078      345.007       22.229      859.536
05/03/2013  19:42:00       56.689      116.634       -3.091       48.890       85.735       53.262     2390.224     7350.415     2836.797        1.470        0.629      129.681       56.344        0.189      345.008       22.232      859.544
05/03/2013  19:43:00       21.018      148.810       -6.024       42.008       82.148       40.916     1764.688     6748.347     1674.148        1.640        0.509      150.287       40.680        0.073      344.980       22.182      859.544
05/03/2013  19:44:00       41.671      151.045       -6.972       41.293       55.574       36.780     1705.087     3088.426     1352.796        1.537        0.307      156.688       27.893        0.032      344.957       22.144      859.550
05/03/2013  19:45:00       55.183      134.599        0.285       69.735       85.179       56.373     4862.946     7255.516     3177.919        1.823        0.765      145.472       51.944        0.127      344.922       22.083      859.568
05/03/2013  19:46:00       78.245      114.198        9.049       54.205       81.542       55.926     2938.207     6649.163     3127.754        1.598        0.636      138.432       56.051        0.164      344.887       22.025      859.565
05/03/2013  19:47:00       72.150      133.803        5.456       75.325       84.984       66.427     5673.856     7222.302     4412.594        2.022        0.865      152.016       57.998        0.146      344.876       22.004      859.566
05/03/2013  19:48:00       52.729       78.771       14.066       54.161       69.281       50.368     2933.434     4799.899     2536.975        0.972        0.514       94.791       34.168        0.130      344.841       21.946      859.576
05/03/2013  19:49:00       57.221      174.100      -11.851       71.355      109.753       54.961     5091.569    12045.721     3020.721        2.694        1.008      183.263       62.456        0.116      344.893       22.032      859.583
05/03/2013  19:50:00       75.619      108.264       15.004       69.877       76.989       60.762     4882.798     5927.353     3692.035        1.608        0.725      132.058       46.168        0.122      344.881       22.014      859.581
05/03/2013  19:51:00       54.321      146.861       -9.452       72.550       83.864       62.313     5263.443     7033.210     3882.870        2.039        0.809      156.585       55.753        0.127      344.859       21.972      859.585
05/03/2013  19:52:00       40.506      156.380      -10.788       52.286       76.782       45.174     2733.856     5895.514     2040.656        1.844        0.534      161.541       44.614        0.076      344.821       21.912      859.585
05/03/2013  19:53:00       36.467      119.947       -7.590       61.635       82.478       52.375     3798.844     6802.546     2743.168        1.456        0.667      125.368       49.335        0.155      344.832       21.929      859.594
05/03/2013  19:54:00       58.428      114.101        3.074       52.150       70.683       49.661     2719.625     4996.042     2466.176        1.331        0.509      128.190       46.247        0.130      344.810       21.892      859.595
05/03/2013  19:55:00       44.401      134.824        1.681       57.360       76.508       45.864     3290.166     5853.521     2103.533        1.570        0.562      141.947       46.123        0.106      344.782       21.843      859.596
05/03/2013  19:56:00       29.455      155.884      -14.774       46.494       68.175       35.022     2161.717     4647.831     1226.541        1.671        0.402      158.642       28.882        0.033      344.818       21.904      859.607
05/03/2013  19:57:00       24.628      132.291      -10.283       46.511       68.196       41.213     2163.240     4650.759     1698.474        1.336        0.426      134.564       38.995        0.084      344.772       21.827      859.618
05/03/2013  19:58:00       37.322      168.465      -22.147       36.368       50.647       27.430     1322.625     2565.107      752.396        1.745        0.232      172.550       25.979        0.023      344.779       21.838      859.640
05/03/2013  19:59:00       34.646      137.299       -1.384       41.402       85.243       47.476     1714.109     7266.358     2253.969        1.564        0.562      141.602       53.541        0.143      344.755       21.799      859.652
05/03/2013  20:00:00       13.061      152.971       -2.342       61.368      110.986       43.033     3765.982    12317.801     1851.843        2.075        0.897      153.528       56.045        0.133      344.758       21.803      859.660
05/03/2013  20:01:00       17.954      234.079      -21.844       62.404      108.468       48.029     3894.215    11765.361     2306.761        3.678        0.898      234.766       53.983        0.053      344.782       21.843      859.666
05/03/2013  20:02:00       17.831      137.413        0.251       73.035       68.427       50.161     5334.121     4682.288     2516.123        1.586        0.627      138.565       43.933        0.101      344.723       21.742      859.668
05/03/2013  20:03:00       19.942      162.449       -8.586       34.839       66.953       33.045     1213.778     4482.667     1091.958        1.682        0.339      163.669       37.854        0.053      344.724       21.744      859.670
05/03/2013  20:04:00        7.652       76.733        9.831       33.826       54.154       30.166     1144.227     2932.633      909.984        0.551        0.249       77.114       23.691        0.094      344.610       21.552      859.656
05/03/2013  20:05:00       20.356      179.140      -17.801       39.272       60.419       33.592     1542.259     3650.448     1128.393        1.957        0.316      180.292       31.313        0.030      344.725       21.746      859.660
05/03/2013  20:06:00       15.049      120.144       -5.287       39.165       60.860       29.714     1533.864     3703.897      882.907        1.040        0.306      121.083       32.935        0.074      344.655       21.629      859.651
05/03/2013  20:07:00       14.483      107.673       -0.859       40.114       67.806       32.460     1609.147     4597.718     1053.668        0.953        0.363      108.643       31.544        0.084      344.615       21.559      859.658
05/03/2013  20:08:00       26.026      132.102       -3.413       39.743       73.617       43.008     1579.514     5419.514     1849.659        1.349        0.442      134.641       45.178        0.113      344.668       21.649      859.664
05/03/2013  20:09:00       -2.854      201.127      -24.996       34.592       44.270       25.138     1196.599     1959.832      631.901        2.244        0.189      201.147       21.948        0.012      344.712       21.723      859.666
05/03/2013  20:10:00       -6.014      189.173      -25.098       33.819       50.289       28.026     1143.744     2529.018      785.450        2.045        0.223      189.269       28.015        0.022      344.698       21.700      859.677
05/03/2013  20:11:00       26.998      167.175      -18.067       57.209       82.307       48.893     3272.873     6774.424     2390.533        2.072        0.622      169.341       47.308        0.078      344.663       21.641      859.662
05/03/2013  20:12:00        4.482      188.064      -12.345       62.906       87.540       46.627     3957.142     7663.300     2174.033        2.467        0.690      188.117       48.552        0.067      344.616       21.559      859.673
05/03/2013  20:13:00       -8.540      133.914       -3.147       30.580       72.572       32.683      935.122     5266.625     1068.196        1.264        0.363      134.186       34.343        0.066      344.605       21.541      859.667
05/03/2013  20:14:00        4.181      195.116      -26.079       72.424       96.408       45.240     5245.227     9294.453     2046.651        2.767        0.829      195.161       50.525        0.067      344.617       21.561      859.683
05/03/2013  20:15:00      -31.935      189.454      -25.836       56.854       82.737       33.657     3232.372     6845.330     1132.809        2.439        0.561      192.127       38.510        0.040      344.682       21.673      859.687
05/03/2013  20:16:00        9.000      139.581        0.121       41.497       37.548       31.097     1722.021     1409.862      966.996        1.183        0.205      139.871       26.084        0.035      344.574       21.489      859.681
05/03/2013  20:17:00       13.950      256.986      -30.919       72.335       88.177       41.958     5232.285     7775.108     1760.437        4.098        0.738      257.365       43.493        0.029      344.676       21.660      859.684
05/03/2013  20:18:00        5.080      272.567      -31.756       65.374      113.291       49.160     4273.751    12834.839     2416.750        4.742        0.976      272.614       58.753        0.046      344.730       21.753      859.678
05/03/2013  20:19:00      -51.624      270.952      -30.245       73.098       86.811       44.494     5343.332     7536.190     1979.702        4.592        0.743      275.826       44.644        0.026      344.787       21.850      859.685
05/03/2013  20:20:00      -10.076      324.818      -42.973       69.030      116.679       51.240     4765.149    13614.034     2625.532        6.423        1.050      324.974       59.592        0.034      344.776       21.830      859.704
05/03/2013  20:21:00       39.547      243.332      -23.981       87.547      132.000       70.267     7664.443    17423.988     4937.466        4.568        1.501      246.524       80.600        0.107      344.720       21.735      859.712
05/03/2013  20:22:00       -6.385      190.049       -5.057       52.023      103.914       55.867     2706.401    10798.040     3121.082        2.640        0.831      190.156       56.169        0.087      344.658       21.631      859.726
05/03/2013  20:23:00      -45.473      277.144      -32.063       76.324       68.365       46.068     5825.420     4673.747     2122.225        4.626        0.631      280.850       40.743        0.021      344.687       21.679      859.740
05/03/2013  20:24:00       20.684      435.974      -61.362       75.324      117.360       57.596     5673.726    13773.420     3317.248       10.851        1.138      436.465       64.341        0.022      344.783       21.844      859.751
05/03/2013  20:25:00      -91.532      351.276      -39.021      101.508      116.611       52.156    10303.819    13598.161     2720.293        7.995        1.331      363.006       51.515        0.020      344.759       21.802      859.775
05/03/2013  20:26:00       26.570      241.052       20.782      109.232      176.378       97.415    11931.673    31109.316     9489.698        5.588        2.627      242.512      108.819        0.201      344.659       21.631      859.776
05/03/2013  20:27:00      -47.373      269.288      -28.266       98.508      139.334       68.856     9703.857    19414.071     4741.111        5.470        1.693      273.424       72.758        0.071      344.659       21.629      859.787
05/03/2013  20:28:00      -20.569      380.898      -46.261       97.451      145.888       60.443     9496.783    21283.288     3653.380        9.103        1.722      381.453       60.397        0.025      344.695       21.693      859.801
05/03/2013  20:29:00       40.891      387.712      -23.631       94.974      236.180      102.382     9019.967    55781.031    10481.987       11.390        3.764      389.863      133.096        0.117      344.701       21.702      859.790
05/03/2013  20:30:00       10.175      245.752      -28.330       77.691      104.983       53.354     6035.968    11021.477     2846.603        4.060        0.995      245.962       57.374        0.054      344.592       21.516      859.807
05/03/2013  20:31:00       30.160      233.118      -20.978       73.416      109.748       54.562     5389.981    12044.548     2977.065        3.805        1.021      235.061       60.631        0.067      344.578       21.492      859.805
05/03/2013  20:32:00      -18.385      292.032      -28.487       61.417       95.666       40.020     3772.107     9151.975     1601.566        5.048        0.726      292.610       42.234        0.021      344.613       21.554      859.805
05/03/2013  20:33:00        2.133      216.944      -12.873      132.084      122.656       64.745    17446.293    15044.577     4191.967        4.195        1.834      216.955       64.187        0.088      344.535       21.421      859.816
05/03/2013  20:34:00        0.313      337.735      -41.467       67.084      139.652       55.177     4500.210    19502.731     3044.516        7.141        1.352      337.736       66.698        0.039      344.593       21.518      859.810
05/03/2013  20:35:00       24.467      314.293      -28.761       83.776      167.142       68.414     7018.365    27936.321     4680.469        6.991        1.982      315.244       86.711        0.076      344.586       21.506      859.818
05/03/2013  20:36:00       10.033      330.577      -25.302       92.405      124.734       73.699     8538.683    15558.655     5431.516        6.977        1.476      330.730       74.599        0.051      344.572       21.481      859.822
05/03/2013  20:37:00       39.982      209.795      -11.563       73.061      153.967       63.301     5337.911    23705.796     4007.054        3.939        1.653      213.570       82.117        0.148      344.504       21.366      859.819
05/03/2013  20:38:00       -5.086      328.406      -31.056       76.291      136.418       52.370     5820.259    18609.746     2742.640        6.800        1.359      328.445       64.716        0.039      344.634       21.588      859.832
05/03/2013  20:39:00       -4.194      288.904      -31.952       79.794      118.895       70.088     6367.049    14136.046     4912.376        5.496        1.271      288.935       67.763        0.055      344.575       21.488      859.842
05/03/2013  20:40:00       47.848      227.554       -0.861       80.717      148.890       79.581     6515.204    22168.293     6333.155        4.454        1.751      232.530       82.759        0.127      344.546       21.437      859.847
05/03/2013  20:41:00        3.792      137.186        0.269       68.905       73.880       40.437     4747.952     5458.192     1635.176        1.534        0.592      137.238       39.998        0.085      344.423       21.230      859.869
05/03/2013  20:42:00      -19.261      157.058       -8.530       65.941       82.183       43.790     4348.210     6754.052     1917.605        1.906        0.651      158.235       53.906        0.116      344.490       21.343      859.888
05/03/2013  20:43:00       59.126      176.310        4.453       73.824      116.570       67.062     5449.926    13588.651     4497.255        2.906        1.177      185.960       76.591        0.170      344.449       21.274      859.890
05/03/2013  20:44:00       45.713      156.186        4.822      128.867       85.073       66.336    16606.745     7237.452     4400.525        2.737        1.412      162.738       61.515        0.143      344.444       21.265      859.914
05/03/2013  20:45:00       34.663      160.306       10.977       77.767      122.744       82.232     6047.714    15066.193     6762.024        2.744        1.394      164.011       74.546        0.207      344.445       21.267      859.921
05/03/2013  20:46:00       -7.955      281.880      -37.905       90.948       98.769       58.642     8271.526     9755.289     3438.858        5.121        1.073      281.993       50.733        0.032      344.499       21.358      859.936
05/03/2013  20:47:00        2.098      285.611      -35.544       89.411      128.947       67.101     7994.238    16627.282     4502.541        5.598        1.456      285.618       66.192        0.054      344.458       21.287      859.958
05/03/2013  20:48:00      -15.398      342.018      -40.102       77.620       84.876       44.104     6024.804     7203.920     1945.139        6.700        0.759      342.364       41.192        0.014      344.560       21.461      859.973
05/03/2013  20:49:00       64.027      331.205      -43.263      101.583      164.260       85.917    10319.027    26981.261     7381.658        8.017        2.234      337.337       95.314        0.080      344.526       21.403      859.969
05/03/2013  20:50:00       24.479      204.479      -11.431       71.614      147.890       69.130     5128.507    21871.328     4779.008        3.715        1.589      205.939       76.132        0.137      344.415       21.215      859.973
05/03/2013  20:51:00      -22.395      309.529      -29.759       60.279       90.264       45.275     3633.586     8147.650     2049.824        5.551        0.692      310.338       38.813        0.016      344.455       21.281      859.995
05/03/2013  20:52:00        2.346      322.623      -22.940       87.103      125.915       57.785     7586.982    15854.546     3339.059        6.569        1.339      322.632       60.085        0.035      344.450       21.273      860.003
05/03/2013  20:53:00      -34.162      456.910      -48.626      116.418      146.943       68.751    13553.119    21592.289     4726.747       12.608        1.994      458.185       73.188        0.026      344.520       21.394      860.007
05/03/2013  20:54:00       -7.088      297.806      -26.086      129.287      179.810       84.207    16715.049    32331.548     7090.861        7.277        2.807      297.890       80.099        0.072      344.480       21.327      860.008
05/03/2013  20:55:00       -7.846      446.614      -45.468       95.683      162.695       78.144     9155.231    26469.735     6106.472       12.166        2.087      446.683       91.694        0.042      344.492       21.345      860.016
05/03/2013  20:56:00      -11.733      494.606      -66.760      111.880      163.807       77.424    12517.086    26832.699     5994.449       14.728        2.267      494.745       84.590        0.029      344.528       21.407      860.016
05/03/2013  20:57:00       30.360      467.873      -61.395       98.245      182.278       81.697     9652.152    33225.340     6674.455       13.657        2.478      468.857       93.277        0.040      344.522       21.397      860.016
05/03/2013  20:58:00       -5.645      392.529      -21.609      140.247      207.760      104.175    19669.191    43164.271    10852.370       11.412        3.684      392.570      112.793        0.083      344.495       21.351      860.033
05/03/2013  20:59:00      -45.837      341.741      -41.741       74.595      101.079       46.131     5564.451    10216.954     2128.047        6.927        0.895      344.801       43.468        0.016      344.396       21.181      860.045
05/03/2013  21:00:00      -29.548      259.469      -31.210       49.930      112.824       38.286     2493.048    12729.297     1465.796        4.293        0.834      261.146       50.559        0.037      344.331       21.071      860.073
05/03/2013  21:01:00      -78.003      379.119      -40.919       98.928      143.849       59.519     9786.759    20692.583     3542.487        9.275        1.701      387.060       67.303        0.030      344.321       21.053      860.086
05/03/2013  21:02:00        2.550      382.970      -33.449      115.348      165.104       75.708    13305.200    27259.279     5731.735        9.704        2.315      382.978       84.411        0.049      344.284       20.992      860.101
05/03/2013  21:03:00      -76.875      311.000      -31.260       81.338      114.321       55.695     6615.938    13069.284     3101.930        6.319        1.139      320.361       53.069        0.027      344.246       20.925      860.112
05/03/2013  21:04:00      -93.624      349.632      -41.212       87.977       89.920       54.389     7739.885     8085.621     2958.142        7.574        0.939      361.950       31.088        0.007      344.226       20.889      860.134
05/03/2013  21:05:00      -68.430      292.760      -31.408       84.243      121.402       55.449     7096.828    14738.447     3074.556        5.814        1.245      300.651       48.732        0.026      344.202       20.852      860.173
05/03/2013  21:06:00      -60.930      180.016      -14.833       68.882       77.982       46.725     4744.697     6081.202     2183.228        2.467        0.650      190.048       39.874        0.044      344.121       20.713      860.190
05/03/2013  21:07:00     -135.735      140.374      -30.939       75.046       83.580       45.564     5631.904     6985.685     2076.056        2.689        0.735      195.266       41.253        0.045      343.933       20.392      860.195
05/03/2013  21:08:00     -123.650      192.976      -27.843       71.754       91.325       43.859     5148.609     8340.317     1923.627        3.436        0.771      229.193       46.956        0.042      343.601       19.824      860.202
05/03/2013  21:09:00     -131.503      129.568      -17.116       80.828       77.605       51.214     6533.191     6022.495     2622.854        2.477        0.759      184.610       57.875        0.098      343.490       19.637      860.202
05/03/2013  21:10:00     -207.520      156.876      -44.756       79.348       88.040       48.553     6296.172     7751.109     2357.421        4.304        0.820      260.143       44.025        0.029      343.515       19.678      860.204
05/03/2013  21:11:00     -230.921      258.948      -50.839      109.815      122.141       60.669    12059.269    14918.319     3680.688        7.681        1.533      346.956       60.300        0.030      343.487       19.630      860.198
05/03/2013  21:12:00     -179.789      217.533      -48.343       75.821      100.516       48.949     5748.865    10103.516     2396.029        5.011        0.912      282.214       42.003        0.022      343.493       19.639      860.221
05/03/2013  21:13:00     -145.406      243.102      -28.823       85.117       87.736       55.455     7244.874     7697.533     3075.298        4.954        0.901      283.270       58.249        0.042      343.448       19.564      860.217
05/03/2013  21:14:00     -159.692      206.347      -29.380       72.426      125.743       49.577     5245.517    15811.284     2457.842        4.623        1.176      260.923       46.693        0.032      343.452       19.570      860.231
05/03/2013  21:15:00     -146.130      206.504      -27.590       77.804      103.165       54.368     6053.498    10643.053     2955.900        4.220        0.983      252.978       58.735        0.054      343.462       19.587      860.240
05/03/2013  21:16:00     -140.087      218.675      -29.138       78.687       83.486       54.045     6191.670     6969.872     2920.856        4.218        0.804      259.698       45.599        0.031      343.469       19.599      860.243
05/03/2013  21:17:00     -171.295      162.920      -36.335       83.535       82.939       51.572     6978.114     6878.849     2659.633        3.686        0.826      236.399       43.674        0.034      343.476       19.612      860.269
05/03/2013  21:18:00     -101.103      159.820      -23.214       56.058       59.094       41.333     3142.548     3492.054     1708.383        2.232        0.417      189.114       29.376        0.024      343.436       19.543      860.284
05/03/2013  21:19:00     -134.034      177.359      -16.489       86.222       84.711       47.123     7434.279     7175.901     2220.569        3.326        0.842      222.309       38.041        0.029      343.437       19.546      860.294
05/03/2013  21:20:00     -179.697      236.961      -56.367       64.643      105.319       43.453     4178.692    11092.017     1888.172        5.439        0.858      297.391       46.958        0.025      343.427       19.527      860.308
05/03/2013  21:21:00     -195.691      233.201      -36.986       87.474      122.369       62.276     7651.676    14974.246     3878.362        6.027        1.325      304.431       73.719        0.059      343.391       19.467      860.313
05/03/2013  21:22:00     -138.969      265.667      -28.890       83.206      135.743       54.153     6923.256    18426.144     2932.556        5.950        1.414      299.819       56.448        0.035      343.378       19.444      860.328
05/03/2013  21:23:00     -148.830      249.321      -37.611      107.287       98.092       60.956    11510.545     9622.127     3715.673        5.528        1.242      290.364       65.868        0.051      343.364       19.419      860.347
05/03/2013  21:24:00     -117.991      240.298      -33.017       72.590       96.014       48.740     5269.247     9218.601     2375.577        4.481        0.843      267.703       45.351        0.029      343.357       19.409      860.348
05/03/2013  21:25:00     -164.639      315.766      -39.242       71.502      115.344       64.512     5112.531    13304.149     4161.849        7.546        1.129      356.110       59.684        0.028      343.358       19.411      860.370
05/03/2013  21:26:00     -156.097      195.191      -25.869       72.242       91.398       46.371     5218.888     8353.644     2150.273        3.943        0.786      249.932       36.709        0.022      343.333       19.367      860.361
05/03/2013  21:27:00     -190.102      139.621      -37.720       68.468       76.888       48.324     4687.879     5911.723     2335.165        3.499        0.647      235.866       40.161        0.029      343.318       19.342      860.377
05/03/2013  21:28:00     -139.981      252.797      -41.987       70.147       94.236       48.356     4920.535     8880.507     2338.264        5.070        0.807      288.966       42.412        0.022      343.285       19.284      860.398
05/03/2013  21:29:00     -155.194      133.048      -28.088       89.526      105.785       52.089     8014.818    11190.511     2713.272        3.224        1.096      204.418       59.242        0.084      343.273       19.266      860.389
05/03/2013  21:30:00     -111.446      235.800      -22.789       88.990      111.298       50.810     7919.141    12387.295     2581.649        4.571        1.144      260.810       49.821        0.036      343.205       19.149      860.404
05/03/2013  21:31:00     -162.394      162.460      -23.405       74.681      101.828       57.183     5577.244    10368.969     3269.869        3.626        0.961      229.706       55.426        0.058      343.256       19.236      860.425
05/03/2013  21:32:00     -126.061      201.637      -31.019       77.375       77.287       42.846     5986.914     5973.323     1835.770        3.565        0.690      237.799       37.610        0.025      343.198       19.136      860.429
05/03/2013  21:33:00     -161.080      214.905      -38.370       63.270       93.438       49.107     4003.086     8730.645     2411.454        4.437        0.757      268.572       44.268        0.027      343.179       19.106      860.437
05/03/2013  21:34:00     -155.948      145.501      -41.232       65.065       72.048       35.012     4233.453     5190.896     1225.860        2.892        0.533      213.285       39.903        0.035      343.131       19.024      860.447
05/03/2013  21:35:00     -204.097      206.925      -42.366       97.916       90.740       57.007     9587.531     8233.691     3249.798        5.367        1.054      290.643       55.484        0.036      343.117       18.999      860.453
05/03/2013  21:36:00     -201.055      250.398      -52.904       93.873       89.204       52.768     8812.060     7957.281     2784.460        6.273        0.978      321.127       52.164        0.026      343.138       19.034      860.455
05/03/2013  21:37:00     -257.729      231.533      -58.083       77.839       96.400       48.953     6058.932     9292.889     2396.348        7.057        0.887      346.456       45.331        0.017      343.138       19.033      860.468
05/03/2013  21:38:00     -183.164      254.544      -52.831       97.646       93.912       57.965     9534.695     8819.393     3359.998        6.142        1.086      313.595       70.577        0.051      343.079       18.934      860.468
05/03/2013  21:39:00     -176.654      186.293      -30.603      112.747      119.115       59.274    12711.812    14188.460     3513.448        4.863        1.521      256.733       64.185        0.063      343.035       18.861      860.474
05/03/2013  21:40:00     -219.513      254.327      -50.300       71.459      117.013       53.195     5106.327    13692.046     2829.760        6.851        1.081      335.959       51.595        0.024      343.083       18.941      860.476
05/03/2013  21:41:00     -267.186      274.495      -67.576       89.959      109.048       50.376     8092.584    11891.390     2537.723        8.691        1.126      383.061       49.922        0.017      343.103       18.973      860.492
05/03/2013  21:42:00     -176.196      248.917      -36.576       83.166      115.863       64.258     6916.587    13424.146     4129.130        5.940        1.223      304.967       55.293        0.033      343.056       18.894      860.495
05/03/2013  21:43:00     -211.116      168.324      -37.967       74.659       79.672       51.441     5573.990     6347.625     2646.208        4.445        0.728      270.006       47.331        0.031      343.058       18.899      860.497
05/03/2013  21:44:00     -166.823      198.408      -28.984       86.457       98.182       64.601     7474.739     9639.615     4173.342        4.466        1.064      259.221       58.653        0.051      343.050       18.886      860.501
05/03/2013  21:45:00     -210.431      187.997      -30.138      102.001      100.542       59.812    10404.168    10108.693     3577.518        5.231        1.205      282.178       61.883        0.048      343.061       18.904      860.498
05/03/2013  21:46:00     -179.975      173.429      -29.098       86.087       84.177       45.576     7411.007     7085.794     2077.213        3.994        0.829      249.937       50.974        0.042      343.039       18.866      860.507
05/03/2013  21:47:00     -164.691      261.021      -41.224       79.336      133.607       54.818     6294.195    17850.819     3005.029        6.205        1.358      308.634       57.802        0.035      343.043       18.873      860.504
05/03/2013  21:48:00     -194.362      243.835      -44.927      101.294      100.557       61.451    10260.532    10111.793     3776.196        6.170        1.207      311.820       59.631        0.037      343.060       18.901      860.510
05/03/2013  21:49:00     -214.450      205.014      -53.109       75.220       94.525       49.554     5658.099     8934.983     2455.559        5.394        0.852      296.681       49.424        0.028      343.088       18.949      860.509
05/03/2013  21:50:00     -197.805      218.334      -36.731       98.193       99.400       58.917     9641.903     9880.431     3471.225        5.557        1.150      294.612       58.116        0.039      343.065       18.912      860.522
05/03/2013  21:51:00     -194.062      163.538      -47.564       79.882       82.800       44.390     6381.131     6855.871     1970.461        4.093        0.760      253.781       44.410        0.031      343.075       18.928      860.526
05/03/2013  21:52:00     -188.717      201.548      -44.141       89.120       88.684       43.425     7942.455     7864.902     1885.702        4.794        0.885      276.108       43.757        0.025      343.061       18.903      860.535
05/03/2013  21:53:00     -186.864      239.339      -46.810      103.278      110.205       57.895    10666.333    12145.220     3351.851        6.027        1.308      303.647       69.648        0.053      343.055       18.894      860.540
05/03/2013  21:54:00     -228.222      279.248      -58.810       79.796       96.062       55.557     6367.346     9227.874     3086.569        7.610        0.934      360.645       51.702        0.021      343.088       18.950      860.562
05/03/2013  21:55:00     -159.551      258.807      -30.880       63.982      120.209       51.559     4093.671    14450.199     2658.361        5.729        1.060      304.036       45.155        0.022      343.033       18.856      860.570
05/03/2013  21:56:00     -151.683      170.411      -37.586       69.866       77.265       41.064     4881.285     5969.851     1686.247        3.300        0.627      228.139       35.491        0.024      343.023       18.840      860.595
05/03/2013  21:57:00     -214.764      250.964      -57.107       99.705       84.491       50.592     9941.009     7138.718     2559.557        6.600        0.982      330.313       50.934        0.024      343.060       18.901      860.599
05/03/2013  21:58:00     -186.361      179.344      -39.927       65.225       68.682       46.649     4254.296     4717.222     2176.105        3.982        0.557      258.640       41.411        0.026      343.038       18.864      860.611
05/03/2013  21:59:00     -169.976      192.909      -44.359       60.708       82.228       42.205     3685.472     6761.484     1781.276        4.015        0.611      257.110       39.969        0.024      342.991       18.785      860.610
05/03/2013  22:00:00     -208.168      215.191      -48.281       82.313       87.131       50.205     6775.411     7591.736     2520.575        5.443        0.844      299.401       40.942        0.019      343.016       18.828      860.623
05/03/2013  22:01:00     -158.248      242.979      -31.438       73.883       71.582       55.235     5458.716     5124.035     3050.851        4.935        0.682      289.967       51.283        0.031      342.954       18.720      860.616
05/03/2013  22:02:00     -170.526      198.475      -40.220       68.957       85.740       41.866     4755.059     7351.269     1752.758        4.197        0.693      261.670       41.373        0.025      342.960       18.732      860.634
05/03/2013  22:03:00     -148.379      222.950      -42.715      100.678       83.615       47.762    10135.969     6991.449     2281.198        4.647        0.970      267.812       54.416        0.041      342.931       18.681      860.634
05/03/2013  22:04:00     -101.567      155.934      -20.393       60.509       84.064       37.455     3661.279     7066.765     1402.855        2.359        0.607      186.095       41.018        0.049      342.835       18.520      860.644
05/03/2013  22:05:00     -102.136      173.354      -22.796       72.572       68.870       41.779     5266.663     4743.031     1745.477        2.638        0.588      201.205       41.942        0.043      342.823       18.499      860.644
05/03/2013  22:06:00     -112.626      263.413      -33.843       69.753       76.938       43.820     4865.464     5919.424     1920.214        4.796        0.635      286.481       31.541        0.012      342.807       18.471      860.657
05/03/2013  22:07:00     -131.736      197.947      -28.385       60.022       74.859       44.861     3602.608     5603.798     2012.549        3.428        0.561      237.776       43.659        0.034      342.717       18.319      860.663
05/03/2013  22:08:00     -167.728      149.380      -31.545       64.401       94.954       39.072     4147.457     9016.343     1526.643        3.306        0.735      224.604       30.320        0.018      342.707       18.301      860.653
05/03/2013  22:09:00     -177.074      195.034      -46.599       72.752       70.241       42.372     5292.856     4933.764     1795.412        4.179        0.601      263.427       42.582        0.026      342.754       18.382      860.659
05/03/2013  22:10:00     -154.324      197.103      -41.407       76.441       69.178       44.884     5843.163     4785.645     2014.613        3.851        0.632      250.331       45.822        0.034      342.739       18.356      860.661
05/03/2013  22:11:00     -189.256      206.228      -33.195       98.500      118.717       64.204     9702.286    14093.726     4122.164        5.368        1.396      279.907       68.610        0.060      342.773       18.414      860.665
05/03/2013  22:12:00      -87.767      169.667      -23.877       63.431       75.746       41.390     4023.548     5737.422     1713.160        2.427        0.574      191.023       39.876        0.044      342.732       18.345      860.673
05/03/2013  22:13:00     -136.892      186.190      -35.525       66.881       62.951       47.945     4473.072     3962.852     2298.700        3.270        0.537      231.098       33.971        0.022      342.790       18.442      860.677
05/03/2013  22:14:00     -123.924      234.804      -33.243       81.638       79.992       46.034     6664.793     6398.680     2119.153        4.339        0.759      265.500       42.179        0.025      342.767       18.401      860.692
05/03/2013  22:15:00     -137.337      209.097      -27.808       62.760       70.920       38.599     3938.830     5029.630     1489.899        3.691        0.523      250.166       35.447        0.020      342.761       18.392      860.674
05/03/2013  22:16:00     -101.564      106.656      -12.137       69.350       54.520       36.097     4809.394     2972.441     1302.992        1.546        0.454      147.278       29.685        0.041      342.745       18.367      860.690
05/03/2013  22:17:00      -86.107      206.802      -23.431       56.865       59.249       36.368     3233.597     3510.473     1322.606        2.940        0.403      224.012       33.906        0.023      342.741       18.360      860.671
05/03/2013  22:18:00     -118.338      140.130      -23.993       72.656       68.142       42.404     5278.848     4643.287     1798.141        2.297        0.586      183.413       47.727        0.068      342.765       18.401      860.668
05/03/2013  22:19:00     -119.392      218.093      -33.713       68.068       85.358       38.351     4633.299     7285.995     1470.788        3.817        0.670      248.634       34.728        0.020      342.815       18.485      860.674
05/03/2013  22:20:00     -111.939      144.070      -34.111       46.300       74.042       29.879     2143.651     5482.272      892.745        2.148        0.426      182.446       28.660        0.025      342.825       18.502      860.653
05/03/2013  22:21:00     -111.058      114.599      -11.401       79.803       63.499       47.775     6368.577     4032.150     2282.445        1.914        0.634      159.584       44.454        0.078      342.808       18.474      860.652
05/03/2013  22:22:00     -146.048      217.250      -40.424       69.079       89.095       52.785     4771.895     7937.981     2786.301        4.283        0.775      261.777       49.888        0.036      342.894       18.619      860.644
05/03/2013  22:23:00     -189.369      232.557      -43.061       76.679       85.292       49.294     5879.695     7274.669     2429.884        5.369        0.779      299.905       49.385        0.027      342.907       18.642      860.633
05/03/2013  22:24:00     -147.568      222.706      -34.462       66.502       87.065       50.802     4422.519     7580.344     2580.844        4.357        0.729      267.160       47.241        0.031      342.904       18.638      860.629
05/03/2013  22:25:00      -95.368      186.312      -22.738       86.169       82.943       46.355     7425.046     6879.526     2148.761        3.039        0.823      209.302       52.180        0.062      342.894       18.620      860.638
05/03/2013  22:26:00      -96.377      179.638      -19.899       58.283       84.185       41.868     3396.931     7087.043     1752.915        2.709        0.612      203.858       31.530        0.024      342.862       18.566      860.634
05/03/2013  22:27:00     -106.058      237.358      -28.046       71.767      101.041       45.677     5150.509    10209.267     2086.403        4.291        0.872      259.975       50.604        0.038      342.883       18.600      860.628
05/03/2013  22:28:00     -133.805      153.601      -18.528       79.207       86.324       52.212     6273.687     7451.790     2726.105        2.914        0.823      203.708       47.714        0.055      342.873       18.583      860.621
05/03/2013  22:29:00      -91.149      221.482      -24.483       72.460       71.000       42.323     5250.475     5040.960     1791.270        3.502        0.604      239.505       38.502        0.026      342.824       18.499      860.634
05/03/2013  22:30:00     -121.802      221.601      -30.697       76.174       60.785       44.814     5802.438     3694.806     2008.331        3.819        0.575      252.869       44.949        0.032      342.863       18.566      860.630
05/03/2013  22:31:00     -100.735      246.955      -37.223       53.783       74.189       32.706     2892.653     5504.026     1069.696        4.099        0.473      266.711       28.426        0.011      342.858       18.559      860.627
05/03/2013  22:32:00      -80.810      198.003      -30.516       52.204       85.859       35.050     2725.303     7371.728     1228.523        2.899        0.566      213.859       30.184        0.020      342.779       18.425      860.626
05/03/2013  22:33:00      -79.899      163.442      -13.063       57.368       75.291       45.693     3291.111     5668.705     2087.894        2.216        0.552      181.926       35.564        0.038      342.729       18.341      860.625
05/03/2013  22:34:00      -87.545      165.229      -28.311       43.128       91.552       44.221     1860.049     8381.720     1955.506        2.398        0.610      186.989       35.424        0.036      342.744       18.366      860.619
05/03/2013  22:35:00     -113.452      207.705      -30.676       64.695       90.962       39.765     4185.424     8274.122     1581.222        3.549        0.702      236.670       49.288        0.043      342.784       18.433      860.618
05/03/2013  22:36:00      -99.053      136.126      -23.856       80.844       60.272       39.384     6535.774     3632.658     1551.077        2.031        0.586      168.350       39.578        0.055      342.706       18.303      860.609
05/03/2013  22:37:00      -99.838      162.343      -28.992       54.289       57.367       35.180     2947.337     3291.004     1237.620        2.232        0.374      190.585       31.131        0.027      342.780       18.426      860.597
05/03/2013  22:38:00     -140.770      134.329      -18.373       62.446       78.605       46.263     3899.501     6178.796     2140.304        2.521        0.611      194.578       37.319        0.037      342.789       18.442      860.590
05/03/2013  22:39:00     -135.142      170.231      -26.276       72.814       77.857       46.291     5301.828     6061.772     2142.823        3.072        0.675      217.352       45.019        0.043      342.757       18.388      860.581
05/03/2013  22:40:00     -196.677      179.502      -49.111       99.908       79.457       46.700     9981.691     6313.344     2180.864        4.589        0.924      266.276       50.281        0.036      342.809       18.476      860.571
05/03/2013  22:41:00     -181.863      261.397      -45.512       73.743       98.811       52.858     5438.050     9763.563     2793.938        6.073        0.900      318.437       55.516        0.030      342.778       18.423      860.574
05/03/2013  22:42:00     -177.860      254.560      -44.739       95.642       90.834       59.322     9147.468     8250.851     3519.149        5.967        1.046      310.539       61.344        0.039      342.793       18.448      860.582
05/03/2013  22:43:00     -130.741      167.955      -28.832       54.739       68.656       36.352     2996.350     4713.581     1321.452        2.758        0.452      212.843       34.268        0.026      342.752       18.378      860.572
05/03/2013  22:44:00     -173.437      180.148      -29.813       74.798       96.587       52.216     5594.760     9328.989     2726.539        4.053        0.883      250.068       45.314        0.033      342.784       18.433      860.571
05/03/2013  22:45:00     -128.855      216.699      -27.923       73.099       81.643       50.034     5343.426     6665.600     2503.410        3.942        0.726      252.115       48.820        0.037      342.710       18.307      860.592
05/03/2013  22:46:00     -168.636      197.023      -33.150       66.284       88.440       43.695     4393.546     7821.641     1909.222        4.124        0.706      259.338       46.166        0.032      342.740       18.357      860.589
05/03/2013  22:47:00     -180.880      202.645      -38.733       88.614       99.202       50.362     7852.366     9841.062     2536.283        4.775        1.011      271.630       45.012        0.027      342.704       18.297      860.590
05/03/2013  22:48:00     -192.531      169.947      -43.005      103.046      111.554       52.027    10618.441    12444.226     2706.806        4.678        1.288      256.808       66.514        0.067      342.755       18.384      860.599
05/03/2013  22:49:00     -212.686      265.778      -50.686       83.816       87.960       48.621     7025.070     7736.894     2363.966        6.778        0.856      340.402       44.749        0.017      342.747       18.368      860.590
05/03/2013  22:50:00     -162.834      230.447      -38.273       77.580       79.570       42.120     6018.724     6331.339     1774.103        4.760        0.706      282.171       37.857        0.018      342.722       18.328      860.595
05/03/2013  22:51:00     -198.341      287.107      -48.286       77.841       85.933       51.719     6059.145     7384.501     2674.859        7.011        0.806      348.955       48.135        0.019      342.794       18.449      860.599
05/03/2013  22:52:00     -170.666      150.313      -41.061       73.930       90.438       46.631     5465.656     8179.025     2174.463        3.461        0.791      227.422       51.924        0.052      342.712       18.310      860.584
05/03/2013  22:53:00     -193.474      209.567      -39.610       86.067       73.745       51.326     7407.605     5438.387     2634.332        4.920        0.774      285.220       47.309        0.028      342.745       18.365      860.570
05/03/2013  22:54:00     -215.078      208.273      -47.346      107.429       79.585       52.779    11541.036     6333.785     2785.629        5.627        1.033      299.393       52.133        0.030      342.775       18.416      860.576
05/03/2013  22:55:00     -179.412      167.989      -22.806       91.556      118.884       54.305     8382.545    14133.514     2949.041        4.319        1.273      245.782       50.083        0.042      342.777       18.420      860.574
05/03/2013  22:56:00     -131.897      160.221      -28.164       68.422       86.566       49.803     4681.555     7493.685     2480.315        2.926        0.733      207.528       31.888        0.024      342.769       18.409      860.565
05/03/2013  22:57:00     -226.612      278.481      -50.686      114.515      135.817       62.868    13113.744    18446.270     3952.346        8.349        1.776      359.033       82.025        0.052      342.866       18.572      860.583
05/03/2013  22:58:00     -131.954      182.026      -35.286       74.242       88.371       56.614     5511.868     7809.431     3205.175        3.416        0.826      224.824       53.157        0.056      342.778       18.423      860.578
05/03/2013  22:59:00     -192.541      192.316      -38.302       72.072       83.586       46.712     5194.318     6986.561     2181.989        4.494        0.718      272.136       41.037        0.023      342.833       18.515      860.571
05/03/2013  23:00:00     -192.944      267.833      -43.490       71.983       85.518       54.883     5181.488     7313.252     3012.121        6.318        0.775      330.094       36.902        0.012      342.844       18.533      860.576
05/03/2013  23:01:00     -213.161      256.096      -56.122       83.997       86.958       53.730     7055.515     7561.616     2886.923        6.584        0.875      333.201       50.722        0.023      342.858       18.558      860.580
05/03/2013  23:02:00     -224.182      222.885      -59.735       96.816       71.316       46.220     9373.284     5085.903     2136.278        6.005        0.830      316.126       53.210        0.028      342.830       18.509      860.573
05/03/2013  23:03:00     -202.677      228.433      -50.307       65.565       69.621       45.138     4298.723     4847.134     2037.423        5.348        0.559      305.384       32.888        0.012      342.794       18.449      860.571
05/03/2013  23:04:00     -184.024      188.636      -48.395       64.897       75.438       39.268     4211.604     5690.882     1541.975        4.162        0.572      263.531       26.561        0.010      342.749       18.371      860.568
05/03/2013  23:05:00     -128.305      194.854      -29.797       59.404       63.938       40.109     3528.890     4088.118     1608.695        3.227        0.461      233.303       35.932        0.024      342.671       18.239      860.573
05/03/2013  23:06:00     -184.672      182.520      -41.781       48.250       84.912       38.833     2328.084     7210.111     1508.022        4.010        0.552      259.649       33.753        0.017      342.690       18.273      860.564
05/03/2013  23:07:00     -169.642      274.001      -41.643       61.681       78.206       46.060     3804.494     6116.220     2121.496        5.881        0.602      322.265       43.209        0.018      342.713       18.312      860.557
05/03/2013  23:08:00     -164.904      222.810      -32.788       95.234      115.863       58.891     9069.576    13424.326     3468.158        5.193        1.298      277.196       68.098        0.060      342.685       18.264      860.578
05/03/2013  23:09:00     -141.992      239.630      -40.456       81.133       78.198       47.858     6582.511     6114.862     2290.343        4.710        0.749      278.540       39.913        0.021      342.724       18.329      860.584
05/03/2013  23:10:00     -116.391      250.845      -15.253       78.683      100.467       54.754     6190.947    10093.681     2997.984        4.799        0.964      276.532       49.186        0.032      342.694       18.280      860.574
05/03/2013  23:11:00     -157.637      222.201      -32.292       68.251       83.344       43.307     4658.194     6946.212     1875.460        4.437        0.674      272.438       32.498        0.014      342.684       18.263      860.576
05/03/2013  23:12:00     -147.620      161.895      -24.435       68.684       81.189       39.383     4717.466     6591.587     1551.052        3.073        0.643      219.093       38.802        0.031      342.648       18.202      860.589
05/03/2013  23:13:00     -162.803      235.649      -39.506       64.813       89.362       52.040     4200.723     7985.543     2708.154        4.924        0.745      286.418       45.890        0.026      342.634       18.176      860.603
05/03/2013  23:14:00     -117.413      236.578      -28.041       59.968      103.173       53.539     3596.120    10644.633     2866.427        4.382        0.855      264.112       49.703        0.035      342.605       18.128      860.596
05/03/2013  23:15:00     -141.261      132.040      -25.519       62.678       83.621       37.757     3928.591     6992.541     1425.611        2.519        0.617      193.363       40.150        0.043      342.563       18.057      860.589
05/03/2013  23:16:00     -155.365      130.839      -26.466       67.172       71.789       38.471     4512.134     5153.599     1480.011        2.655        0.557      203.118       34.513        0.029      342.525       17.992      860.595
05/03/2013  23:17:00     -144.540      198.591      -28.667       74.710       95.356       45.206     5581.584     9092.780     2043.594        3.893        0.836      245.622       40.030        0.027      342.495       17.940      860.599
05/03/2013  23:18:00     -219.437      208.733      -53.511       51.451       85.176       40.845     2647.180     7254.996     1668.275        5.308        0.579      302.856       37.342        0.015      342.531       18.000      860.598
05/03/2013  23:19:00     -178.164      192.454      -34.929       92.168       75.403       54.130     8495.028     5685.575     2930.108        4.355        0.856      262.261       53.737        0.042      342.485       17.926      860.580
05/03/2013  23:20:00     -125.311      177.183      -27.661       74.481       73.103       43.619     5547.398     5344.024     1902.614        3.033        0.640      217.017       42.963        0.039      342.395       17.773      860.576
05/03/2013  23:21:00     -188.394      164.202      -36.507       64.311       70.808       40.118     4135.843     5013.723     1609.417        3.727        0.538      249.909       34.253        0.019      342.405       17.788      860.571
05/03/2013  23:22:00     -181.884      233.789      -39.415       64.291       82.203       43.074     4133.292     6757.409     1855.410        5.102        0.637      296.208       38.426        0.017      342.453       17.869      860.564
05/03/2013  23:23:00     -192.019      191.012      -41.328       78.148       91.567       49.059     6107.168     8384.468     2406.755        4.598        0.845      270.845       49.684        0.034      342.469       17.898      860.565
05/03/2013  23:24:00     -168.984      216.869      -36.551       71.364      103.403       49.652     5092.817    10692.267     2465.315        4.758        0.913      274.932       45.490        0.027      342.446       17.859      860.560
05/03/2013  23:25:00     -205.850      200.385      -56.992       59.584       76.572       37.225     3550.273     5863.260     1385.675        4.829        0.540      287.277       37.897        0.017      342.488       17.927      860.569
05/03/2013  23:26:00     -163.297      223.342      -45.421       58.436      108.652       45.933     3414.728    11805.283     2109.861        4.797        0.866      276.672       48.967        0.031      342.441       17.850      860.582
05/03/2013  23:27:00     -140.463      203.884      -28.066       86.551       72.104       44.651     7491.127     5198.927     1993.717        3.838        0.734      247.586       40.720        0.027      342.437       17.842      860.567
05/03/2013  23:28:00     -172.956      221.561      -41.040       83.857       79.852       52.374     7032.000     6376.331     2742.987        4.842        0.808      281.075       51.646        0.034      342.416       17.807      860.569
05/03/2013  23:29:00     -184.923      221.204      -42.595       81.841       88.063       49.911     6697.962     7755.123     2491.148        5.094        0.847      288.319       46.351        0.026      342.419       17.812      860.571
05/03/2013  23:30:00     -123.745      160.875      -20.407      103.151       74.786       55.654    10640.205     5593.017     3097.420        3.047        0.967      202.962       58.423        0.083      342.387       17.759      860.568
05/03/2013  23:31:00     -166.236      182.181      -37.062       61.439      101.583       43.874     3774.746    10319.027     1924.889        3.911        0.801      246.626       51.509        0.044      342.421       17.817      860.561
05/03/2013  23:32:00     -193.235      220.801      -52.778       73.601       91.296       43.634     5417.100     8334.898     1903.894        5.226        0.783      293.416       45.391        0.024      342.441       17.849      860.568
05/03/2013  23:33:00     -179.175      223.521      -49.736       70.715       98.123       47.735     5000.596     9628.026     2278.671        5.072        0.845      286.470       42.779        0.022      342.430       17.830      860.566
05/03/2013  23:34:00     -199.622      217.729      -43.402      112.520       85.779       56.881    12660.803     7358.016     3235.501        5.619        1.163      295.390       54.981        0.035      342.448       17.863      860.572
05/03/2013  23:35:00     -154.870      192.572      -29.317       93.375      108.872       55.216     8718.857    11853.152     3048.832        4.277        1.181      247.120       46.616        0.036      342.432       17.837      860.569
05/03/2013  23:36:00     -209.690      230.276      -48.745       82.666      108.052       47.246     6833.750    11675.234     2232.143        6.005        1.037      311.443       55.185        0.031      342.420       17.814      860.566
05/03/2013  23:37:00     -204.749      222.494      -42.941       90.622      102.845       60.029     8212.373    10577.068     3603.466        5.783        1.120      302.367       52.033        0.030      342.393       17.768      860.576
05/03/2013  23:38:00     -220.896      277.396      -54.239       92.668      142.688       54.215     8587.367    20359.758     2939.293        8.028        1.594      354.603       61.621        0.030      342.395       17.772      860.575
05/03/2013  23:39:00     -202.700      260.136      -49.622       75.524       80.941       50.895     5703.854     6551.365     2590.315        6.303        0.742      329.785       43.721        0.018      342.387       17.758      860.586
05/03/2013  23:40:00     -184.024      191.737      -30.272       92.027       77.110       57.058     8469.048     5945.984     3255.565        4.460        0.884      265.759       46.463        0.031      342.377       17.740      860.594
05/03/2013  23:41:00     -164.726      226.406      -36.264       69.018      104.345       47.143     4763.482    10887.839     2222.447        4.879        0.894      279.990       43.047        0.024      342.391       17.764      860.598
05/03/2013  23:42:00     -130.190      202.207      -30.480       75.137      109.921       52.808     5645.510    12082.517     2788.638        3.964        1.026      240.493       45.064        0.035      342.357       17.706      860.593
05/03/2013  23:43:00      -95.952      156.270       -4.810       80.419      105.481       46.567     6467.247    11126.203     2168.460        2.670        0.988      183.376       17.390        0.009      342.265       17.551      860.593
05/03/2013  23:44:00     -122.854      227.865      -25.380       94.957      105.533       49.750     9016.801    11137.129     2475.015        4.514        1.131      258.874       58.373        0.051      342.281       17.577      860.612
05/03/2013  23:45:00     -192.264      225.327      -44.861       89.116      106.771       58.071     7941.656    11399.997     3372.186        5.623        1.136      296.205       60.793        0.042      342.310       17.627      860.610
05/03/2013  23:46:00     -210.039      257.913      -48.528       77.814      106.772       48.107     6054.954    11400.325     2314.255        6.638        0.988      332.619       44.732        0.018      342.305       17.618      860.604
05/03/2013  23:47:00     -228.756      267.571      -61.753       97.146       74.463       45.999     9437.403     5544.710     2115.948        7.241        0.855      352.028       53.935        0.023      342.340       17.677      860.611
05/03/2013  23:48:00     -149.685      251.522      -33.526      104.128      101.134       59.534    10842.626    10228.156     3544.257        5.570        1.231      292.693       60.421        0.043      342.306       17.621      860.617
05/03/2013  23:49:00      -94.178      201.103      -24.317       69.242       96.672       40.401     4794.418     9345.421     1632.267        3.284        0.789      222.063       35.479        0.026      342.270       17.559      860.620
05/03/2013  23:50:00     -149.697      190.255      -31.041       98.380       77.556       53.556     9678.716     6014.994     2868.287        3.906        0.928      242.087       61.565        0.065      342.258       17.541      860.623
05/03/2013  23:51:00     -179.766      261.944      -48.048       73.489       85.743       51.309     5400.603     7351.924     2632.659        5.931        0.769      317.695       39.037        0.015      342.288       17.589      860.617
05/03/2013  23:52:00     -130.695      192.027      -20.465       78.854       90.803       55.684     6217.959     8245.162     3100.727        3.597        0.878      232.283       57.311        0.061      342.230       17.491      860.621
05/03/2013  23:53:00     -119.644      231.147      -24.543       99.148       95.959       63.671     9830.268     9208.055     4053.964        4.572        1.155      260.275       55.721        0.046      342.222       17.477      860.629
05/03/2013  23:54:00     -135.412      212.428      -25.634       95.350      110.946       57.886     9091.643    12309.018     3350.741        4.443        1.238      251.916       66.382        0.069      342.207       17.453      860.633
05/03/2013  23:55:00     -137.470      247.423      -38.043       87.777       91.239       51.114     7704.835     8324.599     2612.681        5.010        0.932      283.048       60.020        0.045      342.212       17.460      860.626
05/03/2013  23:56:00     -171.749      143.784      -36.823       91.948       67.622       43.706     8454.492     4572.701     1910.207        3.323        0.747      223.990       43.649        0.038      342.209       17.456      860.638
05/03/2013  23:57:00     -175.065      252.118      -42.360      105.738      103.408       58.398    11180.596    10693.262     3410.293        6.064        1.264      306.938       62.570        0.042      342.214       17.463      860.651
05/03/2013  23:58:00     -166.789      186.104      -21.292       92.105       80.827       58.667     8483.350     6532.986     3441.847        4.068        0.923      249.906       61.490        0.061      342.176       17.400      860.657
05/03/2013  23:59:00     -118.100      180.517      -28.011       72.149       83.076       49.263     5205.535     6901.573     2426.888        3.092        0.727      215.717       32.496        0.023      342.131       17.322      860.655
